GFSGL_sfc_thetae_000.txt.gz
Theta_e
317 316 322 321 320 317 319 318 318 317 318 320 321 322 322 323 323 325 326 326 326 326 326 326 325 326 327 326 327 327 324 325 321 324 327 328 327 327 327 326 327 326 324
317 317 321 322 320 318 319 318 318 318 319 320 322 322 322 322 323 324 325 326 326 325 325 326 324 325 326 325 327 325 325 326 324 320 323 324 325 325 324 323 324 324 323
316 315 320 320 319 318 318 318 318 319 320 322 323 323 322 323 323 323 323 324 326 325 326 325 325 326 325 325 326 325 325 326 325 323 321 323 323 324 321 321 320 320 319
314 317 319 319 319 318 319 319 319 321 321 322 323 323 323 324 323 322 322 324 326 326 325 325 326 325 325 324 324 324 325 324 324 323 321 319 320 320 322 320 320 320 318
313 318 318 318 319 319 319 320 320 322 322 323 324 324 324 324 323 322 323 324 325 325 325 325 325 324 321 323 325 324 325 323 322 321 319 318 317 318 319 318 319 317 317
312 317 318 318 319 319 319 319 320 320 322 323 324 324 324 325 306 312 320 323 326 326 323 323 323 319 316 314 315 316 321 323 320 322 319 319 318 320 316 317 316 316 314
312 318 318 318 319 318 318 318 318 318 320 321 321 323 323 321 302 306 311 325 325 324 324 325 325 323 322 322 312 312 313 313 315 322 321 321 319 319 317 314 315 315 316
311 316 317 317 318 317 317 317 315 315 318 318 318 321 321 317 302 303 310 324 324 325 326 326 325 325 321 323 324 323 323 323 323 322 323 322 324 321 321 320 318 317 316
311 314 315 316 317 316 316 315 314 314 314 315 316 320 321 317 300 301 317 325 324 325 326 324 325 325 304 308 324 320 315 313 304 307 306 304 303 304 312 319 318 320 317
311 313 313 316 317 316 315 314 313 314 314 313 314 319 314 319 300 302 316 324 321 321 322 322 311 317 300 304 318 315 313 312 311 308 308 307 308 308 305 323 320 317 310
313 313 312 316 316 316 315 314 313 312 312 312 311 312 316 316 312 300 306 322 320 319 320 319 320 304 300 298 304 315 312 310 304 307 307 309 311 312 313 316 318 314 310
313 313 311 313 317 316 316 314 313 312 310 309 309 308 308 312 305 300 301 308 310 319 318 318 315 299 298 297 303 301 297 303 312 312 312 312 311 310 310 310 312 312 312
312 312 310 310 318 316 316 314 312 312 310 309 309 309 309 306 306 301 299 299 302 316 318 311 298 296 295 298 297 296 297 312 314 314 313 312 311 308 308 307 308 308 306
311 311 310 309 313 317 317 316 314 312 311 310 310 310 310 307 306 306 309 307 301 307 303 302 299 299 298 301 301 301 308 314 316 314 312 308 306 306 305 306 305 304 302
311 310 310 310 312 317 317 316 317 317 313 313 312 312 310 309 308 301 305 309 311 306 301 303 303 303 302 301 301 303 307 312 313 309 307 305 305 304 303 305 305 303 301
309 308 309 310 310 316 316 311 295 300 302 299 300 310 313 305 298 295 294 295 295 294 304 304 304 304 304 303 302 301 305 309 311 308 307 306 304 304 303 303 303 301 296
310 308 307 308 311 314 316 315 314 306 298 299 299 299 301 305 296 295 293 292 292 296 309 305 306 306 307 306 304 303 304 310 309 307 306 305 304 304 302 302 300 298 296
311 301 308 309 312 314 316 317 317 316 314 314 298 301 297 296 295 293 291 294 298 299 305 307 306 306 305 306 305 304 306 307 307 306 304 304 304 302 302 300 297 295 294
311 309 310 310 313 313 316 317 316 317 316 313 303 297 294 293 293 291 292 307 304 303 304 305 307 306 304 303 304 305 307 306 306 304 303 303 303 303 301 299 296 292 292
313 305 306 311 313 315 316 316 315 315 315 313 310 312 299 300 304 302 299 303 305 305 305 305 307 306 305 302 301 303 306 303 303 303 303 302 302 302 301 298 297 296 296
314 310 306 312 314 315 316 315 315 315 314 313 314 309 295 307 308 307 304 303 306 307 307 306 306 307 307 305 304 303 304 304 304 303 302 300 300 300 299 297 296 295 295
316 313 311 313 314 315 315 316 316 315 315 314 314 308 290 306 308 308 308 307 307 309 310 309 309 308 308 308 306 304 304 304 304 303 301 300 298 297 296 295 293 292 291
316 314 312 313 314 309 312 316 316 316 316 315 315 310 301 305 308 309 308 309 309 309 309 307 308 309 310 310 310 308 306 304 303 303 300 299 297 295 294 293 292 290 290
317 316 313 313 313 313 314 314 315 307 315 316 315 314 310 308 308 309 310 310 309 310 310 307 307 308 309 310 310 309 309 308 306 304 301 298 295 293 293 292 291 289 288
317 316 315 314 313 312 313 314 314 315 314 314 314 314 315 312 309 309 310 309 309 308 308 308 308 308 308 309 308 307 295 292 301 297 300 298 295 294 293 291 290 287 286
318 317 316 315 314 314 313 313 313 314 314 313 312 313 315 314 313 311 309 309 308 308 308 308 308 307 306 306 304 293 290 291 294 294 298 297 295 293 292 290 288 287 286

GFSGL_sfc_thetae_003.txt.gz
Theta_e
329 331 332 332 330 329 329 328 327 328 328 327 328 328 329 331 333 332 331 329 329 331 333 328 329 334 332 334 335 330 330 326 321 324 327 328 327 328 328 328 331 329 327
329 329 331 333 330 328 329 329 328 327 327 327 329 328 329 330 332 331 328 327 326 327 328 327 328 331 332 334 335 333 333 327 324 321 324 325 325 327 326 328 327 327 328
327 328 332 332 331 331 329 329 329 328 328 329 330 329 329 330 331 331 330 328 328 328 330 328 329 329 331 333 333 333 332 327 327 324 322 324 324 325 325 326 325 326 325
326 327 330 330 331 330 329 329 329 330 329 331 331 330 330 330 330 330 329 328 328 329 329 330 331 329 332 331 329 331 333 327 327 322 322 321 321 323 323 320 319 324 321
325 327 329 330 329 330 329 329 330 331 330 331 331 330 331 330 328 329 329 328 329 328 331 331 332 328 323 323 331 326 330 327 323 321 319 319 318 319 319 324 323 322 323
325 327 327 327 327 329 329 330 330 330 331 331 330 329 330 328 306 313 324 328 330 331 330 331 331 324 318 314 314 316 324 326 322 321 320 318 320 325 325 323 322 319 316
324 327 326 327 326 328 328 329 329 329 331 331 330 330 330 329 303 305 311 329 329 330 332 331 329 328 327 329 313 313 313 312 317 327 328 326 326 327 327 326 324 322 321
322 326 326 326 326 327 328 327 328 329 330 330 330 331 331 327 301 303 309 328 328 328 332 332 331 332 329 329 328 328 327 327 329 333 335 334 334 332 331 328 327 326 325
320 325 325 326 326 326 327 327 326 328 329 328 328 330 330 325 301 302 317 325 326 328 330 332 332 330 305 309 327 328 329 325 308 304 305 307 307 309 318 324 320 322 320
320 323 325 325 327 327 329 327 326 329 328 325 327 331 320 325 300 301 318 329 327 328 326 325 311 321 300 307 331 329 326 325 326 326 326 315 315 313 309 330 326 323 322
322 322 325 326 328 329 329 327 326 326 325 324 325 327 329 325 318 300 306 324 327 328 327 328 327 299 299 303 308 326 322 324 317 328 326 325 325 324 325 328 330 328 322
322 321 323 326 326 326 328 327 325 327 324 323 323 323 326 328 311 300 301 310 314 325 325 326 323 301 299 299 309 296 298 310 323 322 322 322 323 322 322 324 324 324 324
322 322 323 323 326 327 327 326 323 325 323 322 321 322 322 324 327 302 299 301 306 327 328 315 299 297 296 303 298 296 299 320 323 323 321 318 319 319 320 318 319 317 315
322 323 323 322 324 326 326 325 324 322 321 319 320 321 321 322 325 327 324 319 303 316 307 312 305 305 300 309 311 309 322 321 322 321 321 320 318 317 316 314 311 309 306
323 322 322 321 323 325 326 325 324 326 321 322 321 321 322 321 321 316 319 325 326 317 314 317 318 320 321 320 320 319 319 321 322 323 321 316 315 314 313 314 312 311 308
322 321 320 319 320 323 325 322 296 302 302 299 304 315 321 308 298 297 298 298 297 296 317 318 318 319 319 319 318 317 318 315 322 321 320 317 314 313 312 313 313 312 308
324 324 320 316 319 319 323 324 322 311 300 299 300 300 302 307 295 294 293 293 293 298 321 320 320 318 317 317 318 317 317 320 323 321 320 318 316 314 309 311 311 308 305
325 307 320 319 319 319 320 321 322 323 323 323 302 306 297 298 295 292 292 297 307 306 320 321 320 321 321 320 319 318 318 318 319 320 319 317 316 313 311 310 308 306 301
323 319 321 320 319 316 320 320 320 321 323 324 324 303 301 294 292 291 292 318 316 315 316 318 319 320 320 320 321 321 319 318 317 318 317 316 315 313 311 310 306 295 297
322 309 313 320 319 318 319 320 320 320 320 321 322 322 316 308 316 315 310 316 320 319 318 317 316 317 318 319 318 318 318 316 315 316 316 315 315 313 311 306 302 297 297
321 318 310 319 319 319 319 319 320 321 321 320 321 319 302 319 323 323 319 318 320 321 321 320 319 318 316 316 316 315 315 316 317 316 315 314 313 311 309 302 299 300 297
322 321 317 319 320 319 322 321 321 320 321 320 321 318 292 317 323 322 321 320 320 322 323 322 321 321 320 318 316 314 314 314 315 314 313 311 310 307 303 302 301 298 297
322 321 318 320 321 314 319 321 321 321 321 321 322 320 311 317 321 321 321 321 321 322 322 322 322 321 322 321 321 319 315 314 315 315 311 307 307 306 303 302 300 296 294
322 322 320 320 320 320 321 322 323 312 321 321 322 322 321 318 319 321 322 322 321 321 321 321 320 320 321 321 321 321 319 318 315 311 309 307 306 302 304 301 298 296 292
322 322 321 321 320 320 321 321 322 324 322 323 323 323 323 322 321 321 322 322 322 321 322 321 322 321 320 320 320 320 310 294 311 304 311 309 302 304 304 302 296 293 289
322 323 323 321 320 320 321 321 322 323 322 322 322 323 324 323 324 323 322 322 321 321 321 321 320 320 319 318 318 305 291 292 298 296 309 306 302 300 302 297 293 291 290

GFSGL_sfc_thetae_006.txt.gz
Theta_e
333 335 335 335 334 334 333 331 331 332 331 329 329 331 332 332 334 335 333 331 331 332 334 332 334 336 338 335 338 337 334 330 322 323 325 327 326 326 327 327 330 327 326
332 333 334 334 335 334 333 332 331 330 331 329 329 329 330 332 334 333 330 328 329 330 329 333 333 333 337 338 335 333 330 328 324 321 323 324 324 326 328 327 328 329 329
331 332 333 333 333 333 333 334 332 330 330 329 330 329 330 331 333 333 332 328 328 331 333 334 334 336 335 335 335 331 327 327 325 322 321 325 325 327 325 329 328 329 326
329 331 332 333 334 334 333 332 332 331 330 332 332 331 331 330 332 332 330 328 330 332 332 334 334 333 335 334 334 333 331 327 326 323 321 321 323 326 326 324 321 323 321
328 329 331 333 334 333 332 332 332 332 332 332 332 331 332 331 329 330 329 333 332 330 331 331 331 327 321 328 336 331 332 328 325 322 319 320 320 321 321 324 320 320 323
327 328 330 330 331 332 332 332 332 332 332 331 331 331 331 328 307 315 325 331 333 333 332 330 331 326 317 313 315 316 329 329 323 321 319 318 319 322 324 323 322 319 317
327 327 328 329 330 331 331 331 331 332 334 332 332 332 331 330 305 306 311 331 334 333 334 333 329 328 326 326 313 313 313 312 319 327 320 319 322 328 329 328 326 322 321
326 326 328 328 330 331 332 331 333 334 334 333 333 333 331 326 303 303 309 333 334 333 333 333 333 330 330 331 329 326 327 327 329 328 325 327 335 335 336 332 331 332 328
323 326 327 328 329 329 330 333 334 334 334 333 333 333 332 328 302 303 316 328 332 331 333 334 332 333 307 309 331 329 328 322 308 308 312 312 310 312 322 327 326 323 321
322 326 328 329 329 329 332 332 335 334 332 331 332 334 321 330 301 302 315 328 331 330 333 333 308 325 302 307 333 331 328 328 327 327 327 319 323 320 310 336 328 323 324
323 326 328 330 331 332 334 333 334 332 331 331 332 333 332 327 323 300 305 333 332 329 330 329 327 300 301 305 312 335 328 330 323 329 329 331 333 330 329 332 334 330 325
322 324 327 330 329 331 334 332 332 331 331 331 332 331 332 330 314 303 301 312 317 331 330 330 319 297 299 301 309 298 305 316 331 329 327 325 326 327 329 332 335 335 331
323 323 326 329 330 332 332 331 328 329 327 328 328 328 330 331 330 301 301 304 308 328 332 313 299 298 298 305 297 297 301 330 330 328 327 328 329 330 333 330 329 325 324
323 324 325 327 329 331 330 329 327 325 323 324 326 327 328 330 330 330 328 326 308 323 309 319 313 311 301 314 314 312 325 328 329 327 323 323 325 325 323 323 319 317 314
324 324 324 324 328 329 330 329 327 329 322 322 323 326 327 328 329 321 323 330 331 322 325 326 327 328 327 328 328 325 325 325 325 326 324 323 322 322 321 321 318 316 313
324 324 322 321 323 327 329 329 297 304 305 303 304 314 323 308 303 303 305 302 299 301 324 326 326 326 325 326 325 324 324 319 324 326 325 323 321 320 319 320 319 318 316
328 328 323 317 321 321 324 327 326 316 302 300 301 302 303 306 298 298 297 295 295 300 324 324 323 324 325 325 324 324 323 324 327 325 324 324 322 321 316 318 318 318 315
329 308 325 321 321 320 322 323 324 324 324 325 303 308 300 296 294 294 294 300 314 311 323 322 321 322 321 321 322 322 322 323 324 325 324 325 323 321 317 318 318 316 311
326 323 324 323 322 318 321 322 322 323 322 323 324 306 302 294 292 291 294 323 323 323 323 322 323 322 323 322 321 320 321 321 322 324 324 324 323 321 318 318 317 303 301
327 312 315 322 322 321 321 321 320 321 322 323 323 325 325 313 320 318 314 320 324 322 322 322 323 324 324 323 323 323 322 321 322 323 323 323 323 321 319 318 315 306 304
327 325 315 322 321 321 320 321 321 321 320 321 323 322 305 324 325 326 324 324 325 325 325 324 322 321 321 322 323 323 322 322 323 322 322 322 322 320 319 316 312 306 305
329 327 323 322 322 321 321 321 321 321 321 321 322 319 296 324 324 324 326 325 324 325 326 326 324 323 322 321 320 321 321 321 322 322 322 321 321 320 319 315 308 305 304
328 327 325 324 323 314 321 321 320 321 321 322 322 321 320 323 323 323 325 327 327 325 325 325 325 324 324 323 322 321 320 319 321 322 322 321 320 319 317 311 307 305 302
328 327 326 324 324 324 323 323 322 311 320 321 321 322 323 324 324 324 325 327 327 327 326 324 324 324 324 324 325 325 325 324 323 320 322 321 319 313 314 310 308 306 301
328 328 327 326 325 325 325 325 324 325 323 323 322 323 324 325 325 325 326 326 327 327 327 326 325 326 326 327 327 327 316 294 317 310 322 321 318 316 311 309 308 304 301
328 328 328 328 326 326 325 326 326 327 326 326 326 326 326 326 327 327 327 327 327 327 327 327 327 326 326 326 326 313 293 292 307 294 318 319 316 314 310 307 303 298 295

GFSGL_sfc_thetae_009.txt.gz
Theta_e
334 335 335 335 333 335 334 333 332 333 331 330 330 330 330 331 335 336 335 333 331 334 334 333 334 336 339 339 338 337 334 329 319 321 323 325 323 322 323 323 325 325 324
332 334 335 335 335 335 334 333 332 331 330 329 329 329 329 332 333 333 331 330 331 331 333 333 332 334 336 337 334 333 331 327 321 318 321 322 322 323 323 325 326 328 326
331 332 334 333 334 335 334 335 331 330 329 329 330 328 330 332 333 332 330 331 331 332 333 334 334 335 334 334 332 330 329 326 323 320 320 323 322 322 324 325 326 327 329
330 331 332 333 333 335 333 332 331 329 329 332 330 331 331 331 332 332 328 331 331 332 333 335 334 335 335 333 331 328 325 323 322 322 321 321 322 324 324 321 320 323 323
329 330 332 333 334 333 332 332 331 330 331 332 331 331 332 332 330 333 333 333 329 330 333 332 332 326 324 329 329 329 325 323 322 321 320 320 320 321 319 320 318 321 322
328 329 331 331 331 332 332 333 332 333 331 333 331 330 332 329 307 313 323 334 332 332 329 328 328 326 318 314 318 320 323 323 321 320 320 318 319 321 322 317 317 317 315
328 329 329 330 330 331 331 330 330 334 336 333 331 332 332 329 306 306 311 334 335 334 333 332 328 326 325 327 313 313 314 313 318 323 320 320 320 325 323 320 323 323 321
327 328 329 329 330 330 331 332 333 336 334 333 333 333 332 326 306 305 310 335 336 334 334 333 330 331 329 329 328 328 326 325 324 324 322 323 324 325 329 328 329 331 328
326 327 328 330 330 331 330 333 336 337 336 335 334 333 332 328 304 303 316 334 332 333 333 333 333 331 309 310 330 325 322 319 313 312 314 312 310 312 323 329 326 323 319
326 328 329 330 330 330 332 334 335 336 334 334 333 334 322 330 304 301 315 333 332 331 334 332 310 323 305 308 331 326 321 321 324 323 326 314 319 323 312 337 330 323 321
326 329 330 332 331 334 334 334 334 333 333 335 333 334 333 330 323 302 304 334 333 332 328 329 326 300 304 309 316 327 325 326 320 329 330 331 333 330 328 331 334 332 325
325 328 330 332 331 333 335 333 332 333 332 334 333 332 331 332 314 304 303 309 316 332 327 329 318 300 301 308 318 303 305 316 331 330 329 329 327 323 327 332 339 333 334
325 328 330 332 331 334 333 330 328 330 330 331 330 329 328 330 328 304 306 305 311 333 331 312 300 299 298 304 301 303 306 329 328 326 324 325 326 328 335 336 335 332 330
324 327 329 329 330 332 330 329 326 326 328 328 327 327 328 329 329 329 329 326 309 321 311 320 315 311 303 312 312 313 329 330 329 328 328 328 331 332 331 331 325 322 319
326 326 328 328 330 330 331 328 326 331 322 326 328 329 329 328 329 321 323 329 331 323 326 328 327 328 327 322 323 326 328 329 329 329 326 326 327 328 326 326 322 319 315
327 325 325 326 328 329 329 329 298 303 304 304 302 315 327 310 305 304 304 302 302 305 326 326 325 326 326 325 324 324 325 321 326 325 325 324 322 322 322 322 321 318 316
330 329 324 321 326 329 328 328 326 317 302 305 303 301 303 310 301 300 298 297 299 305 327 327 326 327 326 326 326 325 324 325 330 326 326 324 323 322 318 320 319 319 318
332 309 326 323 323 324 328 329 329 327 325 325 305 308 299 298 299 298 296 303 320 313 326 327 327 327 327 326 326 325 325 326 326 326 325 326 325 322 320 319 319 319 319
327 325 325 324 322 319 323 325 327 327 327 325 324 307 300 293 293 294 296 324 322 321 321 323 325 325 324 324 326 325 326 326 325 327 327 326 326 324 322 320 319 306 310
329 314 317 324 322 321 321 322 322 323 323 323 322 323 321 311 316 316 319 323 323 322 322 320 322 324 323 323 323 322 322 323 324 326 326 326 327 326 323 321 320 318 316
327 327 315 323 322 321 321 321 322 321 322 322 323 322 309 322 323 322 321 321 321 322 324 323 323 323 324 326 326 325 324 323 323 324 324 326 327 324 326 324 322 320 313
330 328 326 323 322 321 323 321 322 321 321 321 323 320 298 325 323 324 326 325 324 326 325 327 325 324 324 324 325 326 325 325 325 325 325 324 325 325 325 323 321 318 311
332 330 328 326 324 315 322 321 321 321 321 321 322 322 322 326 324 324 326 329 330 328 327 327 328 327 326 327 327 326 325 325 326 327 326 326 324 324 324 323 321 312 309
332 331 331 328 325 324 325 325 323 311 320 321 324 323 325 326 326 326 326 329 330 331 330 328 328 326 328 329 328 326 325 326 326 325 326 326 325 320 323 322 319 313 310
330 333 333 331 327 325 325 325 324 325 323 323 324 324 323 326 326 326 327 327 329 331 331 331 329 327 327 327 327 326 316 294 317 310 324 324 325 325 323 321 318 312 309
329 331 334 332 330 329 328 327 327 327 326 326 325 326 326 325 326 329 329 329 328 329 331 331 331 330 327 326 327 314 296 292 308 293 324 327 324 323 322 320 316 311 303

GFSGL_sfc_thetae_012.txt.gz
Theta_e
336 338 337 336 333 334 335 334 334 335 333 332 331 330 330 329 332 333 332 332 331 331 332 330 332 331 330 329 329 329 328 322 316 319 322 322 322 322 323 324 326 325 322
334 335 336 336 333 335 335 331 335 334 333 332 331 328 330 331 333 330 331 330 330 330 331 330 330 332 329 330 329 327 323 322 319 316 318 320 320 321 323 323 325 326 323
334 333 334 334 332 335 333 334 334 333 331 332 327 330 331 333 331 329 330 330 331 331 331 331 328 328 328 329 327 324 323 322 321 318 317 320 320 323 323 323 322 324 325
332 331 333 331 333 335 333 331 334 331 331 328 330 331 332 332 333 330 330 331 326 329 329 329 330 329 329 327 326 325 323 321 322 319 318 318 320 322 323 320 319 323 322
330 330 332 332 333 333 329 331 330 333 331 332 328 329 332 331 326 330 330 327 328 325 326 327 325 327 325 324 325 323 322 322 320 318 317 318 319 319 318 319 318 319 318
330 330 332 332 332 331 330 332 333 333 331 330 332 330 331 325 308 316 326 329 329 329 324 328 327 321 319 315 317 316 321 322 320 320 319 318 318 317 318 315 316 313 312
329 329 329 331 330 331 330 330 330 330 331 330 330 330 328 323 305 305 315 331 331 329 327 326 326 325 324 322 311 312 312 311 317 322 320 319 318 317 315 314 313 314 313
327 328 329 328 329 330 331 330 332 334 333 329 331 332 328 319 305 303 308 333 333 330 329 327 327 328 325 325 325 323 322 323 323 324 323 322 323 320 319 318 320 320 320
326 327 328 329 330 329 330 333 333 334 333 331 333 333 328 324 306 302 316 332 331 329 330 330 329 326 308 310 324 321 320 319 312 310 312 311 310 312 318 322 320 318 315
326 327 330 330 330 330 333 334 335 336 331 333 333 333 320 325 304 302 311 333 330 329 329 323 309 319 306 310 324 321 319 320 321 321 320 318 315 317 309 324 323 316 315
328 328 331 332 334 335 337 337 336 330 332 332 330 332 330 327 316 302 303 331 330 329 326 323 315 303 303 306 313 323 320 321 315 321 321 324 325 326 326 327 327 322 318
328 328 331 334 331 333 336 338 336 332 330 331 330 329 330 329 313 304 303 311 316 327 326 324 310 303 304 306 316 303 304 314 323 322 321 322 323 324 324 326 330 328 330
328 331 332 332 334 335 333 335 331 333 330 329 329 326 327 327 324 305 305 309 311 327 327 309 298 299 299 306 302 303 306 325 325 324 322 322 325 321 322 329 328 325 325
329 332 333 332 334 333 332 330 328 330 329 329 327 326 326 326 326 327 325 319 311 316 309 312 310 310 310 312 310 310 327 328 326 325 325 326 325 322 327 328 321 321 315
329 331 332 331 333 333 332 327 328 331 324 328 329 329 326 325 326 320 323 328 327 320 322 324 325 321 321 322 324 324 326 327 324 324 323 322 324 326 326 326 321 317 311
327 328 328 328 329 329 329 324 298 303 301 299 301 322 328 314 305 305 306 306 303 304 323 323 324 324 319 321 322 322 325 323 325 324 325 324 325 325 324 323 319 315 311
327 327 326 324 327 329 328 328 325 313 300 300 302 306 309 309 302 301 300 300 302 305 326 325 324 325 324 322 322 323 322 323 326 324 322 322 322 322 314 319 318 315 313
329 312 327 325 328 327 328 329 328 324 322 322 306 309 303 300 299 298 298 305 317 314 326 326 325 325 326 325 324 323 323 323 323 324 324 322 321 320 318 317 317 315 314
328 325 326 325 325 324 328 328 328 327 325 323 317 308 298 295 295 296 299 325 324 323 323 325 327 327 326 326 326 325 324 323 322 322 324 323 322 320 319 318 316 306 308
329 314 317 326 323 324 323 325 327 328 326 324 322 320 313 309 316 318 318 324 321 321 321 322 323 325 325 325 325 325 324 320 321 323 322 324 323 322 319 318 317 314 313
326 326 314 324 325 321 321 321 322 324 326 326 325 321 304 317 318 319 320 322 322 322 321 320 319 320 322 323 322 321 320 320 321 322 322 322 323 322 322 321 318 316 314
327 326 324 324 323 323 321 321 322 322 322 323 323 318 297 319 321 321 319 320 322 323 324 324 323 322 321 321 323 322 321 319 319 319 319 321 322 322 321 320 318 316 310
329 328 327 324 323 316 320 322 321 321 321 322 323 320 315 320 322 322 323 323 322 322 322 322 323 324 324 324 323 323 323 323 323 322 320 319 319 319 320 319 318 315 308
332 330 328 326 324 323 323 322 321 311 320 321 321 322 320 322 324 323 323 325 326 325 324 324 324 323 325 326 325 324 322 323 325 324 324 322 321 314 318 318 318 313 307
330 331 331 329 325 323 323 323 321 321 321 321 321 321 323 324 325 325 325 324 325 326 327 326 325 325 324 325 326 325 315 295 316 310 322 323 321 321 319 318 316 310 302
330 331 331 331 330 326 323 323 323 322 322 320 321 322 323 324 324 325 325 324 323 324 327 328 328 326 326 325 324 312 296 292 300 295 318 319 318 318 319 317 312 309 300

GFSGL_sfc_thetae_015.txt.gz
Theta_e
327 326 325 327 327 325 325 323 322 323 322 322 324 326 327 326 326 325 324 325 324 324 324 324 325 324 323 324 324 324 321 319 316 318 321 322 323 324 323 323 322 323 322
328 327 326 325 327 325 324 326 323 321 322 322 324 326 329 328 325 325 324 324 324 324 324 325 325 327 323 325 324 321 321 321 318 315 318 319 320 323 323 322 322 322 322
328 329 328 326 327 324 324 326 323 323 321 324 326 328 329 327 326 325 325 325 325 323 324 324 324 325 324 323 322 321 321 320 319 317 316 320 321 322 322 323 321 320 321
330 328 326 327 327 325 324 326 323 323 320 325 326 329 328 328 328 326 328 326 325 325 325 326 327 326 324 322 322 321 320 319 318 317 317 318 319 321 321 319 317 319 318
328 328 326 326 329 327 327 324 324 321 324 326 326 328 324 323 325 326 327 326 324 324 325 325 326 325 322 322 322 321 321 319 318 317 317 318 318 317 317 319 316 318 319
328 326 327 326 329 327 326 326 326 324 326 325 326 324 320 321 307 311 322 326 326 325 325 324 323 320 315 313 314 315 319 320 318 317 318 317 317 318 320 318 317 316 312
327 326 327 327 325 324 327 325 324 323 325 325 325 321 317 314 303 305 310 327 325 324 322 325 324 321 320 320 312 312 312 311 316 321 318 318 317 318 318 316 315 312 311
324 324 326 326 326 326 325 322 323 323 324 324 323 320 316 312 303 302 310 327 327 326 325 325 324 322 322 323 322 321 321 322 321 322 321 320 320 318 318 315 313 311 313
322 323 325 326 325 326 326 322 323 323 323 322 323 319 316 312 304 301 319 326 326 325 326 327 325 322 307 308 322 320 320 319 310 307 307 307 305 307 313 317 314 310 310
322 323 327 326 326 325 323 323 324 323 325 325 325 320 314 315 303 301 315 326 323 321 321 321 311 317 304 307 321 320 318 319 320 321 320 312 311 308 310 318 317 313 312
323 323 327 325 324 326 325 325 324 324 324 324 322 320 319 316 311 301 307 325 323 321 320 320 316 304 303 304 311 321 318 320 315 320 320 319 318 318 318 318 317 317 313
322 325 328 327 329 328 325 325 325 323 322 320 321 320 320 318 309 303 303 315 316 321 319 316 310 301 301 302 312 300 303 312 320 316 315 315 316 317 319 323 324 317 318
321 325 325 325 326 326 324 323 323 323 323 321 321 320 318 318 313 304 305 308 311 320 318 308 300 301 300 302 298 301 306 319 317 315 313 315 317 319 318 320 319 320 318
324 323 323 326 325 325 324 324 322 322 322 324 321 320 318 318 318 317 314 313 307 309 303 304 307 310 308 309 309 312 321 320 320 318 315 317 319 315 318 318 315 313 308
325 324 322 326 326 323 319 316 320 321 325 324 322 322 320 317 319 315 316 319 318 313 312 313 313 315 314 315 316 319 321 321 321 321 319 319 320 315 320 317 315 310 307
324 325 323 324 326 324 315 311 298 300 300 309 310 319 322 313 304 304 307 304 302 303 316 316 314 313 317 318 317 318 320 317 322 322 321 320 319 317 320 318 314 310 306
321 322 321 320 323 321 319 315 310 308 301 297 303 305 308 307 301 302 300 300 301 306 317 317 317 314 315 316 318 320 320 321 321 322 320 319 321 321 314 319 315 312 307
319 309 321 319 321 321 320 320 316 312 310 309 303 305 301 301 300 299 297 302 311 310 319 318 317 318 316 316 317 317 318 317 317 319 320 320 322 322 317 318 316 312 307
320 319 319 319 319 319 321 321 321 316 315 312 307 304 296 294 296 296 299 319 318 318 317 318 320 319 319 319 318 318 316 316 315 316 316 318 318 317 316 316 315 303 304
321 311 313 318 317 318 319 321 319 319 317 314 311 313 304 304 308 308 309 319 319 320 320 319 318 319 322 320 320 320 317 314 315 315 316 319 318 317 316 314 314 312 308
322 317 313 318 317 316 318 315 321 321 320 318 315 312 301 316 316 316 316 318 320 319 319 318 318 317 316 320 322 320 320 319 318 318 317 317 319 317 315 314 314 312 311
322 321 318 319 318 316 313 316 315 318 322 321 319 313 295 318 318 319 319 319 321 319 316 317 316 315 314 314 315 318 318 317 317 318 318 318 318 317 316 314 313 311 306
323 319 320 319 319 311 312 314 315 315 315 320 322 318 307 315 315 316 317 318 319 319 319 318 315 317 318 316 315 317 318 317 316 315 316 317 318 318 317 314 314 308 304
321 324 320 319 319 318 317 313 314 307 314 315 315 316 314 313 315 316 317 317 317 318 318 319 319 318 317 318 319 318 318 319 318 317 316 315 315 310 316 315 312 310 305
315 323 324 321 319 318 317 316 315 314 315 315 315 315 315 316 317 318 319 319 319 319 318 318 318 317 317 317 318 319 311 295 314 309 319 317 315 313 314 315 311 307 299
314 315 323 325 322 320 318 317 317 316 315 315 315 314 315 317 318 319 320 320 320 321 321 321 320 320 320 319 319 310 297 295 299 296 317 318 316 315 315 313 310 306 299

GFSGL_sfc_thetae_018.txt.gz
Theta_e
323 324 324 323 323 323 322 321 320 321 321 322 322 322 323 324 324 323 322 321 323 322 322 323 323 322 320 321 320 319 318 319 315 318 321 325 325 323 323 321 321 320 321
323 323 323 323 322 322 321 320 320 319 319 320 321 323 326 326 324 322 322 323 322 322 323 322 324 324 320 320 320 321 320 319 317 315 318 319 319 321 320 318 318 319 321
325 325 324 323 325 321 321 322 319 320 320 320 322 325 325 325 323 323 325 323 321 322 323 323 324 323 322 321 322 320 319 320 319 317 317 320 318 318 318 319 319 320 320
327 326 325 324 325 322 321 322 320 321 318 320 325 326 326 326 326 327 326 325 322 323 324 324 325 324 322 322 321 320 319 318 318 318 318 318 317 318 318 316 315 317 315
326 326 325 324 326 322 321 321 321 320 322 326 326 322 321 322 321 325 325 324 323 322 322 325 325 323 321 320 320 319 319 318 318 317 317 317 316 315 314 316 314 314 315
326 326 325 325 326 326 324 321 324 320 323 325 324 320 318 318 304 309 320 324 324 324 322 322 321 318 315 313 314 313 318 318 317 317 317 316 316 317 316 315 314 312 310
326 326 325 325 324 325 325 324 322 323 324 324 319 318 315 313 302 304 311 325 323 323 324 323 321 319 318 317 311 311 311 310 315 320 317 317 317 317 317 315 315 313 313
325 324 325 324 322 322 324 323 323 323 321 320 317 315 314 313 301 303 310 326 321 323 324 322 321 321 320 321 321 320 320 320 320 321 321 320 320 320 320 318 312 311 312
322 323 325 323 323 324 322 319 320 320 318 319 317 315 314 315 300 303 318 325 324 325 324 323 323 321 305 306 320 319 318 315 308 307 305 304 303 305 312 315 312 311 309
322 323 324 323 322 322 320 319 320 320 321 321 319 316 312 316 300 301 316 323 323 323 323 318 309 314 302 306 321 320 317 317 317 313 312 307 308 307 308 313 314 310 307
323 324 325 322 322 322 320 321 321 322 321 320 318 315 315 315 311 301 307 321 322 321 321 319 315 300 300 302 309 321 317 319 313 315 313 312 312 313 314 313 312 313 307
320 323 325 322 325 324 322 321 322 319 318 317 316 315 316 315 305 301 303 309 311 320 321 320 311 299 300 301 310 299 301 311 320 318 314 312 313 314 315 316 314 314 314
322 322 322 323 325 323 321 320 319 318 318 318 318 316 315 315 314 301 300 302 306 316 320 312 299 298 298 299 299 301 305 318 316 317 314 313 314 315 317 318 318 315 312
322 322 322 322 321 321 322 321 320 319 318 319 318 316 314 314 315 314 312 311 304 308 305 307 306 307 305 305 306 309 319 317 316 314 312 313 316 314 315 315 315 312 309
322 322 322 322 321 320 316 317 321 321 321 321 319 318 316 315 317 311 313 316 313 309 309 312 317 317 315 315 316 316 316 317 315 314 313 313 315 314 315 314 312 308 308
320 322 323 323 320 319 312 307 298 301 301 304 309 316 319 309 301 301 303 301 299 300 312 313 311 313 316 316 316 315 315 315 317 316 315 314 316 315 315 314 312 309 307
321 321 322 322 322 318 313 310 309 305 298 299 300 303 307 306 300 300 299 297 298 304 314 312 313 315 315 315 316 316 317 318 318 319 318 316 316 315 311 317 313 310 307
322 310 322 323 323 321 316 312 309 309 311 314 301 301 299 299 298 297 297 300 309 309 315 315 314 314 316 317 317 317 317 317 317 320 319 318 318 318 316 317 318 314 308
321 320 322 321 322 319 319 316 311 309 309 310 307 302 295 293 295 294 297 318 316 316 315 316 317 316 315 317 318 318 318 317 316 318 319 319 319 319 318 319 318 305 303
321 312 313 319 318 319 319 319 316 312 310 310 311 315 302 304 307 307 306 316 318 318 318 318 318 318 318 317 316 317 317 314 315 315 317 319 319 320 319 318 317 314 309
318 316 312 319 318 319 319 319 320 317 314 312 312 312 299 317 316 316 314 314 319 319 320 319 319 318 318 319 319 318 317 316 316 314 315 317 317 316 318 317 317 316 314
316 316 317 319 318 317 318 318 319 320 318 316 314 310 293 317 318 318 318 318 319 320 321 320 320 320 319 318 319 320 319 319 318 317 316 315 317 317 317 316 314 313 312
316 318 315 317 317 310 310 316 316 318 320 319 318 314 306 313 318 318 318 319 319 320 320 319 320 319 319 318 317 317 318 319 320 320 318 317 316 316 316 315 314 312 309
313 315 320 315 314 313 314 312 313 307 316 320 320 318 311 313 317 318 319 320 320 320 321 320 319 318 318 316 316 315 317 317 318 318 319 318 318 313 316 315 315 314 310
314 313 313 317 319 313 313 313 313 313 313 315 319 320 317 314 315 317 317 317 318 318 319 319 319 319 317 317 317 317 310 296 311 307 314 316 316 316 315 315 314 311 301
312 314 314 314 316 320 316 315 314 313 314 314 314 315 317 317 315 316 316 315 315 315 316 317 317 317 316 316 317 309 298 295 298 295 314 315 314 312 313 313 313 312 304

GFSGL_sfc_thetae_021.txt.gz
Theta_e
323 322 322 321 321 321 320 319 318 318 319 320 321 320 321 321 323 320 321 320 321 319 320 321 320 320 318 318 318 316 315 314 314 318 321 326 324 322 321 323 325 323 322
322 321 320 320 320 319 319 318 319 319 319 320 320 320 323 323 322 321 322 323 321 321 320 321 321 322 317 317 316 317 316 316 316 316 319 320 318 318 319 319 321 321 321
322 321 320 320 319 318 318 318 319 317 317 318 319 323 324 323 322 324 324 322 320 320 320 321 322 320 319 321 321 319 318 319 320 318 316 318 317 317 317 318 317 317 319
323 321 321 320 321 319 319 318 317 319 318 318 325 325 324 324 325 327 326 324 320 321 322 323 323 323 321 321 320 319 319 319 319 316 315 315 316 316 315 313 312 316 316
323 322 322 322 323 320 319 319 318 319 318 325 324 321 320 321 319 323 323 321 320 320 323 323 322 323 321 319 319 319 319 318 318 314 314 314 314 314 313 314 313 314 315
324 322 323 323 322 321 319 318 318 318 322 325 322 319 317 318 304 306 319 323 324 323 321 322 321 318 315 313 314 314 318 318 317 316 314 313 314 315 315 314 313 312 309
325 324 326 323 322 323 321 319 318 320 323 323 317 316 314 314 301 306 310 323 322 323 323 321 321 319 317 316 310 310 310 310 315 318 315 315 314 315 315 314 313 312 311
324 323 324 323 321 323 323 317 317 323 323 319 315 314 314 313 300 306 311 321 323 323 322 321 320 319 318 319 319 319 319 319 320 321 320 318 317 318 317 316 313 311 311
322 322 323 322 319 320 318 317 317 317 317 315 314 313 315 316 299 306 317 323 323 322 322 323 322 320 304 306 319 317 317 315 309 306 306 305 303 305 312 315 311 310 307
322 323 323 321 320 319 318 317 317 317 317 318 315 315 311 316 300 303 315 324 322 321 320 318 308 314 301 304 319 318 315 315 316 316 313 308 309 306 307 314 313 308 306
323 323 322 320 319 319 318 318 318 318 319 317 315 314 316 314 311 302 306 322 323 320 319 317 313 299 301 302 309 319 315 315 311 316 313 312 312 312 311 312 312 311 304
320 321 320 319 323 321 319 318 319 318 317 315 313 313 316 314 303 301 301 307 312 321 319 318 309 298 299 300 309 299 301 308 314 313 313 311 311 310 310 310 310 310 309
319 319 319 321 321 320 318 318 317 316 316 314 314 316 315 314 314 300 298 299 304 318 319 310 297 295 296 299 298 299 306 316 314 311 310 308 310 312 313 312 311 311 309
319 318 319 320 319 319 320 319 318 316 315 316 315 313 313 313 314 314 312 309 304 309 305 306 305 305 303 303 306 310 318 315 315 313 310 310 311 312 313 313 312 310 309
319 319 319 319 319 318 317 316 319 318 317 318 316 316 314 313 315 309 311 314 314 310 312 314 317 316 314 314 314 314 315 314 314 312 310 311 312 312 312 312 310 307 308
318 319 319 319 318 317 313 309 298 300 303 305 305 312 316 308 299 298 299 298 297 300 315 317 317 317 316 316 316 312 313 312 313 313 311 312 313 313 312 312 310 309 307
319 319 319 317 318 315 312 312 312 305 298 298 299 303 306 304 295 296 297 295 297 303 312 315 316 316 317 317 318 317 315 316 315 316 314 312 313 313 309 313 311 309 307
319 308 321 320 320 315 312 311 311 309 310 312 298 302 298 296 295 295 294 298 307 307 312 313 313 314 317 317 316 316 315 313 315 315 314 313 313 313 311 312 313 312 308
318 319 322 321 321 317 314 311 309 309 310 313 307 301 295 293 292 292 294 313 312 312 312 313 314 315 316 316 316 316 316 315 316 315 316 316 316 315 315 315 315 304 306
319 310 314 321 319 317 316 313 310 308 308 311 312 313 303 304 307 307 307 312 313 313 313 314 315 314 315 316 316 317 316 312 314 316 317 318 318 317 317 316 316 315 311
316 315 310 320 319 319 318 317 315 311 309 308 311 310 297 315 315 315 313 314 316 317 316 316 315 316 316 316 316 316 316 316 316 316 316 317 317 316 318 318 318 317 317
314 314 314 318 319 318 318 318 317 315 313 311 310 308 292 309 318 317 317 317 318 320 320 320 319 318 318 318 317 316 315 315 315 314 315 315 315 316 316 316 316 315 314
312 315 313 314 315 309 312 315 318 318 317 315 314 310 302 310 316 318 318 318 319 319 320 320 320 320 320 320 320 320 319 318 318 317 316 315 314 315 315 315 314 313 311
312 312 312 315 312 312 312 311 313 308 317 318 317 315 309 311 314 318 318 319 319 319 320 319 320 320 320 319 320 320 320 322 321 321 319 318 316 312 314 314 314 313 313
311 313 313 312 314 316 313 310 311 311 313 317 318 318 316 312 313 316 318 319 319 319 319 320 320 319 319 319 319 318 311 297 312 308 318 318 317 316 316 315 314 313 311
307 311 312 313 312 314 316 316 314 311 311 312 313 317 319 317 314 315 317 318 318 318 319 319 320 320 319 319 319 311 298 296 299 295 313 315 314 315 315 315 313 313 310

GFSGL_sfc_thetae_024.txt.gz
Theta_e
322 322 322 322 323 323 322 322 322 321 321 322 323 323 324 325 325 324 324 324 323 323 323 324 323 323 322 322 322 321 321 321 317 321 325 326 323 323 326 327 328 325 323
322 322 321 321 321 321 320 320 320 320 321 323 323 323 324 324 325 324 324 325 323 323 324 324 324 324 323 323 322 321 321 322 320 319 320 318 319 321 321 321 322 324 322
322 321 320 320 320 320 319 320 321 321 321 322 322 323 326 325 325 325 324 325 323 324 324 324 324 323 322 322 322 321 322 323 324 319 315 317 318 319 318 319 318 318 320
322 320 319 320 320 320 320 320 320 321 320 322 326 326 326 326 326 327 327 325 323 324 325 325 325 323 322 322 322 321 322 321 319 316 314 314 315 317 317 315 315 317 316
322 321 320 322 322 320 320 319 320 321 321 326 325 323 323 323 319 322 325 324 323 323 325 325 325 323 321 321 322 321 322 319 317 315 313 312 312 312 312 314 313 315 315
322 322 323 323 322 321 321 319 320 320 324 326 324 321 320 319 303 308 319 325 324 323 322 322 322 318 316 312 314 315 319 319 316 314 313 312 312 313 314 313 312 311 309
323 324 326 323 322 322 320 320 320 320 325 323 320 320 318 318 300 306 311 324 324 323 322 321 319 318 318 317 310 311 310 311 314 317 314 314 314 315 314 313 313 313 310
323 324 325 323 322 324 321 319 320 324 324 322 318 317 318 314 301 307 309 325 323 322 322 320 319 318 318 320 320 319 320 319 319 320 318 318 318 318 317 316 314 313 310
322 324 324 323 321 322 319 320 320 322 322 319 317 317 319 318 302 305 317 323 323 322 322 321 321 319 303 306 319 317 316 314 308 305 305 303 302 304 311 315 313 311 309
322 323 324 323 321 320 320 319 320 320 320 319 317 319 312 318 301 303 317 324 320 320 320 318 308 313 300 305 319 317 315 315 316 316 313 309 310 308 308 317 317 312 310
324 323 323 322 321 321 320 321 320 320 320 319 318 318 319 315 311 301 308 323 320 319 318 316 313 299 299 301 309 320 315 317 312 316 315 315 315 318 318 318 320 315 312
324 323 322 321 322 321 320 321 321 320 320 317 316 317 318 318 304 301 301 308 312 320 318 317 306 297 297 299 309 299 302 311 317 315 315 314 315 316 317 317 318 318 317
321 321 321 323 321 321 320 320 319 319 319 316 316 317 317 318 314 299 297 300 306 319 320 306 296 295 296 299 297 299 305 317 318 316 316 315 317 317 317 317 317 317 316
320 320 321 322 320 321 321 321 320 319 318 318 317 316 317 318 318 315 313 312 305 309 305 307 303 303 302 304 309 315 319 318 318 317 315 315 317 317 317 318 316 316 315
320 320 321 321 321 320 319 319 321 321 318 320 319 318 317 317 318 310 312 318 318 311 311 316 318 316 315 316 318 319 318 318 316 315 315 316 317 317 318 320 319 316 315
319 320 320 320 320 320 317 313 297 301 302 303 304 313 318 305 297 297 296 296 298 301 317 317 317 317 316 316 317 317 318 315 317 317 317 317 316 316 318 319 319 319 318
320 320 320 318 321 319 317 317 316 308 298 298 297 300 305 302 295 295 295 296 295 305 319 318 317 318 317 317 318 318 318 319 319 318 317 316 317 318 314 319 319 318 317
320 307 321 321 321 319 318 317 318 316 315 316 299 301 296 293 293 293 294 300 313 312 320 318 318 319 319 320 320 319 319 319 320 319 318 318 318 318 317 318 319 319 319
320 320 322 322 321 318 318 316 315 314 315 316 311 303 294 291 292 292 295 318 318 318 318 318 320 319 320 321 320 319 320 320 320 320 320 320 319 319 319 319 319 304 309
320 309 313 322 320 319 318 316 314 313 313 316 317 317 306 307 312 309 309 316 318 319 318 319 319 320 320 320 319 318 318 317 319 320 321 321 321 321 320 319 319 318 316
317 317 309 322 321 321 320 318 317 314 313 313 317 313 296 319 318 317 314 316 318 318 318 319 320 319 320 321 321 320 320 320 321 321 321 321 322 320 322 322 321 321 321
314 316 316 319 321 321 321 322 319 317 316 314 314 311 291 315 320 319 319 319 320 322 322 321 321 321 321 320 321 321 321 321 321 321 321 321 322 322 322 322 322 322 322
314 314 315 317 319 312 318 320 320 320 318 317 316 312 306 313 319 321 321 322 322 322 324 323 323 322 323 323 324 323 322 322 323 323 322 321 321 321 321 321 321 320 320
314 314 314 315 315 315 316 317 318 310 320 320 319 317 313 313 315 319 322 323 323 323 324 324 324 324 324 324 324 325 325 324 324 323 323 322 321 316 320 319 319 319 319
310 312 313 314 314 314 317 315 314 315 317 319 320 320 319 316 316 317 320 322 323 323 323 323 324 325 325 325 325 325 316 299 318 313 324 323 322 322 321 320 319 319 318
302 303 306 309 310 313 315 317 320 319 318 317 316 317 321 321 318 318 319 320 321 322 322 323 323 324 324 324 324 314 300 297 304 297 322 325 323 323 323 322 321 318 317

GFSGL_sfc_thetae_027.txt.gz
Theta_e
335 335 336 335 335 337 336 336 335 335 334 333 332 332 332 333 335 336 336 334 330 333 333 332 331 332 329 329 330 329 327 331 323 325 330 330 330 333 332 333 330 329 325
335 335 334 335 335 334 334 334 333 332 332 332 331 331 331 331 333 333 331 331 328 331 331 331 330 331 332 332 330 331 329 330 326 321 322 320 323 326 325 325 324 326 325
332 332 333 333 333 334 333 332 331 331 331 332 331 330 331 332 332 333 326 327 329 332 332 331 331 333 331 330 329 328 329 329 330 322 317 320 321 321 320 321 321 321 322
331 331 331 332 332 331 331 331 331 331 331 330 331 332 333 333 333 331 330 329 327 332 333 333 332 333 331 327 327 327 329 328 325 320 317 316 317 319 318 316 316 319 318
329 330 330 331 331 330 330 331 331 330 330 333 333 332 332 332 325 328 331 329 326 330 331 333 334 330 323 325 327 327 327 323 321 317 315 315 314 314 314 316 315 316 318
329 329 330 330 330 330 330 330 330 329 332 332 331 330 330 327 303 307 320 329 328 327 326 328 328 322 318 313 315 316 323 323 319 316 314 313 313 314 316 315 313 312 309
329 330 330 330 329 328 329 328 329 331 331 328 331 328 328 329 301 304 310 328 326 326 325 325 324 324 322 323 310 310 311 311 316 320 315 316 313 315 316 314 316 317 313
329 329 330 329 328 328 328 329 330 332 328 328 329 327 329 322 303 304 310 328 326 324 324 325 324 323 325 325 323 322 322 321 322 323 323 320 319 318 317 318 319 313 314
329 329 329 328 327 327 327 330 332 329 327 328 329 327 329 324 303 303 316 325 324 322 322 321 321 320 304 306 322 318 317 315 307 305 305 304 302 304 312 315 313 314 311
330 330 329 328 328 328 329 330 332 333 328 328 327 328 316 325 301 303 318 325 323 322 322 320 307 313 300 304 322 319 313 313 314 314 314 309 311 309 309 321 319 316 313
332 331 330 330 329 330 331 331 331 332 329 329 327 328 327 322 318 301 308 326 324 320 318 317 312 299 300 302 309 319 314 316 312 316 317 317 318 320 319 324 326 323 318
331 330 330 330 328 329 330 331 331 331 329 328 327 327 325 322 305 301 303 310 313 321 319 317 308 298 299 300 311 300 302 312 320 318 317 317 317 317 323 324 326 325 325
330 329 330 330 329 330 330 330 328 330 329 326 326 325 323 322 315 298 299 302 307 321 321 306 296 296 297 300 298 300 305 321 322 318 319 320 322 324 326 325 326 325 325
330 329 327 329 329 330 330 330 329 328 327 326 325 325 324 322 318 321 317 315 305 309 305 311 305 305 306 311 312 317 326 325 324 323 322 323 324 323 322 324 322 322 318
330 330 330 330 329 330 330 328 331 332 325 327 327 327 325 322 321 314 318 322 321 314 315 320 322 319 317 320 322 324 326 326 325 325 323 323 323 323 323 324 323 321 318
329 329 328 329 329 329 328 325 296 301 300 301 305 316 324 306 299 298 297 298 299 301 319 319 319 321 321 323 324 324 325 320 325 325 325 324 323 322 321 323 323 320 318
330 330 329 326 329 329 328 327 325 312 295 295 297 299 303 303 295 295 295 296 297 305 320 320 319 319 320 322 325 324 323 325 326 325 324 323 322 321 319 323 324 324 324
331 309 330 329 330 330 328 327 328 326 326 326 300 301 294 294 294 293 295 302 317 316 323 322 323 325 325 324 324 325 326 326 326 325 324 322 322 322 322 323 323 324 324
328 328 329 330 330 326 329 326 327 326 325 327 322 305 296 291 291 293 298 325 322 321 323 323 324 325 325 326 326 326 327 327 326 326 325 323 322 321 320 321 322 307 311
328 310 316 330 329 329 328 327 324 325 324 325 327 327 311 308 316 314 322 328 327 326 327 327 327 327 326 325 325 324 324 325 326 327 326 326 325 325 323 323 324 324 324
327 327 312 329 329 329 329 328 327 324 323 324 326 324 301 327 326 324 324 327 328 328 328 328 328 328 328 328 328 326 322 325 327 327 327 327 327 326 327 326 326 325 325
325 327 326 327 329 329 329 329 329 328 326 325 325 320 291 324 329 329 328 328 329 330 330 329 329 329 329 329 329 328 327 327 328 328 328 328 328 327 327 326 326 325 325
323 323 324 326 327 317 327 329 329 329 329 328 327 323 317 325 328 329 330 331 331 330 331 331 330 329 330 330 330 329 328 327 329 330 329 328 328 327 327 326 325 325 325
321 321 321 322 322 324 326 327 328 313 325 329 329 327 325 323 325 327 329 331 331 332 332 332 331 330 331 331 330 330 330 330 330 329 329 328 327 323 327 326 325 325 326
314 316 315 316 319 322 325 325 324 322 323 323 325 326 327 328 326 326 327 328 329 330 330 331 332 332 332 332 332 331 320 299 321 315 330 329 328 327 326 325 325 326 326
306 307 307 307 307 308 309 310 309 312 314 314 316 320 322 322 324 326 326 326 326 326 328 329 330 330 331 331 331 317 299 295 307 296 326 330 328 328 327 327 326 325 325

GFSGL_sfc_thetae_033.txt.gz
Theta_e
347 347 347 345 346 347 346 346 346 348 344 342 341 340 338 337 337 338 338 336 335 337 337 335 334 336 332 331 331 334 329 330 327 325 334 340 338 340 339 339 335 336 328
344 344 344 345 346 346 344 343 343 342 341 339 337 335 334 333 336 336 335 334 334 333 334 335 332 333 335 338 336 335 332 337 328 326 330 330 336 338 335 334 332 332 330
344 343 343 342 344 345 341 342 340 338 336 335 333 332 332 333 335 337 335 335 335 333 333 334 332 334 335 337 334 337 337 337 335 329 323 325 329 330 327 328 328 325 324
340 340 340 341 341 340 339 339 337 335 333 333 333 332 332 332 334 335 335 334 335 332 337 336 333 334 335 336 336 336 337 335 332 325 322 321 322 324 324 320 318 321 320
336 336 338 339 338 337 336 335 334 334 333 332 332 333 333 336 332 336 335 334 334 334 335 334 336 333 326 330 337 338 337 333 326 321 319 319 318 319 318 320 317 317 317
332 332 333 333 332 334 334 335 334 332 335 334 333 333 335 330 306 309 324 334 332 331 333 334 335 328 323 314 315 319 331 331 325 321 320 317 318 318 319 318 316 315 312
331 331 331 332 331 332 332 332 331 335 336 336 334 333 335 331 306 308 314 333 334 333 333 334 333 331 328 330 313 313 314 315 322 329 320 319 318 320 319 317 317 317 314
330 329 330 328 329 330 331 330 336 336 336 335 334 335 336 325 306 306 311 332 331 331 331 333 333 331 329 329 330 330 329 330 330 328 326 324 323 322 322 321 319 317 318
329 328 328 328 328 327 328 331 335 334 335 335 335 335 334 329 305 308 321 327 324 325 329 330 330 328 309 308 328 326 324 321 309 307 306 305 303 307 315 320 315 314 311
328 329 329 329 328 329 331 332 335 334 333 332 334 335 320 329 304 306 318 325 322 321 324 325 305 321 303 306 325 323 319 318 318 318 317 314 314 310 309 322 318 314 312
329 330 328 329 329 333 335 335 334 332 333 334 333 334 332 328 321 305 308 325 324 323 319 322 324 300 301 304 312 325 318 320 313 318 317 317 318 319 320 322 320 317 316
330 328 329 331 327 330 334 333 332 334 333 333 333 330 330 329 307 304 306 311 314 323 321 320 309 298 299 302 312 299 302 311 318 316 315 314 316 317 318 319 320 327 328
330 330 331 330 331 332 334 334 333 333 330 331 331 328 326 326 316 300 301 304 307 323 323 307 297 296 297 302 299 300 307 318 316 315 314 315 317 319 322 326 327 329 332
328 329 331 330 331 334 333 335 336 336 334 333 330 329 327 323 321 323 320 318 308 315 306 311 309 308 306 308 309 314 320 320 319 317 316 318 320 322 325 328 327 326 323
330 329 331 328 332 334 332 329 336 329 325 334 332 331 327 324 322 316 318 324 324 315 317 321 320 318 317 316 317 320 322 321 321 321 321 322 324 324 324 326 325 322 320
327 329 327 328 329 330 330 328 297 299 296 296 298 317 327 310 302 302 299 299 302 302 321 323 321 321 320 322 324 324 325 321 325 325 325 324 324 324 325 326 325 322 319
332 331 328 325 329 327 329 328 326 315 297 295 296 298 307 302 298 297 296 298 298 303 323 323 322 322 323 323 324 325 324 327 328 326 325 326 326 325 321 322 321 320 318
333 312 328 327 326 330 330 328 328 326 326 325 301 303 296 295 295 295 296 303 319 317 324 323 324 325 326 327 326 326 327 326 327 326 325 326 327 323 322 321 321 320 320
328 327 328 329 328 325 328 328 329 329 326 325 321 308 298 293 293 295 298 324 323 324 324 325 326 326 326 327 328 326 326 326 326 326 327 327 327 326 324 323 321 308 312
328 312 316 329 328 327 328 325 327 328 328 327 327 325 317 316 318 318 322 325 326 327 327 327 328 327 329 329 329 328 328 327 327 327 327 326 326 325 322 321 320 320 321
328 328 312 328 326 327 325 325 327 327 327 326 327 325 307 328 325 324 325 326 327 328 329 330 329 330 330 330 329 328 328 327 328 328 328 327 327 325 326 325 324 323 323
328 326 326 327 327 327 327 327 325 324 325 328 328 322 297 324 329 329 329 328 328 330 331 332 329 329 329 329 330 330 330 329 330 330 329 329 329 328 328 327 326 327 326
328 326 325 326 328 320 329 328 327 326 325 325 329 327 327 329 328 329 329 330 332 332 331 332 332 331 331 331 332 332 331 331 332 332 331 330 330 329 329 329 328 328 328
326 328 328 328 327 327 327 328 328 318 324 324 329 328 328 328 329 332 332 332 335 333 333 333 332 331 332 332 329 327 324 322 332 332 333 331 330 326 329 328 328 329 329
311 312 315 319 321 320 322 320 319 320 320 319 318 322 322 322 320 322 323 326 325 320 317 313 310 311 311 306 305 301 291 288 303 295 330 332 331 332 328 328 328 329 329
303 304 304 303 304 305 306 306 306 306 306 307 308 308 309 309 309 311 312 314 316 318 318 316 314 308 308 304 297 289 287 287 293 288 308 329 330 329 328 328 328 327 327

GFSGL_sfc_thetae_036.txt.gz
Theta_e
346 347 350 350 349 350 348 346 347 347 345 344 343 341 340 340 340 338 338 335 334 334 334 331 333 333 331 331 328 328 325 324 320 323 327 328 329 330 331 329 332 327 325
344 343 343 343 343 343 343 342 344 344 343 341 341 338 337 337 338 337 335 334 332 333 332 331 332 334 331 330 330 326 326 326 323 321 325 327 327 330 332 331 329 329 325
342 343 342 341 339 338 338 342 343 342 342 338 337 335 333 334 334 337 335 334 333 332 332 330 331 331 329 329 330 327 327 329 326 324 322 325 327 328 326 326 324 323 323
340 339 338 338 339 339 341 341 339 338 337 335 336 333 334 333 335 335 334 333 333 331 333 331 331 331 330 330 329 329 329 327 326 322 322 321 322 323 323 320 318 321 319
338 336 337 338 338 339 338 338 337 336 335 334 335 332 335 329 330 334 336 334 332 329 331 332 331 330 326 329 333 331 329 327 323 320 319 318 319 319 318 319 316 317 318
337 337 337 337 336 336 336 333 336 336 335 331 332 332 333 327 306 309 324 333 332 331 328 330 327 320 317 316 318 322 327 325 321 319 318 316 318 319 319 317 316 315 312
332 332 332 333 331 331 332 332 335 335 334 332 331 332 331 324 305 307 314 333 333 331 331 330 331 329 327 326 312 314 315 314 319 323 318 318 317 319 319 317 317 316 314
329 328 330 330 330 331 331 332 335 334 335 334 333 333 329 319 305 308 315 331 332 332 332 331 331 330 328 328 329 328 327 325 325 326 323 321 321 321 321 320 318 316 317
328 328 330 330 329 329 330 332 334 333 333 334 334 334 328 323 305 309 320 327 328 328 325 324 329 327 308 308 326 322 319 316 308 307 308 306 304 306 315 319 315 314 312
328 328 330 329 329 330 330 333 334 334 334 334 332 333 318 324 304 307 317 322 320 320 325 322 306 315 305 309 325 321 317 317 318 317 314 309 311 310 309 320 318 314 312
328 329 328 329 329 330 332 333 333 334 333 332 331 331 329 325 317 306 309 325 323 322 321 321 315 300 302 304 311 321 316 318 313 319 317 318 318 319 319 320 319 317 314
328 327 330 332 329 331 332 334 333 334 331 330 328 328 327 325 308 306 307 310 314 322 321 317 310 297 299 301 310 300 302 311 317 316 315 316 316 317 318 318 319 319 320
328 329 329 328 329 332 333 333 329 333 331 330 327 326 323 321 316 300 301 304 304 321 320 303 296 296 297 300 298 300 306 317 316 314 314 315 317 318 318 317 319 321 323
330 329 329 330 330 332 333 334 334 334 333 331 328 327 322 320 322 320 317 315 308 310 306 312 306 304 307 307 310 313 318 318 316 315 315 317 318 318 319 319 318 322 321
329 329 328 330 329 325 317 315 328 315 323 330 330 328 323 320 321 315 317 322 320 313 315 317 316 314 313 315 318 319 318 318 317 317 317 317 318 319 321 323 323 322 318
327 329 328 328 332 329 326 320 297 296 296 296 302 321 326 309 300 299 300 301 302 300 319 317 316 315 315 316 317 319 319 317 319 319 318 319 319 320 321 323 323 319 317
328 331 324 326 327 327 327 325 319 309 297 295 296 303 305 302 297 297 299 298 296 301 322 319 318 319 320 322 320 321 320 322 324 322 321 322 322 322 316 321 322 321 317
327 311 325 329 329 327 327 326 326 325 323 320 299 299 295 295 295 295 295 303 315 313 323 320 321 322 322 324 323 324 323 324 324 323 323 323 323 323 322 322 319 317 316
327 326 326 330 329 325 329 328 328 327 323 319 314 306 298 293 293 295 296 324 323 323 323 323 324 324 325 325 325 325 325 325 324 324 323 323 324 324 321 319 319 308 310
325 313 316 329 328 328 327 328 327 327 324 324 323 317 313 314 317 316 319 323 323 326 325 323 326 326 324 325 325 323 323 321 324 324 324 323 324 324 322 321 320 318 317
326 323 313 323 326 329 328 328 329 328 326 327 325 319 304 323 320 321 322 325 326 327 327 328 327 327 327 327 328 327 326 326 325 326 325 326 325 322 323 322 322 319 317
326 327 326 325 324 324 328 328 330 328 327 326 327 316 296 326 324 325 325 327 328 329 331 329 328 327 328 327 327 326 325 325 325 324 325 326 327 326 325 323 322 321 321
325 326 326 323 327 319 323 325 322 328 328 326 326 323 321 325 325 325 329 328 325 326 324 320 324 321 318 317 316 313 315 315 321 328 327 326 325 325 325 324 324 324 324
318 324 327 323 324 326 321 322 321 310 324 325 326 326 322 321 320 322 320 321 317 314 312 310 307 303 302 302 302 303 297 294 310 313 322 329 328 325 327 327 326 326 325
311 310 312 316 317 317 316 314 315 314 313 314 314 314 314 314 314 314 317 317 314 312 308 305 305 301 298 294 293 292 288 286 294 290 318 326 327 328 327 327 326 325 324
305 303 303 303 301 302 303 304 305 306 305 304 305 305 305 305 305 306 307 308 308 307 305 302 298 297 295 293 290 286 286 287 291 290 313 319 319 317 313 318 321 323 323

GFSGL_sfc_thetae_039.txt.gz
Theta_e
339 339 341 341 343 340 337 337 337 337 337 338 338 337 337 335 333 329 328 327 327 326 326 327 326 328 324 323 321 320 318 318 313 317 321 325 326 324 326 327 325 325 324
340 341 340 342 342 341 339 340 340 338 339 339 338 337 335 334 332 327 326 328 327 325 327 327 326 331 324 323 320 319 317 319 318 317 321 323 325 326 326 326 325 326 324
341 340 338 340 339 338 339 340 340 337 337 337 334 332 331 330 328 328 328 327 326 327 327 328 326 325 322 321 320 319 320 323 322 323 321 325 325 326 322 322 322 321 323
339 337 335 335 336 336 336 336 334 332 331 328 328 328 328 330 332 332 329 327 326 327 328 328 328 326 324 322 323 322 324 321 321 320 321 321 321 322 321 319 318 320 320
337 335 334 335 335 334 332 329 328 326 325 326 329 329 328 327 327 329 328 327 325 325 325 329 327 327 324 324 325 323 323 323 321 318 318 319 318 318 318 318 316 317 319
334 333 334 334 333 330 328 327 325 325 326 327 329 327 324 321 305 310 322 326 326 324 323 325 323 321 317 317 320 321 323 321 318 319 317 317 318 318 318 317 316 316 312
332 332 333 331 330 327 325 325 327 324 328 329 329 325 319 315 304 307 316 326 323 323 325 325 326 325 321 320 312 314 314 313 318 319 318 317 318 319 318 317 318 316 314
330 328 329 327 326 325 326 328 328 328 328 328 325 322 317 314 305 307 318 326 324 323 325 327 325 322 321 324 323 321 319 319 319 321 319 320 321 321 321 320 317 316 317
325 326 327 327 326 324 327 327 327 324 323 324 324 321 317 316 304 310 317 323 323 322 321 323 323 319 306 309 320 316 317 315 309 310 310 307 306 307 315 318 315 314 312
324 326 326 326 326 327 324 325 323 324 324 326 325 321 314 316 302 306 316 321 320 321 320 316 308 314 303 307 321 319 317 317 316 315 313 307 310 310 309 320 318 314 313
325 326 326 324 325 326 327 324 323 323 324 325 323 320 319 316 311 305 309 320 320 318 319 316 312 302 301 303 310 320 316 318 313 318 317 316 317 318 319 319 319 317 314
326 325 324 325 328 327 325 327 323 323 323 323 321 320 319 317 307 305 306 310 313 319 317 314 306 298 299 301 309 299 302 311 318 317 316 316 316 317 318 319 318 318 319
325 324 324 325 326 326 323 323 323 323 323 322 321 319 318 318 312 300 301 304 307 317 317 302 297 296 297 300 298 300 306 317 316 315 315 315 317 317 317 317 318 319 319
323 321 322 325 326 323 325 324 322 321 322 323 321 318 318 318 316 313 313 311 304 307 306 309 305 305 305 306 310 313 317 317 316 315 315 316 317 316 312 314 314 316 317
322 323 325 326 320 316 311 312 320 316 317 325 324 320 318 318 317 313 315 317 317 311 313 316 314 314 314 315 316 316 316 316 315 316 316 315 315 315 315 316 316 316 315
322 322 324 324 322 319 317 312 296 295 295 304 310 317 320 306 301 302 302 300 298 300 314 314 313 313 314 315 316 316 316 314 316 315 314 316 316 317 318 317 317 315 313
321 323 324 324 323 320 318 317 315 307 297 294 295 301 303 300 298 299 299 296 295 302 315 315 314 315 315 313 315 314 313 315 316 317 317 317 318 319 314 317 318 317 314
323 313 324 325 326 322 320 318 319 318 315 311 298 298 295 295 295 295 295 301 311 309 316 315 314 315 317 316 316 316 316 317 318 319 319 318 317 317 317 316 316 315 314
324 325 323 325 324 322 323 321 322 317 314 311 311 303 296 293 293 294 296 315 315 317 318 318 320 320 320 322 321 320 319 319 319 318 320 320 319 319 318 317 316 307 307
322 311 315 322 325 323 323 322 319 317 316 317 316 313 310 312 311 310 311 315 317 318 318 319 321 321 322 322 320 322 320 318 320 321 321 322 322 322 321 319 318 315 310
322 322 314 323 321 325 324 322 321 320 320 318 316 313 299 317 315 314 314 317 320 320 320 319 319 320 321 324 324 321 322 322 323 323 324 323 322 321 321 315 315 314 313
323 322 321 323 325 323 322 325 323 322 322 319 317 307 289 317 317 317 318 320 322 320 314 322 318 314 316 315 318 320 321 320 322 322 322 320 320 320 319 319 318 318 316
323 323 323 323 322 312 316 320 322 323 322 320 318 314 318 321 318 321 316 312 312 309 304 305 304 303 302 302 302 301 300 303 308 313 320 322 322 323 322 321 321 319 318
313 318 317 315 314 316 315 317 316 310 322 321 320 318 315 317 314 312 308 305 304 304 302 298 295 296 298 296 296 296 293 292 300 307 314 325 324 321 322 321 322 323 322
305 303 305 308 308 309 307 306 306 306 306 306 306 305 304 306 307 307 306 303 300 298 296 295 294 293 291 290 291 291 288 286 295 293 314 311 308 309 312 314 314 317 316
303 302 300 300 300 300 300 300 300 299 299 300 298 298 299 298 298 299 300 299 297 295 292 292 291 290 290 290 288 286 286 288 293 290 303 302 302 301 304 304 305 306 306

GFSGL_sfc_thetae_042.txt.gz
Theta_e
329 331 333 335 335 335 336 335 335 334 334 334 334 336 336 334 331 330 331 329 326 324 323 323 323 325 322 321 319 317 316 315 312 315 318 322 323 325 324 326 326 325 323
332 335 336 339 336 334 334 336 336 333 334 336 336 336 336 334 332 330 326 326 324 323 323 323 324 327 324 321 318 316 315 317 315 314 318 323 323 324 325 324 325 326 325
338 337 338 338 337 335 337 338 336 336 335 337 336 334 334 333 331 328 326 325 325 324 324 324 323 325 323 319 317 316 316 320 320 319 320 324 323 323 321 322 321 321 323
337 337 336 337 337 337 339 339 337 337 336 334 334 333 333 330 327 327 325 324 324 325 326 326 326 326 321 321 319 317 318 318 320 322 321 321 320 321 320 319 317 320 320
335 336 334 335 336 335 334 333 333 332 331 328 327 326 327 327 327 328 327 325 323 323 325 326 327 327 323 321 321 319 319 317 321 321 319 319 318 318 316 318 316 317 318
334 334 334 333 332 329 328 326 326 323 326 324 323 323 322 320 304 313 321 323 323 322 321 322 322 322 320 315 317 317 321 320 319 317 317 317 317 317 318 317 317 316 312
332 333 332 330 329 327 326 324 322 322 323 323 323 321 318 314 303 305 312 323 321 321 321 322 325 323 318 320 311 313 312 311 316 316 317 318 318 318 319 317 318 315 314
331 331 330 328 326 323 324 322 323 326 326 324 321 318 315 314 304 306 312 323 322 321 322 325 324 322 320 321 321 319 319 318 317 319 318 318 319 320 320 320 317 316 318
328 328 327 324 322 325 326 325 326 327 324 320 317 316 317 317 303 306 316 320 318 317 322 324 324 320 304 306 319 316 314 314 308 308 309 306 305 307 314 319 316 315 312
324 324 324 325 326 325 326 325 324 321 323 322 319 317 311 316 302 303 314 320 319 317 316 316 309 313 300 305 318 316 316 315 316 315 313 307 309 310 308 318 317 314 312
324 323 323 326 325 326 325 324 321 323 322 319 317 316 317 317 311 301 307 318 319 318 316 316 313 300 300 302 309 318 315 317 312 317 317 317 317 316 318 319 319 317 312
324 323 322 323 327 326 324 320 322 322 320 319 318 318 319 317 306 302 304 309 311 317 316 314 307 298 298 301 308 299 301 310 318 317 316 315 316 317 317 318 318 317 317
323 321 322 324 326 325 323 321 321 322 320 318 316 316 317 316 311 299 300 300 305 316 316 304 297 296 296 299 297 299 305 317 317 315 315 316 317 317 317 317 318 318 319
322 320 319 322 321 320 322 322 322 321 320 319 316 316 317 316 314 313 311 309 303 306 303 306 305 305 304 305 309 312 317 318 317 316 315 316 316 316 315 316 315 316 316
320 321 323 320 317 312 307 310 320 318 318 321 318 318 317 315 313 310 312 315 316 309 312 315 314 314 314 315 315 315 316 316 316 316 315 315 315 315 314 315 315 314 314
320 323 322 318 317 313 311 307 294 295 298 300 306 313 316 306 300 301 299 298 299 301 314 313 313 314 314 315 314 314 315 313 316 316 316 316 315 313 313 315 316 315 312
320 321 320 320 318 316 316 314 309 303 298 295 298 299 301 300 297 297 296 295 295 302 315 313 313 314 315 316 316 315 314 316 316 316 316 316 315 317 313 315 315 314 312
322 313 321 320 319 316 316 316 317 317 316 310 297 297 295 295 296 294 294 301 312 310 314 314 314 313 313 312 313 312 313 313 314 314 314 316 317 317 316 314 314 313 313
321 321 323 323 320 317 317 317 316 316 313 309 308 300 294 292 293 294 296 314 316 316 316 313 313 314 316 316 315 315 315 314 314 315 316 317 317 315 314 314 314 304 306
321 311 316 322 320 320 318 317 315 315 315 316 315 311 305 306 308 308 310 313 316 318 319 318 318 320 321 320 319 318 316 316 317 317 318 320 318 316 315 317 317 316 313
321 318 312 323 321 321 319 317 316 317 316 315 315 306 291 313 311 311 312 316 319 317 319 320 320 320 321 321 321 319 320 320 320 321 320 320 321 320 321 321 321 319 316
321 320 322 322 323 322 320 319 319 318 317 316 314 308 293 315 315 315 315 310 306 305 308 308 306 305 305 307 307 317 320 320 319 317 320 320 320 320 321 319 318 316 313
321 322 320 320 321 313 321 321 321 319 317 316 316 316 316 315 313 309 307 304 301 300 301 301 300 298 301 302 302 300 308 307 308 311 314 321 320 320 320 320 320 319 319
316 315 314 313 316 319 318 319 319 310 316 316 313 313 310 307 304 301 300 300 298 296 294 296 294 295 296 296 297 297 294 296 305 313 317 315 315 313 314 314 316 314 312
307 309 306 304 307 307 307 307 307 307 307 305 303 304 305 303 300 298 296 294 293 291 290 291 291 292 292 291 292 293 289 288 296 294 306 305 306 307 308 307 307 307 307
301 302 303 302 301 301 303 302 300 300 299 298 297 296 295 294 294 294 294 293 291 291 291 290 289 289 289 289 288 286 287 287 291 289 301 300 298 299 300 300 301 301 300

GFSGL_sfc_thetae_045.txt.gz
Theta_e
313 317 321 325 326 329 331 331 332 333 333 334 334 333 334 333 335 333 331 329 328 325 322 321 321 321 320 319 317 315 314 313 310 313 318 323 323 325 325 326 326 325 323
320 324 327 329 331 331 331 331 332 331 333 335 336 336 335 335 332 330 327 328 325 322 322 321 321 324 319 319 319 315 314 314 313 312 318 321 321 323 324 324 324 326 325
327 330 332 332 331 330 331 333 334 334 336 336 335 334 334 331 329 329 329 326 323 323 322 321 322 322 320 318 316 314 314 317 316 316 319 322 322 322 321 322 321 322 323
333 333 333 332 333 333 334 335 334 335 334 334 334 333 333 332 331 329 327 323 323 323 323 323 322 322 324 321 317 315 316 317 320 321 320 319 319 320 320 319 317 320 319
334 334 335 334 335 337 336 335 334 334 334 333 331 330 330 329 328 324 323 322 321 321 322 324 324 325 322 321 318 315 316 317 320 319 318 318 317 317 317 318 316 317 318
333 333 334 334 334 335 334 332 331 328 329 329 326 326 322 321 307 313 320 322 322 321 320 322 322 323 320 314 315 315 318 320 320 318 315 317 317 317 318 317 317 317 313
331 332 331 330 329 329 328 327 326 325 323 321 319 318 316 315 303 306 311 321 320 319 319 319 321 323 321 318 311 312 311 311 316 318 318 317 316 318 318 317 317 314 314
330 329 329 328 325 325 325 324 323 322 319 318 317 318 316 313 303 303 309 320 318 319 319 320 320 320 320 320 319 317 316 317 317 319 319 317 317 319 319 319 313 317 317
328 328 328 326 324 324 323 324 322 321 318 317 318 317 317 316 302 302 314 317 316 320 320 322 323 322 306 304 318 316 313 312 307 307 308 305 304 306 314 317 314 316 313
328 327 325 326 325 323 324 322 321 321 320 319 316 319 313 316 300 302 312 317 317 318 318 316 307 313 301 303 318 317 315 314 314 314 314 308 309 310 308 320 318 316 312
326 324 324 324 323 322 321 324 324 321 317 316 315 316 318 313 308 300 306 319 318 315 316 315 310 298 297 299 306 316 314 314 311 316 316 316 316 316 318 319 319 317 312
322 321 322 323 324 325 323 323 322 318 317 315 316 318 318 316 305 301 302 308 309 317 315 312 306 298 298 300 308 297 300 310 318 317 316 315 315 316 317 318 318 317 318
321 320 323 324 324 324 322 321 320 319 317 316 316 316 316 316 310 298 298 301 304 316 316 305 297 296 297 299 297 299 305 318 317 315 314 315 317 317 317 317 318 318 319
320 320 322 323 322 323 323 322 320 318 317 316 316 316 316 315 314 313 312 310 303 305 304 306 304 303 303 303 310 313 317 318 317 316 315 315 316 316 316 317 315 316 315
319 320 321 321 318 310 304 309 319 315 316 318 317 317 316 314 314 309 311 314 314 308 312 315 314 314 314 314 315 315 316 317 316 316 315 315 315 315 314 316 315 315 313
319 319 316 315 315 311 311 307 295 297 300 302 305 312 314 303 298 298 297 297 298 300 314 314 313 314 314 314 313 314 315 313 315 316 315 316 315 314 314 315 315 313 312
320 318 315 314 314 313 313 314 310 302 296 296 296 297 301 300 296 295 295 294 297 305 314 314 313 314 315 315 314 314 314 315 316 316 316 315 315 315 311 314 315 314 313
319 308 319 317 316 316 315 315 317 319 315 310 296 297 295 294 294 294 295 303 313 311 314 314 314 312 315 315 314 314 315 315 316 316 316 316 315 317 315 313 313 311 310
321 320 319 318 316 314 316 318 318 317 315 308 306 300 294 292 293 294 298 315 314 314 313 313 315 314 312 313 313 314 315 314 314 314 315 316 317 316 316 312 310 301 303
320 306 312 318 317 316 315 316 315 315 314 314 313 308 305 308 310 310 313 315 317 317 317 316 315 316 317 317 317 316 315 312 315 315 316 317 318 315 312 312 312 312 311
319 318 308 319 318 317 316 316 317 317 316 314 311 306 294 312 312 313 315 310 309 311 317 319 318 317 320 319 319 319 317 318 318 318 318 318 317 317 318 318 318 316 314
321 321 321 320 319 317 317 318 317 317 315 313 312 303 290 314 315 308 305 302 301 302 303 303 302 303 303 302 303 311 318 318 317 317 317 320 319 317 317 317 319 318 316
322 321 322 321 319 309 317 318 317 317 316 316 316 313 313 308 304 301 299 297 296 297 296 297 298 300 299 299 299 299 304 304 307 310 313 317 316 317 318 317 317 318 315
318 318 319 320 319 319 318 316 314 307 315 314 310 306 302 300 299 296 294 292 292 293 293 293 292 291 291 293 295 297 296 299 308 312 315 316 315 312 314 312 310 309 309
309 311 313 313 312 312 314 315 308 305 304 305 303 301 299 297 294 293 293 293 291 290 289 290 290 290 289 288 288 289 287 288 293 292 302 303 302 300 301 303 301 300 300
305 303 304 305 306 306 304 302 301 299 297 296 295 294 294 294 293 292 291 290 289 289 289 289 289 288 288 287 287 286 286 287 290 289 298 298 297 297 297 298 298 297 298

GFSGL_sfc_thetae_048.txt.gz
Theta_e
315 311 317 320 322 323 325 326 330 331 334 335 336 337 337 336 336 335 334 332 330 330 328 327 326 326 324 324 323 323 321 321 319 320 324 327 325 326 327 327 328 328 327
318 311 314 320 323 325 327 329 332 333 335 336 336 336 337 336 335 334 332 331 330 327 326 325 325 326 325 324 324 322 322 321 320 318 322 323 322 325 326 324 326 328 327
318 315 318 322 325 327 329 331 333 334 335 336 336 337 336 335 335 333 332 330 329 327 327 326 325 326 324 323 323 322 321 322 322 320 320 323 323 323 322 322 324 325 326
323 323 325 327 328 330 332 333 334 336 335 336 337 336 335 333 333 332 331 330 327 327 327 327 326 327 325 324 322 321 321 322 323 322 321 319 320 322 322 319 319 322 322
328 329 329 331 332 333 333 334 335 336 336 336 334 335 334 333 331 330 328 327 326 326 326 326 328 326 322 323 322 321 323 323 321 320 318 318 318 318 318 320 319 320 321
331 331 333 333 335 334 333 334 334 332 333 333 332 332 331 326 308 312 322 326 325 326 325 326 328 323 319 315 314 314 322 324 321 320 319 317 318 318 320 318 318 316 316
333 333 334 335 333 333 333 331 329 329 331 329 327 327 323 317 304 305 310 326 326 325 325 325 325 326 322 322 310 310 311 312 317 322 321 320 317 320 321 319 320 320 318
332 332 332 332 331 331 330 328 327 325 323 322 321 320 318 312 301 302 307 325 325 324 324 325 326 324 324 321 319 320 321 323 323 323 325 324 323 323 324 324 322 320 318
328 328 328 328 327 327 326 325 323 321 319 318 319 320 318 316 301 301 315 322 321 322 323 325 324 323 305 306 321 319 318 316 308 308 309 306 303 306 315 322 319 316 313
328 327 327 327 327 326 325 322 321 319 318 319 319 320 313 316 300 301 314 320 319 320 322 319 308 314 299 302 322 319 317 316 317 318 316 309 309 309 308 325 322 317 315
327 326 326 326 326 325 324 322 320 319 318 317 317 319 318 315 309 300 305 322 320 320 320 317 313 298 299 300 308 321 316 316 312 319 317 317 317 318 321 323 325 322 319
325 325 324 324 325 324 323 321 319 319 317 317 318 318 318 316 305 300 302 308 311 319 319 317 307 296 297 298 308 298 301 310 319 318 317 316 316 318 319 321 322 319 321
324 323 323 323 324 324 322 320 318 318 317 316 316 317 317 316 310 297 297 299 305 316 316 306 296 295 296 299 297 298 304 319 318 316 316 316 318 319 319 319 319 321 320
321 322 322 322 322 324 322 321 319 317 317 317 317 317 317 316 315 314 312 310 303 305 305 308 304 303 302 304 311 315 319 320 318 317 316 317 318 317 317 318 317 318 317
322 322 322 322 318 308 304 314 319 319 318 318 318 318 317 316 316 310 311 316 315 308 312 316 315 315 314 315 316 317 318 319 318 317 316 316 316 316 316 318 318 317 315
320 320 319 317 314 313 312 309 295 298 301 302 305 313 314 304 298 297 297 297 298 301 315 315 314 315 314 314 314 315 317 314 317 317 317 317 316 315 314 315 316 315 313
317 317 315 315 316 314 315 315 310 301 294 294 295 296 299 296 294 295 295 295 296 305 315 314 314 315 315 315 315 315 315 317 318 317 317 317 316 316 313 314 315 317 316
317 306 317 316 317 316 316 316 317 317 313 308 295 296 293 293 294 295 297 304 313 311 315 314 314 316 316 316 316 316 316 316 318 319 317 317 317 317 314 315 315 313 313
320 319 319 318 318 315 318 318 319 317 312 306 306 299 295 293 294 298 300 316 314 314 316 315 316 317 317 317 317 317 317 316 316 317 316 317 318 317 316 316 314 303 306
318 305 311 318 317 318 319 318 316 314 313 313 309 306 307 310 312 312 315 316 316 315 316 316 317 317 318 319 318 317 317 316 316 315 316 317 318 318 316 319 318 317 316
318 317 308 318 316 317 317 317 317 316 314 312 310 307 295 314 312 308 306 304 305 307 309 311 310 311 314 319 318 318 317 317 317 318 319 318 318 317 320 320 320 319 320
320 320 320 317 317 318 318 318 317 315 314 312 311 301 292 310 305 301 300 300 299 299 301 303 301 303 303 303 306 312 320 319 319 320 320 322 322 321 320 321 320 320 320
322 321 319 318 317 310 317 318 316 315 315 313 312 310 306 302 298 297 296 296 296 296 296 297 297 297 299 300 301 303 308 309 312 317 320 320 320 321 322 320 319 318 315
322 321 318 316 316 316 317 316 315 308 314 310 306 303 300 297 296 294 293 293 294 294 294 292 291 291 293 293 294 294 295 298 307 308 312 314 311 309 309 306 306 304 305
321 320 318 317 316 315 312 310 308 306 305 303 300 297 296 295 294 293 293 291 291 291 290 291 291 291 290 291 292 292 288 288 296 294 304 303 302 302 301 300 300 300 299
310 312 312 312 309 307 304 302 300 298 297 297 296 295 294 292 291 291 291 290 289 289 288 288 288 288 288 288 287 286 286 287 290 288 298 297 296 296 297 296 295 294 294

GFSGL_sfc_thetae_051.txt.gz
Theta_e
318 322 326 328 332 333 335 337 339 341 341 341 343 345 346 348 348 348 347 346 344 341 340 341 340 339 336 335 334 333 331 330 325 327 328 330 328 332 333 334 333 336 334
319 322 326 329 331 331 332 335 338 339 341 341 343 344 347 347 348 346 345 343 340 338 338 338 337 335 336 335 333 334 333 332 329 327 325 326 327 328 328 330 329 334 336
318 324 328 330 330 330 332 336 338 339 341 343 344 345 346 347 345 343 343 340 336 336 333 335 337 336 335 334 334 333 331 331 331 327 324 326 325 326 325 327 328 329 329
320 326 329 332 330 331 335 337 339 340 342 344 346 347 347 345 342 339 337 339 341 337 335 339 336 336 335 335 333 333 331 330 329 326 324 322 323 325 325 321 324 328 326
321 327 331 335 332 333 336 338 340 342 343 345 346 346 345 343 339 341 342 341 340 338 338 337 338 334 327 330 332 332 332 329 326 323 322 320 320 320 321 324 323 324 324
325 330 335 334 333 335 337 340 341 343 344 344 344 343 341 338 310 317 330 338 338 337 336 336 336 325 323 315 316 318 328 329 325 322 320 320 321 322 323 322 321 322 320
324 331 335 335 335 335 336 339 340 340 342 342 338 339 340 330 305 308 314 337 336 336 336 336 335 334 328 332 312 312 314 313 320 331 323 320 321 323 324 322 324 324 322
322 331 332 336 336 336 338 340 340 342 342 340 339 337 330 316 302 302 308 336 336 336 336 336 337 336 333 332 328 328 330 331 330 330 333 327 326 326 329 327 326 325 324
322 330 332 336 334 336 338 338 337 333 335 332 327 327 326 321 300 301 318 335 334 333 334 335 335 334 307 305 329 329 330 327 309 305 309 308 306 309 320 327 324 320 316
329 333 335 336 335 335 335 333 333 332 327 329 329 331 317 321 299 301 321 331 330 328 329 329 308 324 300 303 326 329 325 324 326 327 325 315 315 316 308 329 325 319 317
331 336 336 336 335 332 331 328 326 326 326 326 324 324 325 323 314 300 306 330 328 326 328 326 324 299 297 300 310 327 324 324 319 329 328 325 325 323 325 327 330 326 323
331 333 332 331 329 329 326 325 323 323 322 322 322 323 322 322 306 301 302 309 314 328 323 323 314 297 297 299 312 298 301 312 326 323 322 321 322 323 325 329 331 331 333
329 328 328 328 327 325 323 321 321 323 322 322 323 321 320 321 317 297 297 299 305 325 327 311 296 295 296 301 298 300 302 325 322 320 318 319 321 324 326 327 328 326 327
327 326 329 325 324 324 324 324 325 324 323 323 322 321 320 320 320 322 321 317 304 308 305 308 305 308 305 308 312 316 326 324 322 320 320 321 322 322 322 323 320 322 323
327 327 326 326 323 318 318 326 326 328 323 325 323 322 320 320 322 314 318 325 323 312 315 320 322 319 319 320 322 322 323 324 322 322 322 321 320 320 320 321 321 322 319
324 324 320 319 320 319 318 313 295 299 298 300 305 316 319 304 297 297 297 297 298 300 318 318 318 318 318 318 319 320 322 317 322 321 321 320 318 319 318 320 323 321 319
323 322 322 321 321 319 319 318 311 302 295 293 295 298 301 297 295 295 296 295 296 306 316 318 317 318 318 318 319 319 318 320 322 320 321 320 320 318 314 315 316 318 317
325 309 324 322 321 323 323 321 319 317 312 307 295 298 293 294 294 295 296 304 315 313 317 315 318 319 319 319 318 318 319 320 320 320 321 321 321 317 316 315 316 320 322
325 323 322 323 325 321 321 322 320 315 310 306 307 301 297 294 295 297 300 318 317 315 317 316 321 321 320 319 319 321 320 322 322 323 324 320 320 319 317 317 316 302 305
325 306 316 322 322 321 321 319 315 313 315 316 315 311 313 315 318 316 316 319 320 319 318 320 319 319 320 322 323 322 321 319 321 320 319 319 319 319 317 318 318 319 321
321 323 310 323 322 321 320 318 316 316 316 315 314 309 292 312 307 305 304 304 309 312 312 313 313 315 319 324 323 322 321 324 318 319 319 319 321 319 321 322 325 325 325
321 321 321 322 322 322 321 319 317 317 316 315 310 301 293 306 302 301 301 299 300 303 306 307 308 307 309 312 315 319 321 322 323 323 322 322 322 324 326 326 325 325 325
324 320 321 322 321 312 318 317 317 316 315 313 310 307 304 301 298 299 299 297 300 301 303 307 308 307 306 307 309 312 318 317 321 325 325 326 322 321 320 317 319 316 310
326 320 319 319 319 318 317 316 317 308 312 310 306 305 303 301 297 295 297 299 299 298 299 300 300 303 301 298 299 301 306 313 311 313 317 316 312 307 306 304 303 303 304
324 319 318 318 318 316 314 313 312 309 306 304 301 300 300 299 295 294 294 294 294 295 294 294 295 294 294 294 295 294 288 288 301 295 305 304 304 301 301 300 300 298 296
320 318 317 313 311 309 307 305 304 303 300 298 299 298 297 294 293 292 291 291 290 290 291 291 292 291 291 291 290 287 287 287 292 289 300 299 298 297 295 294 294 294 294

GFSGL_sfc_thetae_054.txt.gz
Theta_e
321 323 325 327 331 334 337 341 345 349 348 346 348 349 349 349 351 353 354 352 351 351 350 348 346 345 341 347 341 338 336 335 328 335 335 334 334 336 336 338 337 340 335
320 321 323 326 330 334 336 341 342 344 347 347 347 347 346 347 352 352 352 350 350 348 347 346 342 343 344 345 340 340 337 337 331 332 329 329 332 333 334 333 335 340 339
322 321 322 325 330 335 337 341 342 341 344 347 346 344 344 346 350 352 352 350 349 347 344 344 343 343 342 341 339 336 335 335 334 333 328 330 329 329 327 332 334 333 335
323 322 322 326 331 334 338 340 341 340 342 345 345 344 344 347 350 351 351 348 346 345 346 343 342 342 340 339 337 337 336 333 332 331 329 328 327 327 327 326 326 331 328
323 323 324 327 331 335 338 339 340 340 341 343 344 344 347 348 347 350 348 344 345 344 342 340 343 337 329 332 335 337 336 332 330 330 325 325 325 322 325 325 326 328 328
321 323 326 329 332 334 339 338 340 341 343 344 345 346 348 345 314 319 336 344 344 342 341 341 341 329 327 319 319 320 328 336 334 329 325 325 325 327 327 326 325 325 321
320 322 326 329 331 335 338 338 340 345 348 347 347 347 347 345 310 312 320 344 344 342 341 340 337 335 331 336 316 315 317 317 321 334 328 327 324 327 329 327 326 329 325
320 321 326 328 333 337 337 340 346 348 349 348 346 347 346 337 305 308 313 341 339 339 339 339 339 338 337 335 334 333 333 333 334 334 336 333 329 333 332 330 332 328 330
318 322 327 328 335 337 338 343 344 346 344 345 345 344 340 329 302 304 320 339 338 338 338 339 338 337 314 307 335 332 332 332 312 307 309 311 309 309 321 331 327 323 321
318 324 326 332 334 336 341 341 343 343 342 342 342 342 326 324 300 302 316 335 336 335 337 337 308 325 302 303 336 334 330 331 331 330 331 319 319 321 311 334 330 322 323
321 324 324 332 334 337 339 340 340 340 340 338 336 334 334 332 319 301 304 335 333 332 331 332 330 300 300 301 310 331 330 331 325 332 330 329 331 331 329 332 332 327 325
322 325 328 332 334 334 336 337 339 339 335 334 329 332 332 333 311 303 302 311 317 332 331 332 322 297 298 299 312 299 306 312 334 331 329 327 327 327 328 330 332 333 334
324 324 330 331 331 333 333 334 332 333 330 329 329 329 328 329 326 299 300 303 305 329 332 308 297 295 297 303 297 299 303 326 330 325 326 326 327 328 331 332 333 333 333
324 325 328 327 328 332 334 334 330 329 329 328 328 328 326 327 329 329 325 323 308 318 307 314 309 311 307 312 314 313 330 328 329 326 323 324 326 327 327 329 327 327 326
326 326 327 327 330 329 324 325 327 329 326 329 329 328 327 326 327 316 321 328 328 319 320 324 325 326 324 326 327 327 327 327 325 326 325 324 323 324 324 327 326 324 323
324 324 324 323 322 325 326 319 297 298 298 300 303 320 323 306 297 297 298 299 301 300 324 325 323 324 324 325 324 324 325 321 324 325 326 325 323 322 322 324 325 323 323
326 325 325 320 325 326 326 322 315 308 296 295 297 298 301 298 295 296 297 297 297 306 323 323 321 322 323 323 323 323 322 324 326 325 324 324 323 323 321 319 325 324 320
327 311 328 327 328 327 326 325 323 320 318 316 299 303 294 294 295 296 297 304 315 314 319 321 320 321 322 322 322 322 323 322 323 323 324 324 323 324 319 317 316 316 318
326 325 326 328 328 325 327 324 322 320 316 310 310 302 298 294 295 296 298 323 318 316 318 320 323 322 323 322 322 322 322 322 322 323 323 324 324 321 320 318 319 304 309
327 310 319 328 328 325 323 322 319 320 320 318 317 314 315 312 316 315 319 322 323 319 318 320 323 323 322 322 323 323 323 323 325 326 325 324 321 324 320 320 321 319 316
327 325 313 327 323 324 323 322 323 320 318 318 315 307 295 316 312 311 314 313 315 318 322 322 322 322 324 325 326 323 323 323 323 322 321 319 322 324 326 325 324 325 326
327 327 328 328 324 323 322 321 319 318 317 311 306 301 293 308 306 305 306 308 310 311 316 317 318 316 320 323 321 325 325 322 321 324 325 325 326 325 326 329 329 327 327
328 328 327 324 323 314 320 319 320 317 314 309 309 307 303 302 302 301 302 304 305 309 312 314 313 312 315 316 315 321 321 321 324 329 327 328 327 326 324 319 318 314 311
325 326 323 323 323 321 318 316 317 310 312 310 308 306 301 300 302 301 302 302 303 306 310 313 312 308 309 309 308 318 321 320 319 322 324 324 319 315 314 311 306 307 305
323 323 323 320 319 318 316 315 315 314 309 309 305 305 299 298 301 301 301 301 300 301 300 299 302 302 300 300 299 299 290 288 308 299 309 309 309 308 309 307 303 302 300
322 321 319 318 317 316 315 312 312 310 306 305 306 303 300 298 299 299 299 298 297 297 297 296 295 294 294 293 291 287 286 287 294 290 304 303 299 297 296 296 296 295 297

GFSGL_sfc_thetae_057.txt.gz
Theta_e
321 325 327 327 327 333 336 341 343 350 352 352 349 352 355 357 358 360 357 353 353 355 354 352 351 353 346 343 344 342 344 341 332 339 341 338 336 338 339 339 339 339 332
319 322 324 327 329 333 335 339 343 347 349 349 349 349 350 355 358 356 351 348 351 349 351 350 349 347 347 348 347 345 339 338 333 334 335 333 334 335 337 336 338 341 339
319 321 327 329 331 332 334 338 343 343 345 347 347 347 349 352 353 354 350 348 350 350 351 350 347 346 347 343 344 344 338 335 336 333 335 332 333 333 332 335 337 338 334
320 320 323 329 331 332 335 337 339 341 342 343 348 347 348 349 349 350 350 352 351 351 351 348 346 345 343 344 343 340 338 337 337 335 334 329 329 330 328 329 330 337 331
319 319 322 328 329 328 331 335 338 341 341 341 343 345 350 349 346 352 352 353 352 350 350 346 347 341 333 335 336 342 342 335 335 338 333 329 327 325 326 327 329 330 330
318 319 322 323 325 329 334 336 340 342 343 344 344 345 349 343 318 320 343 351 348 346 345 344 344 332 329 319 323 318 330 339 337 335 327 326 328 327 331 329 331 325 323
317 318 319 322 323 325 328 332 338 344 348 348 347 348 350 351 312 315 322 349 347 348 346 345 340 337 332 336 319 317 319 318 323 338 333 331 330 331 330 330 329 330 330
315 317 317 320 322 324 330 332 340 346 349 351 352 352 353 342 308 310 317 347 345 344 343 342 342 340 336 335 334 331 332 334 333 333 337 335 334 335 335 335 333 333 334
315 315 316 318 321 325 328 334 342 346 348 351 352 352 348 336 305 310 324 343 341 340 339 339 338 337 317 307 335 332 333 333 313 309 313 311 311 314 322 335 330 327 324
314 315 317 319 323 328 332 338 343 348 349 349 347 350 330 339 302 307 320 337 338 335 338 338 314 329 303 303 337 336 332 333 331 332 330 320 321 322 311 335 335 326 323
316 317 318 321 327 331 338 342 344 347 341 341 342 341 341 335 322 302 305 336 334 334 332 334 332 301 300 301 305 339 331 334 323 333 331 329 330 331 330 334 337 329 325
316 316 318 324 329 333 338 341 342 337 337 339 340 337 337 333 313 304 305 311 320 334 332 333 322 298 299 302 316 304 306 315 335 335 332 329 328 328 330 333 336 334 332
316 317 319 328 328 335 338 332 333 336 336 335 335 334 332 332 329 301 300 303 307 336 327 310 299 297 298 306 299 301 308 326 328 330 329 331 331 330 331 334 334 336 334
314 316 323 325 327 332 333 334 336 336 336 333 332 329 330 331 330 331 327 326 310 319 310 320 316 313 307 316 316 318 330 330 328 328 329 330 330 328 328 333 329 330 329
316 323 325 327 329 329 321 329 335 338 330 332 332 330 328 328 328 321 323 330 332 322 324 326 327 327 326 327 328 329 331 329 327 329 327 325 324 325 326 329 327 327 324
318 324 326 327 322 323 323 317 299 301 300 300 308 322 322 305 299 301 299 299 302 304 325 326 325 325 325 326 327 327 326 322 327 327 327 325 323 323 324 325 326 325 324
320 325 324 322 326 326 326 322 319 311 299 295 297 298 302 299 297 297 297 298 297 302 328 327 325 326 325 325 325 325 325 326 327 326 326 326 325 324 322 323 325 323 323
323 312 329 329 328 327 326 325 327 325 324 321 300 303 295 295 295 297 298 305 322 321 328 324 324 325 325 325 325 324 325 326 326 325 326 325 325 323 323 323 323 323 322
325 327 328 330 326 321 327 327 325 325 321 313 311 302 299 295 296 298 299 322 319 319 322 325 324 325 324 324 324 324 324 324 323 325 325 326 325 325 323 324 319 305 309
326 310 318 327 324 325 326 325 322 320 319 318 314 310 311 313 318 321 324 323 322 319 319 322 324 324 324 324 323 323 323 322 323 326 326 325 326 325 321 324 322 323 322
325 322 314 327 327 326 325 324 323 322 320 318 318 313 296 318 316 314 316 320 318 319 321 322 322 323 323 324 325 324 325 325 326 326 325 325 322 319 323 321 324 323 324
327 328 328 326 327 325 324 322 321 319 317 312 309 303 292 313 311 311 311 312 317 320 321 321 321 321 322 324 325 326 325 326 325 325 325 323 324 327 327 325 323 323 324
328 328 328 325 325 314 322 321 319 318 315 314 312 311 313 311 311 311 309 310 314 317 318 319 318 318 318 315 319 326 320 322 324 327 328 328 327 326 325 322 319 316 315
329 328 326 325 323 322 321 320 318 309 312 310 307 305 303 305 306 305 305 306 308 312 311 310 309 308 308 306 311 315 314 320 324 323 325 322 320 317 318 316 314 313 311
327 324 323 322 321 320 320 318 316 312 310 306 303 303 302 303 302 301 302 304 303 305 307 304 302 300 298 296 299 299 289 288 307 300 311 309 307 304 307 303 301 298 298
325 323 322 321 320 320 317 315 314 315 310 307 303 300 303 300 301 301 300 301 299 297 296 296 296 297 297 296 294 288 287 288 296 290 302 301 300 300 300 299 299 298 297

GFSGL_sfc_thetae_060.txt.gz
Theta_e
322 324 327 326 329 331 331 332 332 338 340 341 341 345 350 354 355 355 355 354 352 350 349 347 348 347 348 345 344 341 337 335 328 329 335 335 332 333 334 334 334 333 327
321 323 325 327 330 330 328 331 336 335 340 340 343 343 342 343 350 353 353 353 350 347 347 347 347 348 347 345 343 340 336 337 332 326 330 330 329 331 331 331 334 335 331
320 321 325 326 329 329 330 331 332 333 335 339 341 342 345 347 349 353 354 351 348 347 348 347 347 347 344 343 342 339 336 337 334 330 329 330 329 329 326 329 330 331 330
317 318 320 327 329 331 332 330 329 330 332 337 340 342 344 344 348 352 352 347 347 349 349 349 348 345 343 342 340 339 336 334 333 330 329 328 326 326 326 324 323 328 326
315 318 321 327 329 328 327 328 328 329 333 335 337 341 342 345 347 349 348 347 349 348 350 349 347 342 336 339 340 337 335 332 332 328 326 326 325 323 320 324 323 325 325
317 317 318 321 322 325 325 328 328 328 330 335 337 338 341 343 324 323 339 348 350 347 346 345 339 327 325 321 318 319 332 333 329 328 326 323 324 323 325 324 324 323 318
313 315 317 318 319 321 323 324 326 330 330 332 338 339 340 344 309 315 323 349 348 346 345 344 338 337 331 329 318 318 316 316 325 331 327 326 325 326 326 325 325 323 323
311 313 315 317 317 319 321 323 325 328 331 334 338 341 341 341 308 310 320 347 345 345 345 343 341 338 336 334 331 331 331 330 330 331 332 331 330 331 329 329 326 325 326
310 311 313 314 316 317 318 323 326 327 329 335 338 342 342 330 307 310 330 345 342 343 342 342 340 338 317 311 332 329 329 325 311 310 314 311 312 315 322 329 325 323 321
310 311 314 315 316 316 319 323 325 329 333 335 337 343 329 333 303 309 329 341 339 337 339 329 314 330 304 305 334 331 329 327 327 327 325 316 318 316 312 329 327 321 319
312 313 314 316 317 317 320 325 327 329 333 333 337 341 340 331 317 304 312 338 335 334 332 335 324 301 299 300 308 332 327 328 321 329 328 327 328 328 328 329 330 327 321
312 313 314 316 317 317 321 324 327 331 332 334 336 337 337 332 309 303 310 313 322 331 332 332 311 298 299 303 313 302 304 314 330 328 325 325 325 326 327 329 329 329 329
312 312 314 317 315 318 320 323 328 332 331 333 333 332 330 326 317 301 301 307 312 330 329 310 298 298 299 303 298 300 307 328 326 324 324 325 327 328 328 328 329 329 329
310 313 314 315 316 319 321 324 327 330 330 331 332 329 329 326 326 322 319 316 308 312 309 313 312 310 308 312 315 317 328 326 324 324 323 327 327 327 324 328 325 326 324
310 312 313 314 315 316 320 322 328 332 331 333 331 329 327 326 327 320 324 329 329 319 321 323 324 324 324 323 325 327 328 326 325 325 325 324 324 324 325 326 325 324 321
310 310 312 315 317 319 315 309 300 305 305 306 310 323 320 312 305 301 300 302 304 305 323 323 323 324 323 324 325 326 326 322 326 326 325 324 322 321 322 323 324 322 320
311 312 314 313 319 319 319 316 314 307 299 297 301 304 307 304 297 297 300 300 298 309 326 325 324 325 324 324 326 325 322 325 325 325 325 324 323 323 319 321 321 321 320
318 307 317 323 322 320 322 323 324 320 317 312 297 299 295 296 296 297 298 306 320 320 327 325 325 325 325 324 324 323 325 325 324 324 324 323 324 323 320 320 320 319 319
319 321 326 325 326 324 327 326 324 319 314 312 311 303 298 295 296 298 302 324 324 324 325 324 325 325 324 324 325 324 324 323 323 323 323 324 324 322 320 320 318 303 305
322 308 317 325 325 327 325 321 318 318 317 315 312 312 314 316 320 321 323 322 322 321 323 322 324 324 324 324 323 323 322 322 322 323 324 325 325 323 320 320 321 320 319
326 325 312 326 325 324 322 319 319 318 315 314 314 310 296 319 317 320 321 320 319 319 320 322 323 322 322 322 322 322 322 322 325 325 324 321 322 321 323 322 321 321 322
327 327 325 324 323 323 322 322 319 317 315 312 309 303 296 315 314 314 316 316 318 319 319 320 319 319 320 322 325 323 325 325 324 325 322 322 322 323 323 322 321 320 316
326 326 325 325 322 313 319 317 316 314 313 313 312 311 311 309 308 309 310 313 314 316 316 318 316 314 312 312 321 322 322 324 325 326 325 325 324 322 318 315 312 310 305
327 326 323 321 320 320 318 315 315 307 310 308 308 309 307 306 306 305 306 309 308 307 308 306 306 304 304 307 309 308 309 319 320 319 319 318 317 314 314 311 308 304 302
326 322 321 320 319 316 315 314 312 311 308 305 304 305 304 304 304 303 302 306 303 301 300 300 298 297 298 299 299 298 289 289 304 298 306 304 303 302 301 299 299 298 298
323 321 321 319 317 315 313 312 311 307 304 303 302 302 301 300 301 301 298 297 298 296 296 297 296 295 294 292 291 288 288 288 294 290 302 302 300 298 297 296 296 295 296

GFSGL_sfc_thetae_063.txt.gz
Theta_e
311 310 312 314 316 319 322 323 326 327 328 331 334 334 337 338 338 336 334 335 338 339 346 347 346 341 340 338 334 332 330 328 323 323 327 328 326 328 329 330 331 328 325
313 313 313 316 317 319 319 321 324 325 327 330 334 335 337 339 342 337 338 343 345 346 347 345 344 345 341 338 333 332 330 329 325 321 323 324 324 324 326 325 329 332 325
308 308 310 313 314 316 318 320 319 320 323 325 327 329 333 337 339 347 348 348 348 347 346 342 343 342 340 337 331 330 329 331 328 324 322 323 322 323 321 323 325 322 325
307 306 307 311 315 318 319 321 322 323 323 324 326 329 334 337 339 340 343 347 349 345 345 343 341 343 340 335 334 332 330 328 326 324 321 320 319 320 320 318 319 322 319
310 309 308 311 315 319 320 322 324 324 324 324 324 325 329 334 338 339 345 347 347 341 343 344 342 340 334 336 335 332 328 325 323 321 319 318 317 316 314 317 318 319 320
308 309 311 312 314 313 317 317 320 321 322 323 323 326 328 332 321 317 331 345 339 340 340 340 339 330 327 324 322 326 327 325 321 319 318 317 317 317 318 318 317 316 313
307 309 309 310 311 314 315 317 316 316 320 321 322 323 327 332 316 312 315 344 340 338 339 334 332 331 325 324 317 315 315 318 322 323 320 320 318 320 320 318 321 317 316
306 307 308 308 309 312 314 312 312 315 316 322 324 325 325 330 315 308 311 341 338 337 338 333 331 326 325 324 324 323 323 323 324 328 324 324 324 324 323 322 321 320 321
305 305 307 308 308 310 310 310 311 315 317 318 322 326 330 332 309 305 311 338 335 335 337 334 332 330 312 311 326 324 321 318 309 309 315 311 310 312 320 323 319 320 318
305 306 306 308 309 309 309 310 311 313 317 319 322 326 324 331 311 302 314 337 334 333 330 326 318 328 304 305 325 322 319 318 320 320 319 314 316 314 313 323 321 319 316
306 307 308 308 309 310 311 312 310 314 318 319 322 324 328 330 314 305 309 335 333 331 327 323 318 304 301 301 312 324 321 321 318 323 322 320 321 320 321 322 324 322 318
307 307 308 308 309 311 310 311 313 314 315 317 320 323 327 320 309 304 309 319 319 330 327 321 307 298 298 300 312 304 301 313 324 323 321 321 320 319 321 323 323 323 324
306 306 307 308 310 310 310 309 310 313 316 318 321 323 325 319 314 304 305 307 310 327 326 309 297 297 298 301 298 298 303 323 322 320 319 321 320 322 321 321 322 323 323
306 306 307 308 309 310 312 311 311 314 316 319 321 323 324 318 316 315 314 312 305 308 305 308 308 308 308 306 310 313 322 323 323 322 322 323 323 320 318 319 319 319 318
305 306 306 307 308 309 310 312 314 316 316 318 322 326 322 320 319 316 317 321 320 315 315 318 319 317 316 316 317 320 322 323 321 323 323 322 321 319 319 320 319 317 315
304 304 305 307 309 310 310 310 297 296 297 301 304 321 325 312 305 305 304 303 302 305 318 318 317 317 317 316 317 318 319 319 322 323 322 321 320 320 321 321 318 316 314
305 307 309 307 309 311 312 313 312 302 298 300 303 304 308 307 299 301 302 301 299 309 319 318 318 318 318 320 318 318 317 318 321 322 322 321 320 320 318 319 318 315 316
308 302 309 310 311 312 314 316 314 315 313 309 300 306 299 297 298 299 298 305 318 315 320 319 319 319 319 318 318 319 321 321 321 320 321 321 321 319 316 315 317 317 315
308 311 310 314 316 315 318 319 317 314 310 308 308 301 298 297 297 297 304 321 320 318 318 319 319 318 318 318 319 321 321 320 318 321 321 321 320 317 316 314 315 303 304
312 306 307 318 318 318 319 317 316 317 316 315 313 311 314 316 318 319 318 318 317 317 320 321 318 318 317 318 319 320 318 317 316 320 319 318 318 319 316 317 315 314 312
315 315 306 317 319 319 318 317 316 315 315 315 315 308 297 320 319 318 317 318 317 317 318 318 319 319 319 319 320 319 319 318 319 318 318 320 320 315 317 319 316 316 316
316 321 321 320 320 318 317 316 315 314 312 311 310 304 297 318 317 317 317 317 317 318 319 318 315 315 317 319 318 317 317 317 321 320 318 319 318 318 320 318 313 310 308
323 321 319 318 317 310 315 315 313 312 311 312 311 310 311 312 313 312 313 314 312 314 314 312 309 306 309 312 313 315 316 316 318 319 317 319 317 313 310 306 302 299 298
320 318 316 315 314 314 313 312 311 305 309 308 308 307 307 307 308 306 306 305 303 301 301 300 300 302 303 303 302 302 305 309 312 313 313 311 307 299 300 299 297 297 296
318 316 315 313 312 311 310 308 307 307 307 305 305 304 303 302 304 302 299 298 298 297 296 296 296 295 296 296 296 296 291 292 301 295 301 299 297 296 296 295 294 292 293
317 315 314 312 311 310 307 305 304 303 303 302 302 301 301 298 297 297 295 295 295 293 293 293 293 293 293 292 292 288 288 289 292 290 297 296 295 293 293 293 292 291 291

GFSGL_sfc_thetae_066.txt.gz
Theta_e
305 305 305 308 311 313 314 315 317 319 321 323 327 328 332 333 335 334 334 333 331 331 333 331 330 330 338 341 339 334 329 324 321 321 325 325 324 326 327 327 329 327 324
308 308 308 309 310 309 311 314 317 319 320 322 323 326 330 332 333 335 335 337 334 333 334 336 336 341 339 339 336 331 328 326 322 319 321 322 322 323 324 323 328 329 323
309 308 308 308 309 310 312 314 316 317 318 319 323 325 327 328 330 333 337 338 336 337 337 339 343 343 342 338 333 330 327 328 324 322 323 321 321 321 319 320 322 320 322
305 304 303 304 307 310 312 312 314 317 317 317 319 321 323 325 327 330 335 338 342 342 344 345 344 342 341 337 333 329 327 325 323 323 321 319 318 318 317 316 317 319 317
305 305 305 306 309 311 314 315 318 319 320 320 320 320 320 322 324 325 331 337 338 342 344 345 344 339 333 333 334 328 327 323 322 319 317 316 315 316 314 315 315 317 317
306 306 308 308 309 309 310 311 313 315 318 320 320 320 320 324 315 312 318 330 338 341 340 340 342 328 327 319 322 321 327 324 320 318 316 316 314 315 314 316 316 319 316
305 306 308 308 308 307 309 311 310 311 313 316 317 318 318 319 310 308 311 323 330 339 339 337 335 338 329 331 317 316 316 314 319 321 318 318 316 318 317 315 315 314 313
305 306 307 307 307 307 307 308 309 309 310 311 314 316 318 320 309 306 309 321 326 336 337 336 333 328 329 328 325 324 324 323 322 324 322 321 322 320 321 320 318 317 316
305 305 306 307 306 306 305 306 308 308 309 311 314 316 317 321 310 307 310 322 327 334 336 333 330 328 310 308 325 322 320 319 309 308 313 311 309 308 316 321 317 316 313
304 304 306 306 306 305 305 305 307 308 309 312 314 316 315 320 311 306 309 322 327 330 331 329 314 325 304 306 324 322 318 318 318 318 317 314 311 310 308 321 319 315 313
305 305 305 306 305 305 305 307 307 306 310 312 313 314 318 319 321 306 301 320 330 329 329 329 327 305 302 302 311 324 319 317 314 318 318 318 318 319 320 321 320 319 315
305 305 305 305 305 306 306 307 308 308 309 310 311 313 317 320 310 308 300 302 316 329 328 328 322 303 300 302 310 303 300 310 320 318 316 316 318 317 318 320 321 321 322
302 303 304 305 306 306 305 305 306 308 309 310 311 313 315 320 319 304 298 299 305 327 326 313 301 297 298 301 300 298 302 321 320 317 315 317 321 319 318 318 319 320 321
302 303 304 305 306 307 308 307 307 308 308 310 312 313 315 318 318 314 314 311 305 311 305 306 305 307 305 306 307 305 322 323 321 320 318 321 322 319 316 317 317 317 316
303 303 304 305 305 306 306 308 309 310 310 311 313 315 315 317 319 311 314 321 319 313 313 319 318 316 316 316 316 318 320 321 321 320 322 321 320 318 315 317 316 315 313
301 302 304 305 304 305 305 305 296 300 298 296 296 304 315 306 303 302 300 302 302 304 319 318 317 315 315 315 316 316 318 317 321 323 322 321 320 319 320 319 316 314 312
302 303 305 304 304 305 307 307 306 298 295 294 294 295 296 306 299 300 301 301 300 308 319 317 316 315 315 315 315 315 315 320 322 321 319 318 318 319 318 318 318 313 313
304 300 305 304 305 306 308 309 310 310 308 307 299 296 295 298 297 297 299 304 316 313 318 317 316 316 317 317 316 315 316 316 317 318 318 319 320 318 316 315 315 317 315
305 306 306 308 309 308 309 310 312 313 310 307 305 300 298 297 297 298 300 320 317 316 317 317 318 318 317 317 316 319 320 317 317 317 320 320 320 318 316 312 311 300 304
305 300 304 309 309 310 313 314 313 309 307 308 310 305 305 307 315 318 319 319 317 317 318 318 317 317 318 318 318 321 318 317 319 320 319 318 315 315 315 313 314 311 309
308 311 306 315 313 315 315 314 313 312 312 309 312 311 302 320 319 317 316 316 317 317 318 317 317 317 319 320 320 320 319 317 316 319 317 315 316 313 315 317 314 314 313
313 314 316 318 318 317 316 317 316 315 314 313 313 307 297 320 318 316 316 315 314 315 316 316 314 317 318 317 316 317 317 318 320 317 315 318 317 316 314 311 309 308 312
317 318 318 316 315 309 314 315 315 315 314 315 315 315 315 315 315 314 312 312 311 309 310 311 311 311 311 310 313 315 315 319 320 317 316 314 313 310 306 302 303 304 303
318 316 316 315 314 313 313 311 310 304 310 310 310 311 310 309 306 305 304 304 303 302 304 304 306 307 305 304 305 306 308 312 316 316 313 308 303 299 298 297 296 295 295
315 315 314 312 310 310 310 309 308 308 307 306 305 306 305 302 300 300 300 300 299 298 297 298 299 300 302 302 299 296 290 291 302 297 303 299 296 294 294 293 292 290 290
312 312 311 310 308 307 307 306 305 305 304 303 301 301 301 299 297 297 297 296 295 294 294 294 293 294 294 293 292 288 288 289 293 291 297 295 293 293 292 290 289 288 287

GFSGL_sfc_thetae_069.txt.gz
Theta_e
306 306 306 306 308 310 310 310 312 313 315 317 319 321 325 327 328 329 328 330 329 329 329 329 328 329 329 332 331 331 332 331 327 323 323 325 324 324 326 326 327 326 325
306 304 303 304 305 306 307 309 310 311 314 318 320 322 325 326 327 330 331 333 332 331 331 333 332 332 329 332 339 337 333 329 325 322 322 322 322 323 323 323 326 327 322
304 304 304 305 306 307 308 309 310 311 313 315 318 319 322 325 327 328 332 334 333 334 334 334 334 335 335 338 337 335 329 328 325 321 320 321 320 321 319 319 320 319 321
306 306 306 305 306 306 308 310 311 313 313 313 314 316 319 320 321 323 324 325 330 333 336 337 339 337 338 337 335 334 328 327 324 322 320 318 319 318 317 315 316 323 316
303 302 302 302 304 307 309 312 313 315 316 316 316 317 318 320 321 320 320 321 324 329 333 338 342 340 330 334 337 330 328 325 322 320 317 315 315 317 314 314 314 317 315
303 303 305 306 308 308 309 309 309 310 311 312 314 317 317 320 312 310 313 318 322 324 327 333 337 331 329 321 321 321 328 326 322 319 316 317 315 315 313 314 314 316 317
303 304 306 306 306 306 306 306 306 306 307 308 309 311 313 314 308 306 308 314 319 321 325 329 333 338 327 334 316 314 316 315 319 324 319 318 316 317 315 313 314 313 313
304 305 306 306 306 306 305 304 303 303 304 305 306 308 310 314 306 304 305 311 316 320 323 326 331 335 332 331 327 327 325 322 321 325 324 322 320 319 319 318 317 314 314
303 304 305 306 305 305 305 305 302 303 303 304 306 308 308 311 306 304 306 316 318 320 324 328 333 335 317 307 329 326 322 319 310 308 309 310 308 308 315 319 315 314 311
301 302 305 306 305 304 305 304 302 303 305 306 305 306 309 312 306 303 306 315 316 320 324 329 312 325 305 303 328 324 320 318 320 318 317 311 309 308 307 321 318 314 311
302 303 304 305 305 305 304 304 303 302 303 304 306 308 310 312 313 303 300 313 318 321 325 328 324 305 301 303 310 324 320 319 314 319 317 317 317 316 318 319 319 318 313
302 303 303 303 303 305 303 303 302 302 303 303 305 307 310 312 305 304 300 299 307 319 325 327 323 299 300 300 308 305 301 310 318 316 315 314 315 316 318 319 320 319 319
301 301 302 303 304 304 303 302 301 302 304 304 306 307 309 313 314 304 302 300 298 305 322 320 307 298 298 302 305 300 304 319 317 315 314 314 315 317 317 317 317 318 318
300 301 301 301 302 303 304 304 303 304 304 305 305 306 309 312 314 314 314 316 303 306 305 307 307 308 305 311 306 306 320 321 319 317 314 316 317 316 315 316 315 315 315
299 300 300 301 301 302 303 304 305 306 306 306 307 309 309 311 313 310 310 317 318 312 311 312 316 317 316 316 316 318 321 320 318 317 319 319 318 316 316 316 314 313 312
299 300 301 302 303 303 303 304 297 298 298 298 299 305 312 303 300 297 297 297 299 300 315 318 319 319 318 318 319 319 321 318 318 320 322 320 316 316 317 314 314 313 311
298 299 301 302 304 304 305 304 303 300 296 295 293 293 294 300 296 296 295 295 296 300 318 319 318 317 316 317 319 320 319 321 321 321 321 319 317 318 315 315 314 312 311
301 298 303 303 305 305 304 304 305 304 304 305 298 295 294 293 294 295 294 298 307 310 320 317 316 315 315 315 315 314 316 317 318 318 317 318 317 319 317 316 316 315 315
301 303 304 305 304 303 304 305 306 306 307 306 305 298 295 293 293 294 296 317 319 318 317 316 316 315 315 316 315 316 317 317 316 316 316 316 318 318 315 313 309 300 306
303 300 301 305 306 305 306 306 307 307 307 307 303 304 302 302 303 305 312 320 318 317 317 316 316 316 317 317 316 317 315 314 315 316 316 318 318 316 313 312 310 309 308
305 305 301 307 306 308 308 307 308 309 308 309 306 303 294 309 310 314 318 318 318 318 316 316 317 317 317 317 317 317 318 317 319 319 318 316 316 312 313 313 312 312 311
305 306 307 305 309 310 310 311 313 310 308 310 308 302 291 319 318 317 316 315 314 315 316 317 316 316 317 317 317 319 318 318 319 319 318 317 315 313 314 315 313 313 311
311 315 315 315 315 308 314 313 312 311 309 311 309 309 313 317 316 315 313 311 310 311 312 315 314 312 313 314 318 320 319 319 319 319 315 316 313 307 305 304 307 306 303
317 316 315 314 314 313 312 311 312 306 313 314 313 312 311 310 308 306 304 304 304 304 306 307 310 310 311 311 311 315 317 318 317 314 312 307 303 300 299 298 296 295 293
313 312 311 311 310 310 309 308 309 309 309 308 305 304 305 305 303 302 301 302 303 301 298 300 303 305 304 305 305 304 294 294 305 297 302 299 297 296 293 292 291 290 289
311 310 310 309 308 307 306 305 305 304 303 303 302 301 300 299 299 298 298 298 296 296 295 296 296 297 297 297 296 290 289 290 293 291 297 296 292 290 289 288 288 287 286

GFSGL_sfc_thetae_072.txt.gz
Theta_e
309 310 310 311 313 312 312 313 313 314 317 319 320 321 324 327 330 330 330 330 331 331 333 332 331 330 328 330 330 330 330 330 325 332 329 331 331 332 333 333 334 333 330
307 308 309 309 309 310 311 312 313 314 315 317 320 323 324 326 327 328 329 332 332 331 332 333 332 333 329 330 331 330 330 331 329 327 329 328 329 330 331 331 331 330 328
307 306 305 306 306 307 308 309 311 312 313 316 319 320 322 324 325 327 329 331 332 333 333 334 334 335 332 330 330 331 335 334 333 329 327 326 327 327 326 327 328 327 325
307 306 305 306 306 307 309 311 313 315 315 316 317 319 320 321 323 324 324 326 327 330 332 335 336 338 337 335 335 336 333 331 328 328 325 325 325 325 325 325 324 327 326
304 306 307 308 307 308 309 311 313 315 316 318 318 319 320 321 321 323 323 324 324 324 327 331 335 335 331 334 341 340 332 332 328 326 323 322 321 320 324 323 322 324 324
305 304 305 305 306 307 309 312 313 314 315 316 317 317 317 318 310 308 315 320 322 323 323 325 329 327 329 320 319 320 330 331 329 326 324 322 322 324 322 321 322 321 321
304 305 307 307 308 309 310 310 310 310 310 310 311 313 314 315 306 304 306 316 318 319 321 323 325 329 326 335 323 314 315 313 320 329 326 326 325 324 322 320 322 324 323
302 303 305 306 307 308 307 307 307 307 307 308 308 310 311 312 305 303 304 315 316 318 321 323 324 326 329 331 336 332 329 327 326 329 332 329 331 327 327 326 326 324 324
301 302 303 305 306 306 306 306 305 305 305 306 308 309 310 311 303 301 304 315 317 320 323 325 326 328 317 306 331 331 328 324 314 309 311 308 307 308 317 326 323 323 322
300 301 302 304 304 305 306 306 305 306 306 307 308 308 307 309 302 301 304 313 317 320 323 325 309 317 307 301 327 330 324 324 321 320 319 313 311 310 307 331 326 323 321
301 301 301 303 303 305 306 306 305 304 306 306 307 307 308 309 310 301 301 311 316 319 321 323 327 306 302 298 306 329 325 322 317 324 325 323 320 319 323 327 329 328 323
299 300 300 302 303 304 305 305 305 304 304 304 304 305 308 311 302 302 299 298 308 317 319 323 326 304 298 297 306 304 301 312 323 321 322 322 321 323 325 327 327 328 328
299 299 300 302 303 304 304 304 303 303 303 303 304 305 306 310 312 300 298 298 298 306 314 314 302 298 296 302 299 299 304 322 320 321 322 322 324 325 326 326 327 327 328
298 298 299 300 301 303 304 303 303 302 303 304 305 305 307 308 311 314 313 309 302 305 307 312 308 304 304 309 307 309 322 322 322 323 322 323 323 323 324 325 325 325 325
296 297 298 300 300 301 302 303 304 305 304 305 305 307 306 307 310 308 310 317 318 313 312 312 314 315 313 316 317 317 321 321 323 322 322 322 322 323 323 324 323 323 323
296 297 298 300 301 301 302 303 296 299 298 297 298 305 310 303 300 297 296 296 296 297 313 315 315 319 319 318 317 318 321 318 323 324 324 324 322 321 322 321 321 323 321
296 298 298 298 299 300 301 301 301 301 295 294 294 294 294 298 295 295 294 293 293 296 317 318 317 320 321 320 320 320 320 323 324 324 325 324 320 322 320 320 321 321 319
298 297 300 301 302 303 304 304 305 304 304 305 297 297 293 293 293 292 293 294 307 301 316 320 319 319 321 320 321 321 322 321 323 324 324 321 322 321 320 320 319 319 319
300 300 301 302 303 304 306 306 306 306 306 305 306 297 296 292 292 292 292 308 312 312 316 319 319 318 320 320 320 320 320 320 321 322 321 320 321 319 317 318 315 305 309
301 298 300 304 304 305 305 305 306 305 305 305 305 307 305 299 301 301 302 308 315 318 318 318 318 319 320 321 322 322 319 320 321 322 322 323 323 321 317 315 316 318 319
303 302 299 305 305 304 305 305 304 304 306 306 307 306 295 307 308 307 307 313 319 318 318 319 319 320 321 322 322 322 322 322 323 323 322 322 320 317 317 318 319 319 319
305 305 304 304 305 306 307 306 306 308 309 309 309 305 289 306 309 310 314 318 319 319 319 319 321 321 322 322 323 323 323 323 322 322 322 320 319 321 321 320 319 318 316
304 305 306 305 306 303 307 307 309 310 310 311 310 309 304 312 316 316 315 315 317 316 319 321 320 321 322 323 324 324 320 321 322 324 320 320 317 317 317 316 313 309 307
305 306 304 305 307 306 307 310 311 304 310 309 310 310 312 312 311 310 309 309 312 315 318 320 321 320 318 319 318 319 320 321 322 320 318 313 307 309 311 308 301 297 295
312 311 311 310 310 310 311 311 310 310 309 310 310 308 308 306 304 304 306 310 310 310 311 313 314 315 315 314 315 313 297 295 311 302 310 307 305 303 302 301 298 296 295
308 308 308 308 307 307 306 306 306 305 304 304 304 303 303 302 302 304 306 305 304 304 303 303 304 305 305 306 307 293 290 291 296 293 304 301 296 295 296 295 294 293 292

GFSGL_sfc_thetae_075.txt.gz
Theta_e
326 327 327 326 327 329 329 330 330 331 330 330 331 334 333 334 338 339 339 338 337 338 339 338 336 339 336 338 337 332 329 329 324 333 338 342 342 342 342 340 340 343 334
321 322 323 325 325 326 326 326 327 326 327 327 328 328 329 330 335 334 332 332 332 332 331 334 333 334 338 341 338 334 330 330 330 332 336 339 338 340 339 339 340 340 340
316 317 320 321 323 325 325 326 325 325 325 325 325 327 328 328 330 332 331 330 331 331 330 331 333 335 336 338 340 338 333 332 331 329 330 335 335 334 336 338 338 337 334
315 317 318 319 320 322 323 323 323 323 323 324 325 325 326 328 327 328 329 329 330 329 331 333 331 332 335 337 339 339 337 333 334 332 332 333 332 333 333 334 332 332 333
313 315 318 321 321 320 320 321 322 323 324 324 325 326 327 328 326 329 330 330 330 329 331 331 331 329 325 328 334 340 341 335 334 333 332 331 328 327 329 335 332 334 333
309 312 313 315 317 319 319 320 322 323 325 325 325 326 326 322 309 311 317 323 323 325 328 330 330 326 325 316 316 316 328 338 338 338 335 331 331 330 332 333 332 328 327
306 307 308 312 313 315 317 318 321 323 325 325 324 322 322 322 307 306 307 320 321 323 324 327 327 324 326 331 322 315 315 311 317 341 338 333 332 334 334 333 332 331 330
306 306 307 308 310 314 315 317 320 322 322 320 320 320 320 319 305 303 304 319 319 320 323 326 328 330 330 329 332 335 339 338 327 327 338 338 337 339 336 336 335 334 332
304 306 307 307 308 310 313 317 319 319 319 318 318 318 318 318 302 300 306 316 315 317 320 324 327 330 316 304 328 333 335 335 315 311 312 309 309 312 323 333 330 329 326
305 305 307 308 308 309 312 313 317 317 317 315 316 317 312 317 302 299 306 313 314 315 319 324 310 320 307 301 324 330 333 334 325 327 327 317 314 315 308 337 334 328 328
305 305 306 307 308 310 313 314 315 314 314 315 314 316 317 315 315 298 298 314 313 314 315 320 323 304 299 298 300 326 331 334 322 334 330 323 326 327 331 335 337 333 328
304 304 305 307 307 306 311 312 312 313 312 313 313 313 313 316 303 300 298 298 307 316 316 320 325 303 299 300 302 303 302 313 333 329 327 325 324 327 332 334 336 336 337
302 304 304 306 305 306 307 308 307 311 309 309 308 309 310 312 315 298 297 296 297 306 316 314 300 300 299 302 296 299 300 329 330 328 325 326 328 332 334 334 336 336 336
299 302 303 303 304 305 305 306 307 308 308 308 308 308 309 311 312 313 314 314 301 304 308 313 310 306 303 311 309 306 328 331 330 330 328 329 331 330 331 332 330 331 331
297 298 301 301 301 303 305 307 307 312 309 308 309 309 309 309 310 306 307 313 315 313 316 319 316 318 318 318 320 320 326 327 328 329 328 328 328 329 328 331 330 329 328
295 297 298 299 299 300 303 305 297 299 298 297 299 306 310 302 299 298 298 296 295 297 314 318 317 320 319 319 320 320 324 320 328 329 330 328 327 328 326 328 327 328 326
295 297 298 297 299 300 303 303 303 301 295 295 295 297 297 300 296 294 294 293 293 295 315 318 317 318 321 321 321 321 321 326 328 329 329 328 329 327 324 324 326 325 325
296 295 298 298 299 301 303 304 305 305 304 306 296 297 293 293 292 293 293 294 310 301 317 316 317 320 321 324 325 325 325 325 327 327 329 329 329 327 323 325 326 325 326
297 299 301 300 301 302 305 305 305 306 306 307 309 297 298 294 293 291 291 306 315 317 315 316 319 323 321 325 327 326 325 325 328 329 329 329 326 322 324 326 325 309 313
300 296 298 303 304 304 305 305 306 307 307 308 308 309 311 300 302 303 302 307 312 317 318 318 320 321 322 324 324 323 324 322 326 326 328 328 324 323 320 319 321 320 321
302 302 298 304 305 305 306 306 308 307 308 307 308 309 297 307 311 311 313 313 314 316 318 320 320 321 323 325 326 325 324 324 325 326 323 325 328 321 325 324 324 325 325
305 305 305 305 306 305 307 308 308 306 305 308 309 307 290 306 312 312 313 315 315 317 322 321 321 324 326 328 329 330 330 329 330 328 329 329 328 324 322 323 325 326 324
306 306 307 306 306 302 308 309 306 306 310 311 311 312 307 307 308 312 312 315 319 321 321 322 323 326 329 331 332 331 329 329 330 331 328 327 324 324 326 324 323 322 321
305 305 306 307 308 310 311 309 309 302 311 313 314 314 315 315 313 315 317 319 318 319 323 323 326 328 329 330 330 330 331 331 331 329 326 327 324 319 325 323 320 312 305
310 307 305 305 306 308 310 311 311 314 313 315 316 314 309 308 308 309 312 314 317 321 324 326 329 329 328 326 328 328 303 297 321 307 319 320 321 324 318 311 305 304 305
306 306 306 307 307 309 309 309 310 312 313 314 312 311 309 306 306 308 310 314 318 321 323 325 323 320 316 314 316 298 292 294 305 299 317 318 317 315 313 310 308 305 303

GFSGL_sfc_thetae_078.txt.gz
Theta_e
329 338 345 347 347 345 343 340 340 343 341 340 341 343 345 346 348 349 348 346 346 346 346 344 343 345 346 339 339 337 336 337 330 330 333 344 345 346 350 348 345 344 338
328 333 338 338 337 335 333 334 336 336 335 333 333 334 335 336 339 340 340 339 340 340 340 338 336 335 339 340 335 339 338 339 334 330 334 336 338 342 344 344 341 343 344
326 328 330 330 330 331 331 332 331 329 328 327 327 327 327 329 333 334 331 331 332 331 331 331 331 333 335 334 336 335 335 340 339 334 334 336 338 336 336 339 342 342 340
320 322 324 326 328 328 329 329 328 327 326 326 327 326 326 327 329 330 329 331 331 330 330 331 329 329 331 333 335 337 338 339 339 337 335 332 335 337 336 333 335 338 338
314 317 321 324 324 326 328 328 327 326 325 325 325 325 325 326 325 327 328 329 331 330 331 329 330 327 322 324 326 332 336 336 337 335 332 332 334 331 328 333 334 342 337
309 312 313 319 323 324 325 326 326 325 325 324 324 323 325 323 311 316 325 330 330 329 326 325 327 325 324 316 315 316 324 334 335 334 332 334 339 337 331 337 338 334 332
309 309 313 313 315 321 323 324 325 326 330 328 326 326 327 327 307 308 310 327 325 325 325 324 323 319 321 325 317 313 313 310 317 337 338 338 334 337 338 336 338 336 337
310 307 308 311 312 315 320 323 327 327 330 330 330 329 329 326 304 303 306 323 323 324 324 324 325 325 326 326 327 328 328 333 338 332 334 341 341 345 342 336 341 341 339
309 308 308 308 309 311 317 321 324 327 329 330 328 328 327 325 302 301 308 320 321 322 322 323 324 323 311 304 329 328 326 330 320 312 311 308 309 309 326 336 336 334 329
308 309 310 310 310 310 313 320 323 325 326 325 326 326 318 324 300 299 306 316 318 318 322 323 308 316 306 304 328 329 325 328 335 337 329 320 318 324 310 340 338 329 331
306 308 311 312 312 315 318 319 321 321 322 324 323 324 324 321 319 299 298 316 316 316 317 318 319 303 298 297 299 328 326 326 329 332 336 337 333 329 335 337 344 336 334
303 304 306 311 311 311 315 316 317 320 319 320 320 319 320 322 307 300 298 299 308 316 316 317 318 300 300 299 305 306 300 304 334 338 336 331 326 329 333 337 338 341 343
301 302 304 308 310 311 313 313 313 317 314 314 314 315 316 317 320 300 298 297 297 310 315 310 303 298 297 306 301 297 297 324 333 334 332 331 332 333 337 334 339 340 339
297 299 302 304 306 310 310 311 311 312 313 313 314 313 314 315 316 318 316 313 300 306 308 312 310 306 298 306 312 317 321 331 333 334 334 332 334 332 333 331 334 336 335
295 297 300 302 304 304 308 310 310 315 311 312 314 314 314 314 315 310 311 317 318 311 314 318 316 319 321 322 324 326 328 331 331 334 333 330 330 331 329 334 334 332 330
294 296 298 300 301 303 304 307 299 298 297 297 297 307 314 302 298 298 299 298 297 293 312 316 317 320 320 319 322 324 327 324 330 331 331 330 329 327 328 332 333 333 330
295 296 298 298 299 301 303 303 304 302 296 295 297 297 298 299 296 296 294 293 293 297 313 314 317 318 319 320 322 323 324 327 331 331 331 331 330 326 326 329 329 329 326
297 296 299 298 299 300 302 303 304 306 305 308 296 299 295 293 293 293 293 295 309 303 315 316 316 319 320 321 322 324 323 325 329 331 332 333 329 330 328 327 328 325 328
297 298 299 300 300 301 303 302 303 305 306 308 309 298 298 292 292 292 293 311 312 313 315 317 319 320 320 322 324 325 324 327 328 329 332 331 330 331 329 329 326 310 316
299 296 298 303 302 301 302 301 304 307 307 307 308 307 310 305 305 306 305 309 312 314 315 317 319 320 320 322 325 325 326 327 329 330 332 332 331 332 329 326 324 326 326
303 301 297 303 302 302 302 304 305 306 305 306 308 309 298 311 309 311 312 312 313 315 316 318 320 321 322 324 324 326 328 328 331 330 331 331 330 324 324 327 322 325 325
304 305 305 305 305 304 305 307 307 307 309 309 310 306 290 313 313 313 313 314 315 316 318 319 319 321 324 324 324 329 326 326 329 331 332 331 327 324 326 324 326 326 325
307 305 306 305 306 302 306 309 307 309 309 310 309 311 312 310 311 314 315 317 318 318 318 319 321 324 324 326 331 333 331 330 330 333 330 325 326 327 327 326 327 326 323
307 309 308 307 307 307 308 310 309 304 310 311 314 313 313 316 316 316 318 320 319 319 321 324 325 323 326 327 332 335 336 337 336 334 332 332 330 323 327 327 325 324 322
305 306 307 309 310 310 309 309 309 309 311 313 315 317 318 318 319 318 319 320 323 324 324 322 324 325 327 330 333 331 309 298 328 316 331 329 328 328 326 325 320 317 314
301 304 305 306 308 312 313 313 313 312 313 315 315 314 316 313 312 311 316 320 320 321 321 325 326 327 330 332 327 302 297 297 316 301 329 330 328 326 324 321 317 313 310

GFSGL_sfc_thetae_081.txt.gz
Theta_e
327 329 332 343 347 350 350 352 354 355 356 350 353 355 352 353 354 354 354 350 349 350 349 345 342 347 343 343 347 348 345 340 334 336 340 342 344 340 343 342 344 349 338
324 327 330 338 346 348 349 347 346 343 343 348 347 347 345 345 351 348 346 345 343 344 345 345 342 344 346 346 340 346 339 340 334 334 338 338 343 343 339 338 345 349 344
322 324 328 331 342 344 345 341 341 345 343 340 339 338 337 338 340 342 342 340 342 343 342 342 340 341 342 338 341 336 335 338 338 334 334 339 339 343 339 339 338 342 341
318 322 324 325 331 335 335 339 336 337 336 334 335 331 331 331 334 335 335 336 336 337 338 336 333 333 335 338 337 341 338 336 334 332 335 335 337 341 340 335 335 340 336
315 317 320 319 328 331 331 332 334 332 330 328 327 326 329 330 329 333 333 334 337 335 335 330 332 327 322 324 326 333 338 332 328 329 328 330 332 339 335 338 330 340 341
313 314 317 317 316 325 330 331 331 329 330 328 328 325 330 323 310 314 329 335 334 332 332 331 330 323 322 317 315 315 324 334 333 328 327 328 337 336 343 329 330 331 331
312 313 314 315 316 316 323 327 329 333 333 331 330 329 330 332 307 309 316 334 335 335 332 329 324 320 319 322 315 312 313 311 315 334 336 336 337 342 339 334 329 329 329
310 312 313 314 314 316 317 321 330 334 335 334 330 330 330 328 305 307 313 336 334 332 331 328 328 326 326 324 324 325 329 333 335 329 332 340 345 347 345 340 332 331 336
306 310 312 313 313 313 315 316 318 331 333 333 333 331 333 325 302 303 314 330 328 326 325 326 326 325 310 302 323 325 328 333 322 313 312 306 306 307 316 337 327 325 328
306 308 310 312 313 313 313 315 320 323 329 327 331 334 326 323 300 301 312 319 326 321 327 326 309 317 306 302 323 324 324 330 329 332 338 328 317 326 311 339 331 327 330
304 307 308 310 313 315 318 315 315 319 324 328 330 334 333 330 312 299 300 321 318 319 319 320 322 302 299 295 298 327 326 323 323 329 333 338 337 340 337 334 334 334 328
302 303 306 306 309 312 317 317 314 315 316 318 325 329 328 331 311 299 298 299 311 321 320 319 320 299 300 297 303 308 301 305 324 327 335 332 335 335 334 336 342 341 339
298 301 301 304 309 309 316 315 314 313 313 316 319 321 322 324 324 302 298 298 298 313 318 310 299 298 296 298 296 295 294 324 324 327 334 335 334 333 336 339 341 334 334
295 296 298 300 304 307 310 315 314 315 313 314 315 318 321 321 323 319 314 311 299 306 307 313 309 305 298 302 308 314 324 325 324 328 336 338 335 333 333 335 333 334 335
295 295 296 299 303 305 307 312 315 319 315 319 318 320 321 320 321 315 315 317 317 312 313 318 319 318 316 316 317 320 322 323 325 329 336 334 333 331 331 332 333 335 331
295 295 296 299 301 303 304 306 300 301 299 298 299 308 316 309 304 300 300 298 295 296 313 316 315 315 316 317 319 320 322 320 325 330 334 334 332 330 331 333 332 332 330
296 296 296 298 300 302 302 303 304 305 298 298 295 298 298 298 295 296 298 295 292 297 311 311 311 313 315 318 319 319 320 324 326 329 333 332 330 333 325 328 330 331 329
297 295 298 298 301 301 302 304 304 305 306 307 296 298 296 296 295 295 293 298 309 306 312 311 312 313 315 317 319 319 321 323 325 328 332 331 332 330 329 328 330 329 329
298 299 299 299 301 302 302 303 303 303 305 307 310 300 297 291 291 291 292 312 311 311 312 311 313 315 317 320 321 321 322 323 326 327 331 332 332 332 329 328 331 313 317
299 295 297 300 301 300 302 301 302 302 302 306 308 310 311 304 306 308 310 311 312 311 313 314 315 316 319 320 320 321 321 325 325 327 331 331 334 330 325 328 328 327 326
302 301 296 301 301 302 301 301 302 302 304 306 308 309 301 310 308 309 309 310 310 311 314 316 316 318 318 320 321 320 324 325 325 329 331 332 331 328 327 329 330 328 325
303 301 301 303 305 303 301 303 303 303 304 305 308 307 291 311 311 310 310 312 312 313 315 316 316 319 320 321 320 321 326 324 328 329 331 331 330 328 329 326 326 325 322
307 306 306 305 305 300 304 305 306 305 306 307 308 309 309 311 311 312 313 315 317 317 316 317 318 318 322 322 323 325 324 326 331 334 333 330 331 327 325 323 325 322 321
305 307 306 306 306 307 307 307 307 303 309 310 311 311 310 314 314 315 316 316 318 317 318 319 319 318 321 325 328 327 328 332 333 334 333 329 324 320 324 322 325 325 322
302 306 308 309 309 307 309 308 311 311 311 311 311 313 314 315 315 316 316 318 318 318 320 320 320 321 323 325 325 326 319 297 326 318 334 329 327 327 325 326 326 321 319
293 295 299 301 303 309 311 310 311 311 311 313 317 318 318 318 319 320 320 321 320 319 321 323 326 326 326 327 327 314 296 294 307 304 327 330 329 330 325 323 323 320 318

GFSGL_sfc_thetae_084.txt.gz
Theta_e
319 323 326 325 330 330 336 341 344 344 346 346 349 350 348 350 349 348 347 348 345 345 345 344 342 345 339 339 339 340 339 339 333 332 335 339 337 337 341 340 340 337 330
317 320 323 323 329 331 334 339 342 342 344 346 333 337 346 342 337 341 342 345 344 345 344 344 342 341 341 342 341 339 337 337 333 329 332 333 337 339 338 335 337 342 337
316 316 321 321 325 327 331 337 342 342 344 333 328 325 322 324 325 329 339 343 343 345 344 343 342 342 340 340 336 335 336 335 332 330 328 333 334 336 336 336 335 336 338
314 312 318 320 324 322 328 334 338 340 335 323 323 323 324 320 320 331 340 341 340 341 342 340 339 338 336 336 335 334 334 332 330 328 329 329 330 332 335 331 330 333 333
309 310 314 320 322 322 323 328 334 326 324 328 322 323 331 321 330 334 334 334 337 337 338 337 337 329 322 323 328 328 326 323 326 325 325 327 327 326 328 329 328 329 331
307 308 311 315 318 319 320 320 317 321 319 323 329 322 322 333 316 316 327 332 334 332 330 331 327 321 319 315 314 314 319 324 322 322 321 320 323 327 328 328 327 324 320
304 307 309 310 313 317 317 317 317 318 325 328 326 326 326 325 310 310 318 331 332 331 330 331 324 324 322 327 314 311 311 309 314 325 323 324 327 329 330 329 328 326 324
301 304 306 309 309 314 316 316 317 316 320 329 328 327 327 324 306 307 314 332 332 333 331 329 326 325 323 323 323 323 325 327 323 320 321 324 327 334 333 331 327 328 327
302 302 304 308 308 310 315 316 318 314 315 330 331 330 328 316 302 306 319 331 328 328 328 328 328 326 305 305 321 320 321 324 323 314 307 306 305 307 313 328 328 322 321
301 302 304 307 307 307 314 315 315 315 314 321 331 330 320 320 300 304 320 325 325 324 326 327 309 319 307 303 319 321 320 322 326 327 326 322 311 320 306 327 331 322 322
299 303 303 304 305 310 308 318 313 314 315 317 324 331 326 318 309 300 307 322 322 321 321 323 323 304 299 299 299 318 319 320 322 325 322 323 330 336 334 328 333 328 324
297 298 301 303 304 307 307 313 316 312 311 312 319 322 326 318 307 299 299 307 310 319 319 321 314 299 299 295 298 306 298 303 322 321 320 323 331 333 335 334 331 335 333
296 295 296 301 302 304 305 307 313 313 310 310 315 319 323 318 312 301 298 298 299 317 319 301 298 294 296 298 296 295 293 311 318 320 319 324 332 334 332 331 333 335 331
295 295 296 297 301 304 303 307 310 312 312 312 313 315 319 319 314 309 306 304 300 305 307 313 308 304 299 303 303 303 312 320 320 320 320 329 334 332 330 331 329 329 326
297 295 295 296 298 300 302 304 309 314 313 312 313 314 313 316 317 310 309 311 312 309 312 315 314 314 313 315 316 315 315 317 319 321 321 325 331 330 328 330 329 327 325
296 295 295 296 296 298 301 303 299 298 298 301 302 310 315 307 305 303 301 304 304 300 310 312 312 315 316 316 316 318 320 317 321 323 324 328 330 328 327 329 328 327 324
296 295 295 296 297 298 301 303 304 301 296 296 297 296 299 306 300 300 299 299 298 298 311 312 315 316 314 314 316 317 316 319 323 322 322 325 329 328 319 326 326 325 324
297 295 297 296 299 300 300 304 304 305 304 307 298 299 298 298 298 297 295 298 302 302 313 314 312 312 312 311 313 314 317 318 323 322 324 326 328 327 325 324 325 325 325
299 298 299 299 299 300 301 303 304 305 305 304 308 298 295 294 293 292 292 312 309 309 312 313 312 311 312 313 313 315 317 319 321 323 324 325 328 327 325 325 324 311 314
301 295 297 300 300 301 301 302 303 303 303 303 303 306 301 302 306 307 307 310 313 312 313 312 311 311 311 312 315 315 316 318 323 325 325 325 328 327 325 324 323 322 321
302 302 296 301 301 301 301 301 302 302 302 301 302 304 289 306 307 308 308 309 310 311 313 313 312 312 314 314 314 316 317 319 322 326 325 325 327 326 325 325 324 324 323
304 302 302 303 301 301 302 303 302 302 302 303 302 303 291 306 310 310 310 310 311 312 313 313 311 312 315 316 316 316 319 322 326 325 326 327 327 326 325 324 323 323 321
305 306 306 304 304 299 301 302 302 302 302 302 305 306 306 306 308 310 311 311 312 312 312 312 312 313 315 317 320 320 319 322 326 327 326 326 326 325 325 323 323 322 321
296 302 306 307 306 304 305 304 304 299 303 303 305 305 307 308 310 311 311 313 312 313 314 313 313 315 316 317 319 323 327 328 328 328 329 327 326 318 324 322 322 320 318
290 292 294 298 301 306 307 307 308 309 307 307 309 310 310 312 311 311 312 313 316 315 317 317 316 316 316 318 322 325 314 297 317 310 328 327 324 322 322 322 321 318 315
287 287 288 291 292 295 298 301 309 311 310 310 311 312 312 313 314 315 316 316 315 316 318 319 320 321 319 321 321 311 297 292 304 294 323 327 323 323 322 322 321 318 315

GFSGL_sfc_thetae_087.txt.gz
Theta_e
308 308 310 312 317 317 320 324 325 327 333 338 341 341 340 339 341 342 343 342 342 341 343 341 340 339 335 336 335 332 331 330 326 327 330 331 331 330 333 333 335 332 332
308 308 308 312 314 313 319 321 322 324 328 333 339 339 338 336 325 324 333 340 330 338 340 340 339 340 335 335 334 332 333 332 329 327 325 327 329 331 332 330 332 336 334
307 307 307 307 311 312 316 316 318 323 327 332 335 330 326 331 323 324 323 323 324 321 332 336 336 337 333 334 334 333 331 330 328 325 323 326 328 329 329 328 329 329 333
305 306 305 305 306 311 315 315 317 318 319 326 324 322 321 322 323 325 323 322 320 320 324 331 333 334 333 333 331 329 328 326 324 323 321 322 323 324 327 326 324 327 326
303 303 302 305 306 307 310 315 316 317 320 324 321 319 318 319 322 322 321 321 319 320 326 332 334 332 329 329 330 324 317 315 317 317 316 317 318 319 320 323 322 326 324
301 301 302 302 304 305 307 312 313 315 317 322 319 321 316 322 311 311 320 326 330 331 330 331 326 323 319 316 316 313 313 313 311 311 310 310 311 317 320 321 319 317 315
300 300 300 302 302 303 305 308 312 311 312 315 316 322 317 319 307 307 313 328 329 329 330 321 320 320 317 315 310 310 310 310 312 314 312 313 315 320 322 320 320 319 317
298 299 301 301 301 302 303 306 311 310 311 313 314 320 319 323 306 307 307 323 327 326 323 320 317 316 317 319 316 316 316 317 315 313 314 316 318 319 323 325 323 321 321
296 298 299 300 300 301 302 303 308 311 313 312 315 317 318 320 308 303 308 324 325 323 323 320 318 316 304 306 313 311 312 313 316 313 309 306 305 308 313 324 321 317 314
294 296 298 299 300 300 301 303 308 312 313 315 315 316 318 321 305 304 314 325 321 320 319 317 311 313 300 304 311 311 310 312 315 318 316 309 306 312 305 320 324 322 315
295 295 297 298 298 301 301 302 303 309 312 313 313 314 316 315 308 306 311 322 320 318 317 314 313 303 298 299 305 312 310 313 313 315 315 314 316 321 326 320 326 327 318
296 296 296 296 298 300 300 300 303 307 306 310 311 311 315 314 305 300 308 310 313 317 316 316 313 302 298 297 297 301 296 300 312 313 312 311 314 320 327 327 327 327 325
297 295 296 297 296 298 300 299 302 305 305 308 310 309 312 317 311 302 303 305 306 313 314 311 297 295 295 294 295 295 297 305 308 309 309 310 316 323 326 328 325 325 325
296 297 296 296 296 296 299 301 301 301 309 306 309 308 310 316 312 309 303 303 303 304 303 302 301 301 300 303 299 296 305 307 307 308 311 313 321 324 323 323 322 322 320
297 297 297 296 296 295 298 300 300 305 305 309 308 310 308 314 314 308 306 306 305 305 306 305 304 304 303 304 306 307 307 307 309 312 313 314 317 321 322 324 322 321 318
296 296 296 295 296 296 296 298 297 297 296 296 297 306 311 308 303 301 304 303 300 299 304 303 303 304 305 305 307 309 310 308 308 310 314 315 319 321 322 322 322 321 318
296 296 296 295 296 295 295 296 298 300 296 295 296 298 301 306 301 301 300 302 298 298 303 304 304 306 308 310 309 308 308 310 312 314 314 317 319 320 317 320 321 321 320
298 295 296 296 296 298 298 298 299 302 299 299 298 297 298 299 299 299 301 300 308 301 305 304 306 309 309 307 305 305 306 308 310 313 315 317 318 319 320 320 321 320 318
299 299 299 299 298 299 300 300 301 302 302 302 301 297 294 294 294 296 296 311 310 309 308 308 308 307 306 305 305 306 306 307 309 313 315 317 318 319 318 320 319 307 311
301 295 297 299 299 299 301 300 301 299 302 302 302 302 300 300 305 299 299 308 311 311 310 309 308 306 306 306 306 307 307 307 308 313 316 318 319 320 319 319 318 318 317
302 301 297 300 300 298 299 300 299 299 298 298 301 301 289 299 302 306 304 306 305 307 309 307 306 306 306 306 305 306 306 308 309 315 317 318 318 319 320 320 320 320 319
297 304 303 302 301 299 300 301 297 300 299 299 299 301 288 301 301 305 306 308 308 307 307 308 306 306 307 307 307 307 307 308 310 317 319 319 319 319 320 320 319 318 316
292 294 297 302 303 298 299 301 300 300 301 301 299 301 302 301 301 303 306 306 307 308 308 307 307 306 306 307 307 309 309 311 315 320 319 318 319 320 320 317 319 319 317
288 289 291 292 294 297 303 302 302 298 301 298 300 302 303 303 303 304 303 305 305 306 307 307 307 307 306 307 309 310 311 317 321 322 320 319 320 314 319 318 320 319 319
286 286 287 287 289 290 292 294 299 305 305 304 304 303 303 303 303 304 304 306 305 307 306 306 308 308 307 307 309 310 305 294 315 308 321 321 320 320 321 319 320 319 315
285 284 284 285 285 286 288 289 290 293 296 303 306 306 306 305 305 306 307 306 307 308 310 310 310 309 309 310 310 303 294 293 301 295 318 321 320 321 322 320 319 317 315

GFSGL_sfc_thetae_090.txt.gz
Theta_e
304 304 304 305 307 310 312 314 319 320 318 319 320 322 326 332 334 329 325 327 329 334 338 339 338 337 336 334 332 330 327 325 323 324 328 330 329 330 332 333 333 330 329
304 304 303 304 304 305 309 312 317 316 317 318 322 321 325 329 332 333 333 335 334 333 320 321 320 324 321 335 334 330 329 329 326 323 326 326 327 328 328 328 330 333 332
302 303 303 303 302 303 305 309 313 315 318 315 317 318 320 324 330 325 326 325 325 324 322 322 321 322 319 322 333 330 328 330 329 326 324 324 326 326 326 326 327 326 330
301 301 301 302 303 304 305 306 309 314 315 315 317 318 321 324 329 327 323 323 323 321 322 320 324 322 322 326 325 331 330 329 325 325 322 322 321 320 324 322 322 324 324
299 299 299 300 302 303 303 305 308 309 315 316 317 320 322 323 326 323 322 322 321 322 321 321 323 322 321 321 330 329 327 322 320 320 316 315 316 316 317 319 320 319 321
297 298 299 300 301 302 302 303 305 306 311 314 316 319 319 320 312 312 320 323 324 323 320 320 322 319 318 317 318 319 322 318 314 312 310 309 308 312 317 318 317 315 313
295 296 298 298 298 299 300 301 303 305 307 310 312 314 320 317 307 306 310 320 319 319 318 319 322 325 323 327 313 313 311 310 312 309 307 307 309 313 317 316 317 315 315
295 295 296 296 297 300 299 299 300 305 309 308 309 312 318 319 307 305 306 325 324 324 323 324 325 322 323 321 315 313 314 313 312 315 313 313 316 317 319 319 319 318 318
294 295 296 296 296 298 299 299 299 302 307 308 311 311 315 315 307 304 305 318 324 325 326 325 322 319 305 304 316 313 311 312 314 308 307 304 303 305 313 321 319 317 313
295 296 296 296 296 296 298 300 298 302 309 311 311 313 312 313 305 304 306 315 319 323 321 319 309 314 301 302 311 310 307 309 315 316 314 310 307 309 304 319 319 321 320
297 297 297 297 296 297 297 298 299 302 306 308 309 311 313 314 313 300 303 316 321 320 317 316 313 300 300 300 303 309 307 311 314 315 312 310 311 312 315 315 321 327 322
297 297 297 298 298 299 297 298 300 300 302 305 307 309 313 312 306 304 301 308 313 319 316 317 310 298 298 298 303 297 297 307 311 310 309 307 309 310 315 324 325 327 326
296 298 298 299 298 298 296 296 299 301 302 305 308 307 310 310 311 301 300 301 304 317 317 310 299 296 295 296 295 294 298 308 308 307 305 304 308 313 319 322 323 323 323
296 297 298 298 297 297 297 297 299 300 300 305 308 308 309 311 311 308 310 310 305 310 304 302 301 300 299 298 299 298 304 304 304 303 304 307 312 319 320 323 321 320 318
297 296 296 297 296 296 297 297 300 301 300 304 307 310 307 308 313 305 308 314 312 306 304 304 304 303 302 302 302 302 302 303 305 307 309 310 313 314 317 320 319 318 315
296 296 296 295 296 296 296 296 297 295 296 295 296 305 311 304 299 300 300 299 297 299 303 304 301 301 302 302 303 304 307 306 306 307 309 310 311 315 317 319 321 318 314
297 297 296 296 296 296 296 295 295 298 295 294 293 296 300 301 297 296 296 295 295 300 303 301 302 303 303 304 304 306 306 307 309 309 309 310 313 316 314 317 318 317 316
295 297 298 298 297 297 297 299 295 295 299 299 295 293 296 296 297 296 295 300 306 303 303 304 304 304 304 305 306 306 305 304 305 307 310 311 314 315 315 316 316 316 315
295 300 298 299 298 299 300 300 298 300 299 299 298 297 295 293 294 295 296 312 309 308 306 306 305 305 306 306 305 304 304 304 304 306 308 312 314 315 314 315 314 304 308
296 296 297 300 300 299 300 300 301 299 298 301 298 298 300 301 302 300 303 309 310 308 309 307 307 306 306 304 304 304 305 304 304 305 307 311 313 315 314 314 315 315 315
292 295 294 301 301 299 298 299 300 299 297 300 298 298 290 299 302 303 303 303 304 309 308 308 308 307 305 305 304 303 303 304 304 305 309 312 314 314 315 316 316 316 317
289 291 293 295 296 300 300 301 296 295 295 297 300 299 289 301 300 301 305 305 308 306 307 308 308 308 307 306 305 304 304 304 304 306 309 312 314 315 315 316 315 315 316
287 287 288 290 290 292 294 299 300 300 298 296 296 298 299 298 299 299 303 305 308 306 305 306 305 304 305 305 305 306 305 306 307 308 310 312 314 315 316 315 315 314 316
285 285 285 286 287 287 289 290 293 293 299 299 297 297 298 299 299 300 301 302 303 306 305 306 306 305 305 305 305 305 306 307 309 310 312 314 315 311 315 314 315 315 315
284 284 283 283 284 284 285 286 288 290 292 294 301 301 301 301 302 302 302 301 302 303 304 304 306 307 305 305 305 306 300 292 303 301 315 316 315 315 315 315 315 317 317
284 283 282 282 282 282 282 283 284 286 287 290 291 294 299 303 303 303 302 304 302 303 304 305 305 305 305 306 306 299 292 292 296 290 313 318 316 315 316 316 317 319 318

GFSGL_sfc_thetae_093.txt.gz
Theta_e
300 301 301 302 302 303 305 308 309 311 316 319 318 318 318 320 322 325 328 331 331 330 329 327 327 326 327 332 335 331 329 327 323 323 326 327 329 330 331 334 332 330 328
300 300 300 301 301 302 303 305 307 309 311 314 317 318 320 320 321 323 324 328 328 327 326 325 327 326 322 323 327 329 329 328 325 323 325 325 326 327 328 328 330 331 329
300 300 300 299 300 300 301 303 305 307 309 312 316 315 315 317 318 319 323 325 328 326 326 326 328 323 320 322 322 321 324 330 328 326 324 324 325 324 324 325 325 325 328
298 297 296 296 298 300 300 300 301 306 307 309 312 316 317 316 317 319 320 324 325 328 330 326 325 323 323 323 324 323 324 324 327 327 323 321 322 321 322 321 319 322 324
296 296 296 296 296 298 299 299 301 303 304 306 308 312 315 315 318 319 320 322 324 324 325 326 326 326 325 325 325 322 322 320 321 324 322 319 317 316 318 318 319 317 318
295 295 296 296 296 297 299 299 300 300 301 303 305 307 310 314 312 310 314 321 324 323 322 322 323 321 318 316 318 318 322 323 324 324 321 316 315 315 316 317 315 314 313
295 296 296 297 296 296 297 297 299 300 300 301 303 307 310 311 308 305 307 315 321 321 321 321 321 322 317 319 313 312 314 315 320 323 318 313 310 311 316 314 314 313 313
295 295 296 297 297 297 296 296 298 299 298 299 301 307 310 311 305 302 303 312 319 318 320 320 319 320 319 319 320 320 321 319 319 317 318 313 312 314 317 317 316 315 315
295 295 297 297 297 297 296 296 297 298 299 301 303 305 307 310 305 300 304 314 316 317 317 318 320 321 310 307 318 316 315 315 311 308 307 305 303 305 313 323 319 319 318
295 296 297 298 298 297 297 296 297 298 300 300 302 308 308 309 304 300 306 313 315 315 321 321 311 317 302 304 316 314 312 314 316 313 311 306 305 306 313 317 316 314 314
295 296 297 299 299 299 298 297 297 297 298 300 302 305 309 309 310 301 303 311 314 315 319 316 314 302 301 303 306 312 309 312 311 315 314 313 313 311 309 312 320 318 317
295 296 297 298 300 301 299 298 297 297 298 298 299 303 307 308 305 303 300 300 308 315 317 316 307 299 299 300 302 297 301 309 312 309 308 307 307 309 311 314 318 324 329
294 295 297 298 298 299 298 297 296 297 298 298 300 304 304 308 311 300 298 296 301 316 317 309 300 296 296 297 295 297 302 308 307 305 304 304 306 309 313 322 326 326 324
292 294 298 297 296 298 298 298 296 296 298 300 305 303 304 308 310 308 305 303 304 311 306 303 302 301 301 298 301 303 305 305 304 302 302 304 309 317 319 326 323 322 319
292 295 298 297 296 296 297 297 297 299 299 300 302 307 307 306 310 303 306 311 315 308 305 305 305 305 303 302 302 301 301 303 303 304 307 309 311 312 313 316 320 320 315
291 294 298 297 297 296 296 295 295 294 294 293 293 296 309 300 295 295 296 298 297 299 307 306 304 305 304 302 302 301 303 303 305 306 306 308 309 311 313 316 321 316 313
290 293 297 298 298 297 297 296 294 297 296 293 292 296 300 299 294 296 297 296 295 300 305 304 304 303 302 302 302 303 305 306 307 307 307 306 308 310 312 314 315 315 313
292 294 297 299 299 299 299 299 298 296 296 300 296 295 294 294 293 297 299 302 305 302 304 303 302 302 302 302 303 304 304 303 304 306 307 308 309 311 312 313 314 314 316
291 293 294 299 300 299 300 301 301 300 300 300 299 299 295 293 293 294 297 311 307 304 303 302 303 303 303 303 304 304 303 302 303 304 306 307 309 310 311 312 311 302 305
290 290 292 296 299 300 299 299 300 300 300 300 298 298 299 304 305 304 305 308 308 306 306 305 305 305 305 304 303 302 302 302 302 303 304 306 307 311 310 311 311 315 315
288 289 289 291 291 294 299 297 298 298 298 299 299 296 288 301 303 304 305 305 306 307 306 307 306 306 305 304 303 303 302 302 302 303 304 306 308 309 311 312 312 313 312
286 286 287 287 288 289 290 293 297 296 295 295 297 298 288 299 301 302 303 305 306 307 308 308 306 306 306 305 304 303 302 302 302 303 305 306 308 310 311 312 312 312 313
285 285 284 285 285 286 287 288 289 291 292 297 295 296 297 297 298 299 302 304 304 305 306 307 306 305 306 306 305 305 304 303 304 305 305 306 308 309 310 311 311 311 315
283 283 283 283 283 283 284 284 285 286 288 291 293 297 296 296 297 298 299 300 303 304 306 305 305 305 305 304 304 304 305 306 306 307 307 306 306 304 309 311 311 311 314
281 281 281 281 281 281 281 282 283 283 285 287 288 290 292 295 297 298 298 299 300 301 303 306 306 307 306 304 304 304 299 291 302 299 306 306 306 308 310 311 311 312 313
280 279 279 279 279 280 280 280 281 281 282 284 285 286 288 290 291 293 299 299 299 300 301 304 306 306 306 304 305 298 291 291 295 290 302 307 309 310 312 312 312 314 316

GFSGL_sfc_thetae_096.txt.gz
Theta_e
299 299 299 300 301 302 302 303 305 306 308 309 313 316 319 320 320 320 322 326 328 330 331 330 330 331 331 330 329 327 326 326 322 323 330 332 334 336 336 340 338 339 337
300 300 299 300 300 299 300 301 303 304 306 307 309 312 314 318 320 321 320 323 325 325 327 329 329 329 329 329 327 326 327 329 326 323 329 330 331 333 336 336 337 337 337
299 298 298 297 297 297 298 300 302 303 303 303 305 308 311 315 317 318 318 319 321 325 326 327 327 327 326 327 328 328 329 330 329 328 326 328 329 329 330 332 334 336 335
297 297 296 297 297 297 297 297 298 300 300 301 303 307 309 311 315 318 318 318 319 321 324 326 326 327 326 326 326 325 324 324 326 325 325 324 326 329 329 330 330 332 333
296 296 296 297 297 298 298 298 298 299 301 302 303 304 305 306 309 314 316 316 318 320 321 323 326 327 325 326 327 327 326 324 322 321 322 322 323 322 326 327 329 329 329
295 295 296 298 298 298 298 299 298 298 299 299 300 301 302 304 303 305 310 314 317 318 319 320 324 324 323 318 319 320 325 324 321 321 320 320 324 325 326 326 324 324 323
295 296 298 298 298 298 298 298 298 298 298 298 301 301 302 303 301 302 305 311 314 316 318 319 322 325 323 325 316 314 314 314 319 324 322 323 324 322 322 324 324 323 324
295 296 297 297 297 298 298 298 298 298 297 297 298 300 301 302 301 301 303 310 313 315 317 320 322 322 323 324 324 322 322 321 319 324 326 326 326 322 327 327 325 325 324
294 295 296 297 297 297 297 298 298 298 297 297 298 299 301 302 301 300 302 311 313 314 318 320 322 321 311 307 323 320 321 322 312 310 312 307 305 306 316 323 321 323 321
294 295 296 296 297 297 298 299 299 299 298 298 298 299 301 303 303 299 301 309 313 313 317 319 309 318 304 303 320 320 319 317 314 311 309 305 308 310 310 326 326 324 322
294 295 295 296 297 299 299 300 299 298 298 297 298 300 301 303 305 300 299 312 312 313 315 317 319 303 300 301 309 319 318 315 311 314 313 313 314 317 320 322 327 325 323
293 294 294 296 298 300 298 298 299 298 296 296 298 300 302 304 303 301 297 298 306 313 313 317 314 298 298 300 309 302 302 310 318 317 315 315 315 316 316 317 321 325 331
292 292 294 296 299 299 297 297 297 297 296 296 298 300 302 307 310 299 298 297 297 307 316 310 300 298 299 300 298 299 304 317 315 314 312 311 314 317 318 319 321 324 327
290 292 294 296 299 299 298 298 297 297 297 298 299 300 303 307 312 312 309 305 298 307 303 303 302 300 302 303 306 308 312 312 310 309 308 311 315 317 322 326 323 323 321
290 292 293 295 298 299 299 298 298 299 298 296 298 300 300 304 309 302 302 309 314 307 305 307 306 306 307 306 307 307 308 309 308 309 312 316 320 320 322 325 323 324 321
289 291 292 295 298 300 299 299 296 294 294 294 292 293 299 298 294 293 293 297 296 299 308 307 305 306 306 306 305 305 308 308 311 313 315 316 316 318 322 324 323 322 320
289 291 293 294 297 299 299 300 298 299 297 295 293 293 293 297 294 293 293 295 296 303 308 308 307 307 306 307 307 309 308 311 312 313 313 314 315 316 320 322 322 320 321
289 291 291 293 298 300 300 301 300 299 299 301 298 293 292 293 293 293 295 300 308 305 308 306 305 305 306 306 308 310 310 311 312 312 313 314 316 318 319 321 323 321 320
288 289 289 292 294 295 299 300 300 300 301 300 302 300 299 296 296 297 300 310 307 306 307 307 307 308 308 308 310 310 308 309 310 311 313 315 317 319 320 320 320 307 311
287 287 287 289 290 291 292 295 298 298 299 299 300 299 299 304 307 307 308 309 309 308 308 307 307 309 308 309 309 309 307 308 309 310 312 314 316 318 319 319 319 317 318
285 285 286 286 286 287 288 289 291 293 294 297 299 299 288 300 302 305 307 307 308 310 310 310 310 310 310 309 309 308 308 308 309 311 313 314 317 319 319 320 320 321 318
283 284 284 284 284 285 285 286 287 288 290 292 295 298 290 300 300 302 303 305 307 308 309 310 311 311 311 310 309 309 309 309 309 311 314 315 317 318 320 321 321 321 319
282 281 282 282 283 283 283 284 284 284 286 288 290 292 294 296 298 300 301 303 304 306 307 310 311 312 312 313 313 312 310 310 311 313 315 315 315 316 317 317 319 320 319
280 280 279 280 280 280 281 281 282 282 284 285 286 287 288 291 293 294 299 301 302 305 306 308 309 310 311 311 311 312 312 313 313 313 315 315 314 308 314 315 316 319 320
279 279 279 279 279 279 279 280 280 281 282 283 283 284 285 287 288 290 292 294 299 302 304 306 307 309 310 309 309 310 302 291 309 301 315 314 313 312 313 313 314 318 319
279 279 278 278 278 278 278 279 279 279 280 281 282 282 284 284 285 286 288 288 290 294 301 304 304 307 309 308 309 299 290 289 298 291 311 313 312 313 314 314 315 317 320

GFSGL_sfc_thetae_099.txt.gz
Theta_e
307 307 307 307 307 308 307 307 307 308 309 309 310 311 313 314 317 321 325 328 329 332 335 335 336 339 330 332 335 332 331 333 328 329 334 339 338 340 342 342 342 342 340
306 305 305 306 306 305 305 306 306 306 307 307 309 309 310 311 314 315 317 322 325 326 329 332 331 331 335 336 334 330 329 329 328 325 333 333 334 341 344 344 343 342 344
304 304 304 304 304 304 304 305 305 305 305 305 306 306 306 307 308 313 315 318 323 326 326 328 331 333 333 329 336 333 327 329 333 332 330 334 334 338 336 341 342 342 343
303 303 303 303 304 304 304 303 303 303 302 303 303 303 305 306 307 310 312 315 318 322 325 327 328 329 331 332 332 333 329 327 329 327 331 332 332 335 337 334 333 339 341
302 302 303 304 304 303 302 302 303 304 303 303 302 303 303 304 305 306 308 310 315 318 321 322 325 325 322 326 328 331 333 326 326 327 330 330 327 329 331 332 334 338 342
301 301 301 301 301 303 303 303 304 303 303 302 301 301 301 303 301 302 304 305 308 310 312 318 321 320 321 315 315 318 326 326 325 325 332 328 329 328 329 332 333 334 330
299 299 301 303 301 302 303 302 301 302 301 300 300 300 300 300 300 300 302 305 305 307 307 312 316 320 319 323 317 314 316 315 322 333 329 331 329 330 331 332 333 331 331
298 301 302 301 302 301 299 300 301 300 300 300 300 300 299 300 299 298 300 303 306 308 307 310 318 318 322 322 325 325 323 325 328 326 330 329 333 333 335 334 333 333 333
298 300 300 300 298 297 297 299 302 300 303 300 300 300 299 299 298 298 300 304 305 309 310 315 318 318 313 305 322 321 322 322 320 314 314 311 310 309 324 334 324 323 323
298 298 298 299 297 297 298 299 303 303 301 301 300 300 300 301 299 297 299 303 305 309 313 315 308 313 307 303 319 320 319 321 324 319 316 313 314 316 312 332 326 323 326
296 295 296 299 299 299 299 301 300 302 301 301 299 300 301 303 305 298 297 302 305 311 312 317 321 304 300 299 305 324 322 323 318 323 323 318 319 324 327 328 330 331 326
295 294 294 296 298 299 299 301 300 299 299 298 298 299 303 308 302 300 297 297 303 310 314 318 319 302 300 299 303 308 301 312 326 325 322 317 316 320 323 329 333 333 333
292 293 294 297 297 300 300 300 299 299 298 298 298 300 304 307 310 303 298 296 296 300 308 309 298 300 297 299 301 301 304 323 318 315 314 316 317 321 325 327 331 331 333
291 292 294 296 296 300 301 302 300 301 298 298 300 302 303 306 310 315 315 313 305 303 303 305 301 301 301 307 304 309 318 319 316 316 316 318 323 323 322 324 323 323 323
290 292 293 295 296 299 301 302 303 303 301 299 300 302 302 304 309 300 300 305 308 307 305 307 310 311 311 313 315 314 314 316 317 316 316 317 318 321 323 326 323 323 320
289 291 292 293 295 298 301 302 299 296 294 293 292 294 299 297 295 294 293 292 294 296 308 310 311 313 310 310 311 312 315 313 316 316 318 318 319 321 322 324 326 326 323
288 290 290 291 294 296 298 300 299 305 299 297 295 295 294 292 293 293 291 292 293 304 311 311 311 312 311 309 311 313 313 315 320 319 320 321 324 327 324 324 325 327 324
288 288 288 290 291 292 295 296 301 304 303 304 300 296 296 296 295 293 294 298 310 309 314 312 311 311 311 313 314 315 316 318 319 320 321 322 324 325 325 324 325 325 323
286 287 287 288 289 290 291 293 295 296 300 304 305 299 298 297 297 298 301 313 309 315 314 313 313 312 314 317 317 317 317 317 318 320 321 322 325 325 326 328 328 311 315
286 285 285 286 287 287 288 288 290 291 293 295 299 296 297 301 302 304 310 311 314 314 313 312 313 312 316 316 315 315 314 315 317 319 321 323 325 327 325 325 326 323 325
286 287 284 284 284 285 285 285 286 287 289 291 293 294 288 298 300 301 304 308 312 315 316 316 315 315 316 318 316 315 315 316 317 318 319 321 325 325 327 326 325 326 322
284 285 286 285 283 283 283 284 284 284 285 287 288 291 288 294 295 297 301 303 307 309 314 316 317 318 318 319 317 317 317 316 318 320 321 323 326 326 326 326 326 326 323
284 283 284 284 285 283 282 283 282 283 283 284 285 286 288 290 292 293 294 297 302 304 307 310 313 316 319 320 320 318 317 317 318 320 320 319 319 319 320 322 325 325 325
283 283 282 283 282 284 284 284 283 282 282 282 283 284 285 286 288 290 290 291 293 296 303 309 309 311 314 319 321 322 321 320 320 320 321 320 318 315 319 317 318 322 325
282 281 281 281 281 282 282 283 283 283 283 282 282 282 283 284 285 287 288 289 289 291 296 301 306 310 312 313 316 317 306 293 314 304 320 321 320 319 317 318 318 317 323
281 281 281 281 280 280 280 281 281 282 282 283 283 282 282 282 283 284 285 286 288 289 291 294 296 299 310 312 313 300 291 289 302 293 319 320 318 317 317 316 316 316 318

GFSGL_sfc_thetae_102.txt.gz
Theta_e
315 315 315 315 315 315 315 315 315 315 315 314 314 315 315 316 318 320 321 321 324 332 334 336 337 339 331 328 330 328 327 327 324 328 332 339 346 343 342 345 345 348 343
313 313 313 314 314 313 313 313 314 313 313 312 312 312 311 312 314 314 313 316 319 322 328 331 332 333 335 338 331 332 329 332 326 329 333 334 342 344 342 343 343 342 344
312 311 312 312 312 312 311 312 311 311 310 310 309 308 308 309 309 310 311 312 315 318 322 326 329 331 332 330 332 330 328 330 329 331 328 333 336 339 338 342 341 345 343
310 310 310 311 311 311 311 310 309 307 306 306 306 306 306 305 305 306 306 307 310 313 318 323 325 328 330 331 331 332 332 328 327 326 330 328 333 338 338 335 335 342 340
309 309 309 310 310 310 307 306 306 307 307 306 305 305 305 305 303 304 305 306 307 308 309 312 320 323 321 324 329 330 330 328 324 323 327 326 327 331 332 335 335 342 340
308 308 308 308 308 307 307 306 306 307 306 306 306 306 305 303 301 301 303 302 303 304 305 307 311 315 317 315 314 315 322 329 327 322 321 324 329 332 335 334 337 331 329
307 307 307 308 308 306 306 306 305 306 306 305 307 304 306 304 300 299 300 302 301 303 304 304 307 311 311 319 315 312 313 311 313 328 326 327 329 337 340 337 333 331 331
306 306 307 307 306 307 307 307 305 304 303 305 306 306 305 304 300 298 299 301 301 302 303 305 306 309 311 311 320 322 323 326 327 325 331 332 338 338 336 330 331 332 337
303 305 306 305 305 307 305 304 305 303 301 303 306 307 305 305 299 297 299 302 301 303 306 308 309 311 304 301 312 316 321 323 318 312 314 315 310 308 323 330 331 333 328
300 302 303 303 304 302 302 302 303 301 302 303 304 305 304 303 300 297 298 302 301 303 304 306 304 308 302 300 309 318 317 318 321 325 329 320 312 318 309 334 330 331 328
298 299 301 304 304 303 303 304 302 301 303 304 304 303 305 305 305 298 297 304 303 303 306 308 315 301 299 299 300 317 317 319 320 327 328 327 327 328 325 329 336 335 330
295 297 301 303 302 301 304 302 302 304 306 302 302 305 307 310 306 304 299 297 304 309 311 311 314 302 298 298 301 303 300 305 324 326 322 322 322 324 327 333 338 339 333
294 295 299 301 300 301 303 302 302 305 303 306 304 304 306 310 313 303 300 298 299 300 305 306 301 298 296 300 297 298 298 314 318 319 319 318 322 330 334 336 336 334 329
292 294 298 296 296 301 300 302 306 305 304 302 302 304 306 309 309 312 314 315 306 307 306 306 304 303 303 309 307 303 311 319 320 320 320 322 322 322 324 329 326 326 323
290 292 294 293 294 298 300 301 303 306 304 303 302 302 300 299 301 300 298 301 302 301 298 309 306 306 307 310 311 313 318 317 317 317 319 319 319 320 320 323 323 325 323
288 289 291 291 293 297 299 299 299 297 296 294 293 295 299 296 295 293 292 292 291 294 310 308 309 312 311 312 313 314 317 314 317 317 318 319 318 318 318 320 322 323 321
287 288 289 290 291 292 294 296 298 303 299 298 294 295 294 293 294 293 292 294 295 303 312 309 310 309 309 310 310 314 315 317 320 318 318 320 318 319 319 323 323 324 321
288 287 287 289 289 289 291 293 297 298 298 302 301 294 293 293 294 295 297 301 317 313 314 311 312 312 313 313 312 311 316 318 318 315 319 320 322 321 321 322 324 323 321
291 287 286 287 287 288 288 289 290 293 293 295 301 295 295 293 295 298 300 318 317 316 314 313 313 315 318 319 319 319 319 320 320 320 321 322 323 324 325 322 325 311 314
291 289 288 286 285 285 286 286 286 288 290 292 294 294 293 295 296 297 303 308 313 318 317 316 317 318 314 315 317 319 321 321 322 322 322 323 324 326 326 326 327 325 326
292 292 288 291 290 285 285 285 285 285 286 288 289 291 286 292 292 293 295 297 306 312 320 317 315 317 316 316 316 315 316 317 321 323 323 324 325 322 325 328 328 328 326
291 291 291 291 290 290 288 286 285 285 284 284 285 288 286 292 290 290 291 292 296 303 314 317 319 320 320 318 318 318 318 318 318 321 324 325 325 324 323 323 325 328 322
290 290 290 290 290 289 290 290 289 288 287 284 283 285 287 288 289 288 289 290 292 297 305 311 315 316 322 323 322 321 319 319 322 323 323 325 325 324 324 323 323 323 325
289 289 288 288 288 289 289 289 290 287 288 288 287 284 284 285 287 287 287 289 290 291 297 301 306 309 316 320 323 324 323 323 323 323 323 323 323 319 322 323 324 324 324
287 287 287 286 287 287 287 288 288 288 288 288 286 286 285 285 284 285 286 287 288 289 290 296 300 302 303 314 311 311 296 289 308 295 322 322 321 321 320 319 319 321 323
287 286 285 284 283 283 284 285 286 286 286 287 286 286 286 286 284 284 285 286 287 290 289 289 291 297 300 299 300 290 288 288 298 288 311 322 321 320 319 318 318 318 318

GFSGL_sfc_thetae_105.txt.gz
Theta_e
319 319 319 319 320 320 319 319 319 319 318 317 317 316 316 316 318 320 320 320 319 322 326 326 327 333 331 332 335 334 330 328 324 328 329 334 340 342 346 348 345 345 342
317 317 318 318 318 318 317 317 317 316 315 315 314 313 312 311 313 313 313 313 313 314 317 318 321 327 330 332 333 333 332 330 324 324 332 332 336 340 344 347 344 342 344
316 316 317 316 316 316 316 316 315 313 312 311 309 308 308 308 308 309 308 307 309 310 310 312 317 321 324 327 330 331 330 331 332 327 324 330 332 334 337 343 345 345 343
315 315 314 315 315 314 314 313 312 311 309 310 310 309 309 308 308 308 307 308 307 308 309 313 313 313 317 322 325 327 329 328 328 328 324 326 329 333 334 333 337 342 339
313 313 313 314 314 313 312 311 311 311 310 310 309 309 309 307 307 307 308 307 306 305 308 308 309 313 312 311 311 319 326 326 325 321 321 320 325 326 326 330 332 336 342
312 312 312 312 311 311 312 310 310 309 309 309 308 308 306 307 304 303 305 306 305 305 303 306 308 309 309 307 308 310 313 319 321 318 320 318 323 327 327 331 333 333 331
310 311 311 310 309 309 310 310 310 310 311 309 309 308 306 307 302 300 302 304 304 303 304 305 305 306 308 308 308 308 310 309 312 322 319 320 322 329 330 331 332 335 334
308 308 309 309 309 309 309 309 311 309 309 308 306 304 306 307 302 299 300 304 304 304 303 305 304 306 308 308 309 311 314 315 324 321 325 329 331 332 331 332 334 338 340
305 305 307 308 307 307 306 307 308 307 306 304 304 305 307 307 302 298 299 303 303 303 305 307 306 306 303 299 308 309 310 311 315 311 311 309 308 307 312 333 328 332 327
300 301 304 305 305 305 305 307 306 308 305 305 306 309 306 308 303 299 300 306 304 304 307 305 302 303 300 298 304 306 304 307 312 323 318 316 310 320 307 330 330 325 323
297 299 301 303 304 306 307 306 307 306 307 307 307 309 309 308 311 301 298 308 308 305 305 305 307 301 297 297 298 306 306 311 313 318 320 324 326 329 330 332 328 328 328
296 296 298 301 304 304 305 305 306 307 307 306 305 306 308 310 307 305 299 299 307 308 305 306 308 301 298 299 297 300 298 302 312 314 320 323 324 325 328 331 334 330 338
293 294 297 301 304 304 304 303 302 304 305 305 305 305 303 305 308 302 299 299 299 300 306 304 301 299 297 297 295 297 297 309 312 315 318 321 326 326 331 332 334 335 335
290 292 295 298 299 303 303 303 302 302 302 304 304 303 300 299 301 302 302 304 303 305 306 306 304 303 301 305 306 300 309 316 317 318 315 325 329 330 329 333 331 330 324
289 290 291 294 296 299 303 302 302 305 302 300 302 299 296 294 296 294 293 296 302 302 297 300 303 307 307 310 314 316 317 318 316 316 318 318 320 323 325 330 327 324 320
288 288 288 292 294 295 296 299 298 296 295 293 294 294 294 293 292 294 295 294 291 291 303 309 308 307 308 310 314 314 314 314 318 320 318 319 318 319 320 323 324 322 319
292 288 287 290 290 292 290 292 292 299 297 296 293 293 292 291 292 294 295 297 298 299 309 309 309 307 309 313 313 313 314 317 317 318 316 316 314 313 315 316 319 318 318
294 291 289 288 288 287 289 289 288 292 294 298 298 293 292 291 292 293 294 303 311 314 311 311 312 311 310 311 313 315 314 316 314 315 313 315 315 312 311 315 316 319 320
295 293 293 291 287 287 288 289 288 288 290 292 297 295 292 291 291 292 294 298 303 309 313 314 313 316 317 313 313 315 315 310 311 316 316 315 316 316 318 317 319 309 313
295 289 292 295 294 293 289 287 287 287 286 286 288 290 289 291 290 291 295 296 302 306 311 314 315 318 317 318 318 319 319 316 314 316 318 321 322 321 319 321 321 321 323
294 294 290 294 294 294 293 292 289 289 287 286 286 287 285 290 288 288 290 292 295 299 304 307 315 316 317 317 318 319 319 321 321 323 322 320 323 323 325 324 323 324 324
293 293 293 293 293 293 293 294 293 291 290 289 286 287 286 290 288 288 288 288 292 297 300 305 306 309 310 313 315 317 320 320 322 324 325 324 323 323 323 325 324 323 321
292 292 291 291 291 290 292 292 292 292 292 291 289 286 287 287 288 286 286 286 290 292 295 299 303 304 306 311 306 307 303 303 316 325 323 321 323 323 324 322 326 326 324
291 291 289 289 289 289 289 290 291 288 291 291 290 289 287 288 287 286 286 286 286 290 293 293 297 298 301 303 304 302 297 294 306 307 319 321 321 319 321 322 322 325 325
291 290 289 287 287 287 287 287 288 289 290 290 289 289 288 288 287 287 287 287 287 287 288 290 292 293 295 301 298 295 289 286 293 289 306 322 322 322 321 322 321 322 323
291 290 288 287 284 285 285 285 286 287 287 288 289 289 288 288 287 287 287 287 287 287 288 288 290 290 292 297 293 287 286 285 288 286 295 320 321 320 320 319 318 322 323

GFSGL_sfc_thetae_108.txt.gz
Theta_e
322 323 323 323 322 322 321 321 320 320 319 316 316 315 313 312 313 312 312 312 312 312 314 314 315 317 317 320 322 324 326 326 322 322 324 328 332 336 337 340 341 338 336
319 320 321 322 321 321 320 319 319 317 316 313 313 311 310 310 310 309 308 308 308 308 308 309 309 311 310 314 316 319 322 324 322 320 322 323 327 327 333 334 337 340 338
316 317 320 320 320 319 317 318 317 314 312 312 311 310 310 310 309 308 307 307 307 307 307 306 306 306 307 309 311 314 318 322 323 321 322 325 324 329 327 328 332 333 339
314 315 316 318 318 317 316 316 314 313 312 311 311 310 309 309 309 308 307 307 308 308 307 307 306 306 306 307 309 310 313 310 315 320 321 321 324 326 326 322 322 331 331
312 313 315 317 316 315 314 314 314 312 311 310 309 308 309 309 308 307 306 306 305 305 306 306 306 307 308 308 306 306 306 305 308 310 317 319 319 320 319 323 322 325 329
310 311 313 314 313 313 313 313 312 312 312 311 310 309 308 308 304 303 305 305 306 306 304 304 305 307 306 306 306 307 306 304 303 305 310 314 317 319 321 322 322 321 319
307 310 310 311 310 311 311 311 310 310 310 308 309 308 307 306 302 301 303 305 305 305 304 304 304 305 305 304 304 305 306 305 306 307 306 311 316 320 322 322 320 321 320
305 307 308 307 308 309 309 308 308 307 306 307 307 307 305 306 302 300 301 304 305 305 305 304 304 303 304 303 304 304 306 307 308 311 311 315 317 321 323 323 322 322 322
301 301 302 303 305 306 305 304 307 306 307 307 307 307 307 307 303 300 301 306 306 306 306 305 305 304 302 299 303 302 303 305 309 306 305 303 303 307 310 321 319 318 317
297 298 299 301 302 303 304 305 305 306 306 307 307 308 308 309 304 300 301 306 305 306 307 307 303 303 300 297 302 302 301 303 306 308 309 308 307 312 308 317 316 315 316
295 296 297 298 301 302 305 304 306 306 306 305 307 309 309 308 307 300 299 303 304 304 305 307 309 301 297 296 297 302 301 303 304 307 309 310 315 318 320 318 323 321 318
293 294 295 298 300 302 303 303 304 305 305 304 304 305 308 307 302 300 297 297 298 299 301 305 309 300 297 296 297 298 296 298 303 306 307 309 315 317 320 323 325 325 327
291 292 294 295 298 299 301 303 302 304 302 301 301 302 301 301 300 297 295 295 297 298 302 304 300 298 297 298 296 296 296 300 304 305 305 308 316 319 321 322 324 328 326
291 290 291 292 295 298 301 301 300 301 301 300 301 300 297 296 295 295 295 297 301 304 304 305 303 301 299 303 303 302 302 306 306 305 308 312 317 319 320 322 321 323 322
292 290 289 290 294 296 297 297 295 298 296 297 300 297 293 291 292 291 292 294 299 301 298 303 308 305 304 306 307 310 308 309 308 310 312 313 315 317 319 322 322 322 321
292 291 289 289 291 292 293 293 292 292 293 293 293 292 292 291 291 291 292 293 295 296 306 309 308 308 307 308 310 312 314 311 312 314 315 315 315 317 318 319 322 321 319
293 292 291 289 289 288 289 291 289 291 293 292 292 291 290 289 290 291 292 292 296 303 310 311 308 309 311 312 312 312 311 314 315 313 315 315 317 319 314 319 320 319 315
296 292 294 293 289 288 288 289 290 288 287 289 292 291 289 289 290 290 291 295 300 302 303 306 310 308 310 311 312 311 311 311 313 314 313 312 312 315 318 319 318 317 315
294 293 295 296 295 292 292 290 290 290 288 288 289 289 289 290 290 290 290 292 292 296 299 303 306 307 309 313 311 310 310 310 312 313 313 313 313 313 314 317 317 308 311
295 290 292 294 294 294 295 294 292 291 290 288 287 287 288 289 287 287 288 288 290 292 295 296 302 304 305 305 307 314 313 310 312 314 313 314 314 315 314 315 313 317 318
293 294 290 293 293 292 293 293 292 293 292 289 287 287 286 289 286 286 286 286 287 289 292 293 297 299 301 301 303 300 301 301 308 317 316 317 316 314 316 317 315 318 319
292 291 292 290 291 291 291 292 291 291 291 291 290 288 286 289 288 286 286 286 287 288 290 292 293 294 296 300 297 296 293 292 297 304 313 318 317 317 319 319 320 320 319
291 290 289 289 289 289 290 290 290 289 290 290 290 289 288 287 287 287 286 286 287 287 289 289 291 292 293 298 295 294 288 287 293 296 298 314 321 319 320 319 320 321 321
290 289 288 287 287 287 287 287 288 286 288 289 289 289 289 288 287 287 287 287 287 288 288 288 289 289 291 292 291 290 288 286 290 291 295 307 316 317 319 319 320 322 320
290 289 288 286 285 285 285 285 286 286 286 287 287 287 288 288 287 287 287 287 287 288 288 288 288 288 290 290 288 287 285 285 287 285 291 302 318 319 321 322 322 322 320
290 289 288 287 284 284 283 283 283 283 283 285 285 286 286 286 286 285 286 286 286 287 288 288 288 289 288 289 287 285 284 284 285 284 289 307 313 316 318 320 322 322 322

GFSGL_sfc_thetae_111.txt.gz
Theta_e
310 311 311 311 312 312 311 311 311 310 309 308 308 307 307 306 306 304 304 305 305 304 305 306 307 307 307 309 309 310 313 314 314 319 323 325 325 326 332 335 338 335 333
309 310 310 311 311 310 310 310 310 307 307 307 307 306 307 307 305 305 304 305 305 304 304 303 304 306 303 303 303 303 306 311 313 311 318 321 322 325 326 327 334 337 335
309 308 309 309 309 308 308 308 308 306 306 306 306 306 306 306 305 305 305 306 304 306 306 305 304 304 303 301 302 302 305 308 309 310 310 317 321 326 325 326 327 329 334
308 307 307 308 308 307 307 307 306 306 306 305 305 305 306 306 306 306 307 306 303 305 307 307 305 304 303 302 302 303 303 302 305 306 307 309 314 321 325 323 322 326 327
306 306 306 308 307 306 306 305 307 306 306 307 306 307 307 306 307 303 303 303 302 302 303 304 304 306 308 307 304 302 301 300 301 301 301 303 306 312 316 322 321 319 322
303 303 306 306 306 305 306 306 304 304 304 305 306 307 304 305 303 303 304 302 302 302 302 304 305 307 306 306 306 306 305 300 298 298 298 298 302 306 312 318 320 318 316
301 303 304 303 303 303 304 303 302 302 303 306 305 303 302 303 302 301 303 304 305 304 303 303 303 305 305 305 304 304 304 304 304 302 299 300 301 306 310 312 318 317 315
298 298 299 299 299 301 301 300 301 305 304 304 304 305 304 305 302 300 301 304 304 305 304 304 304 304 304 303 302 301 301 302 302 305 305 304 304 307 310 315 316 320 321
295 295 296 297 298 299 299 301 303 304 304 304 305 306 305 307 302 300 300 302 302 302 304 306 307 306 303 298 302 301 300 302 305 303 302 301 301 302 306 310 313 316 314
293 294 295 296 296 298 300 301 303 303 304 305 305 304 304 305 302 298 298 299 297 299 300 302 303 304 301 297 301 301 300 302 303 304 305 304 301 305 303 308 313 314 315
293 293 294 296 296 299 300 301 301 303 304 304 302 301 301 302 300 296 296 296 296 295 296 298 301 299 298 296 297 303 302 303 303 304 304 305 307 307 308 314 315 316 313
290 291 293 293 295 297 298 300 302 302 302 299 298 298 300 298 298 296 294 293 294 294 297 300 302 298 297 297 297 298 296 299 302 302 302 303 305 306 311 316 317 319 320
291 290 291 290 293 295 297 297 296 298 296 295 296 296 294 295 295 294 292 293 294 296 301 304 299 297 296 296 296 295 295 300 300 300 300 303 305 308 315 317 319 320 320
289 290 290 290 291 294 294 295 291 292 292 293 295 290 291 291 291 292 292 293 296 301 305 308 306 301 297 297 300 301 302 303 302 302 304 305 310 312 314 313 314 316 316
290 290 289 290 290 291 293 293 291 291 291 290 291 289 288 288 289 290 290 292 296 299 304 309 310 310 308 306 305 306 307 305 304 305 304 307 309 311 312 313 313 315 316
289 289 289 289 289 289 288 290 292 291 291 290 291 289 289 290 290 290 290 291 292 293 301 303 304 305 307 310 309 309 311 307 306 306 306 307 309 309 311 313 316 315 315
289 290 289 289 289 288 289 289 288 291 291 290 290 289 289 289 289 289 289 290 291 294 296 298 300 300 303 306 310 310 310 312 311 308 308 309 309 310 309 315 315 315 316
290 292 289 290 288 288 288 288 289 289 287 288 289 289 289 289 289 289 289 290 290 292 293 294 295 298 299 301 301 305 309 312 313 313 312 312 312 315 314 315 317 316 315
290 290 290 290 288 289 288 287 287 288 288 288 287 287 288 289 288 288 288 288 287 288 290 291 293 294 298 296 297 296 298 299 308 312 312 313 313 315 316 317 316 306 309
290 290 290 289 288 288 288 287 287 286 286 287 286 285 287 287 286 286 286 286 286 287 288 290 291 292 295 293 293 293 292 293 297 302 311 313 312 313 315 317 316 314 315
288 289 288 288 287 287 287 286 286 286 286 285 284 287 285 286 285 285 285 286 286 287 287 288 289 290 291 291 289 289 289 289 290 294 298 306 313 311 312 314 318 318 317
288 287 287 285 286 285 285 286 284 285 285 285 285 286 285 286 286 285 286 286 287 287 288 288 288 289 289 289 287 287 286 286 287 289 291 297 310 313 314 312 313 317 316
287 286 285 284 284 284 284 284 283 283 283 284 284 284 284 283 283 284 284 285 287 287 288 288 288 288 289 289 287 286 284 284 285 287 287 292 307 313 313 314 313 316 316
286 285 283 283 283 281 281 281 281 281 282 282 282 283 283 283 282 283 283 284 285 286 287 287 287 287 287 287 287 286 285 285 286 286 288 295 306 310 316 316 317 317 316
285 284 283 282 281 282 282 281 280 280 281 281 281 281 282 283 281 282 282 283 283 284 285 286 287 287 287 286 285 285 284 284 285 284 288 299 302 306 306 319 318 318 317
285 284 282 282 282 283 283 281 280 280 280 280 280 280 281 281 281 281 281 281 282 282 283 283 284 284 285 285 284 284 283 283 284 283 289 296 299 300 301 315 318 317 316

GFSGL_sfc_thetae_114.txt.gz
Theta_e
308 309 309 309 310 309 309 308 308 307 306 306 306 305 305 305 305 303 302 303 304 303 303 303 303 304 304 302 302 303 302 303 301 305 311 317 318 320 323 325 327 331 332
307 308 308 308 308 308 307 307 307 305 305 305 306 305 306 306 305 303 303 305 304 304 303 303 303 306 302 301 302 300 300 300 300 299 304 307 313 316 319 321 325 329 334
306 306 306 306 307 306 306 306 307 305 304 304 305 304 305 305 304 304 303 304 304 304 304 303 303 304 304 302 301 300 301 302 301 301 301 304 308 310 311 316 323 327 330
304 303 303 304 306 305 305 305 304 304 304 304 304 305 305 305 305 305 304 302 302 303 303 303 303 303 303 302 302 302 302 300 300 299 300 302 304 307 308 310 313 323 325
301 301 302 303 304 303 303 303 303 303 303 304 304 304 303 304 305 304 305 305 304 303 304 303 303 305 307 306 303 303 303 301 300 298 297 297 298 300 300 305 310 313 322
300 300 300 300 301 301 301 301 301 301 302 302 303 302 302 304 303 303 305 304 305 304 303 304 304 306 306 307 307 308 306 302 300 299 297 296 297 297 300 301 304 308 313
296 298 298 298 298 298 300 300 299 299 300 301 300 304 302 302 301 301 302 304 304 303 304 304 304 306 306 305 305 305 305 304 304 301 299 299 299 299 300 301 303 307 309
294 294 296 295 296 297 297 298 298 299 300 300 302 305 302 304 302 300 300 301 301 301 302 303 303 304 305 305 304 304 303 303 303 303 302 301 301 302 302 303 303 307 311
292 292 293 294 294 295 296 299 298 298 301 301 301 302 301 302 300 297 297 297 297 299 301 302 302 302 301 298 303 303 303 303 304 303 302 300 299 300 302 304 304 306 310
291 291 292 294 296 296 298 299 301 301 302 304 302 301 301 300 297 296 296 294 294 296 297 299 300 299 297 296 299 302 301 302 303 303 304 301 301 302 301 302 305 305 306
290 290 292 294 293 296 297 298 300 300 298 299 298 298 299 296 295 294 294 292 293 293 295 298 302 299 298 296 296 300 302 304 304 304 304 304 304 305 307 304 305 306 305
289 289 290 292 292 295 296 296 295 295 295 293 294 293 293 293 294 293 292 292 293 294 296 301 306 300 297 296 295 296 295 297 303 303 303 302 303 304 305 306 307 310 312
289 288 289 291 292 294 293 290 289 291 290 291 292 288 288 292 292 292 291 292 294 296 300 301 298 299 301 300 298 294 293 299 300 300 301 302 304 306 307 308 309 311 314
288 289 291 290 291 292 293 293 289 289 288 289 289 287 286 290 290 290 290 291 294 296 299 304 302 301 301 304 301 302 302 301 301 300 301 302 304 305 306 308 308 310 313
288 290 290 290 290 290 290 292 290 291 289 288 289 288 287 287 288 289 289 290 292 293 297 299 299 300 299 300 302 305 309 306 303 303 303 304 305 307 308 312 313 313 311
287 287 287 288 289 290 289 290 291 291 290 289 289 289 289 289 289 289 289 290 290 291 294 294 294 294 296 295 296 296 299 301 307 305 302 305 305 308 309 311 313 313 310
288 288 286 289 288 288 288 289 288 291 291 290 289 289 289 288 288 288 289 289 290 290 291 291 292 292 294 292 293 293 293 296 301 307 303 303 306 308 307 309 310 313 311
287 290 288 288 289 288 286 286 286 287 287 287 289 288 288 288 288 288 288 289 288 289 288 289 289 290 292 290 289 290 291 292 293 299 309 310 310 310 310 311 312 313 314
288 287 287 288 288 288 286 284 284 285 285 286 286 287 287 288 288 288 288 287 286 286 287 288 288 289 290 289 288 288 289 289 290 293 296 302 311 312 312 314 314 304 308
288 288 288 286 286 286 285 284 284 284 283 283 284 283 284 285 283 284 285 286 286 286 287 287 288 288 288 288 286 287 287 287 288 289 291 294 300 311 314 315 314 313 314
286 285 286 285 284 284 284 282 282 283 283 282 283 283 283 282 281 282 283 284 285 285 286 286 287 287 287 287 286 285 285 285 286 286 288 291 296 307 312 316 315 315 314
285 284 284 283 283 282 282 281 281 281 281 281 281 283 283 281 281 280 281 282 283 285 286 286 286 286 286 286 285 284 284 283 284 285 287 289 295 308 312 313 317 316 314
284 283 282 282 282 282 280 279 279 279 279 279 280 280 281 280 280 279 280 281 282 283 284 285 285 284 285 286 285 284 283 282 283 285 286 289 299 303 312 312 315 314 312
283 282 281 280 281 280 279 278 278 280 279 279 279 279 280 279 280 279 279 280 280 281 282 283 284 283 283 284 283 283 284 283 285 285 286 293 297 299 305 313 314 312 309
281 280 279 279 282 280 278 278 279 278 279 279 279 279 279 279 279 278 279 279 279 280 280 281 282 281 281 282 282 282 283 283 283 284 287 292 294 297 299 312 315 313 310
282 282 281 279 279 280 278 277 278 278 279 279 279 279 279 278 278 278 278 278 278 278 279 279 280 280 281 282 282 282 282 282 283 283 286 289 291 293 296 306 316 315 313

GFSGL_sfc_thetae_117.txt.gz
Theta_e
308 307 308 308 308 308 308 307 307 305 304 304 305 304 304 304 304 302 302 302 302 302 303 303 303 302 301 302 300 300 300 300 297 299 301 303 304 307 311 314 320 320 323
307 307 307 307 307 306 305 306 306 304 303 304 304 304 304 304 304 303 302 303 303 302 303 303 303 305 303 303 301 300 300 300 298 296 299 300 302 307 309 310 312 315 320
304 304 304 304 305 304 304 304 305 303 303 304 304 304 304 304 303 303 303 303 303 303 304 303 302 302 301 301 302 301 301 302 300 298 298 301 301 302 303 308 310 311 315
301 300 300 300 301 302 302 302 303 303 302 303 303 303 303 303 304 304 304 305 305 305 305 305 304 302 301 301 302 302 302 300 300 299 299 300 301 301 302 302 302 304 306
299 298 297 298 300 301 301 300 300 301 301 302 302 302 302 302 305 304 305 305 303 303 304 305 304 306 308 307 305 303 301 300 300 300 299 299 299 298 296 297 297 299 302
295 295 297 297 297 297 298 299 299 299 300 300 301 301 300 303 303 303 304 303 302 302 302 304 305 307 307 308 308 308 307 303 301 301 300 299 298 298 299 298 297 296 296
293 295 295 295 295 296 297 297 297 297 298 298 299 300 302 300 301 300 301 299 299 299 300 301 302 305 306 306 306 306 306 305 306 305 302 299 298 299 299 298 297 297 299
291 292 293 293 293 294 294 295 296 296 297 297 299 300 300 301 300 297 298 296 296 297 298 300 300 301 303 303 303 303 304 305 305 305 305 304 302 301 299 299 298 298 301
289 290 291 292 292 293 294 296 296 295 297 301 302 302 297 297 297 295 295 295 294 294 297 298 299 300 300 298 300 300 300 302 306 304 302 301 299 298 301 301 299 299 298
289 289 290 294 294 294 296 295 298 299 300 300 299 296 298 294 294 294 294 292 291 293 295 297 299 300 297 298 299 299 298 300 303 305 304 301 300 301 300 302 302 300 299
289 289 289 292 292 294 295 296 294 295 296 295 294 292 291 292 292 294 293 291 291 291 293 296 301 299 297 296 296 299 300 301 302 304 304 304 305 304 303 303 303 302 299
289 288 288 289 292 294 294 292 291 289 288 289 289 288 289 290 293 292 291 291 292 293 294 298 301 297 295 296 300 297 294 295 299 301 303 303 303 304 305 306 307 305 305
288 287 290 292 292 293 293 290 289 287 286 288 289 288 287 290 290 291 291 291 293 294 296 297 296 295 296 298 297 296 299 300 298 299 299 301 304 305 306 306 308 308 306
286 287 288 292 291 292 292 291 289 288 286 287 287 287 288 288 288 289 289 291 293 294 295 299 297 296 296 295 296 297 298 299 300 301 301 302 304 304 304 306 305 306 306
285 286 286 286 287 290 291 291 290 289 288 287 287 288 287 286 287 289 289 289 290 291 294 294 293 293 293 292 292 293 294 295 295 300 303 303 303 304 304 306 306 307 305
285 285 284 286 286 288 289 290 291 291 290 289 289 288 288 289 289 289 289 289 289 290 291 289 290 289 290 289 289 289 291 291 292 295 301 303 305 306 307 309 310 307 306
284 285 286 288 287 286 288 287 287 290 291 289 288 288 288 287 288 288 288 289 288 289 288 287 287 288 288 288 287 287 287 289 291 292 294 300 304 305 305 307 309 311 309
285 289 286 285 285 285 285 286 286 285 284 284 287 286 287 287 287 287 287 288 287 287 287 287 286 287 287 287 286 286 287 287 288 289 290 293 296 304 307 309 310 310 311
286 285 286 286 286 285 284 284 284 283 282 283 283 283 285 285 285 285 285 285 284 284 285 286 286 286 286 286 285 285 285 285 286 287 288 290 292 296 302 310 309 300 306
285 287 286 284 284 283 283 282 282 281 281 281 281 280 281 281 280 280 281 281 282 283 284 284 285 285 285 285 284 284 284 284 284 285 286 288 290 293 300 312 312 311 312
284 284 284 283 282 282 280 280 280 280 279 279 279 281 281 279 278 278 279 280 280 281 281 283 283 283 283 284 283 282 283 283 283 284 285 286 288 292 301 314 314 314 313
283 283 282 281 281 280 279 279 279 279 278 278 278 280 280 279 278 278 279 279 279 280 281 281 282 282 282 282 281 281 281 281 281 283 284 285 289 296 300 311 315 313 311
282 282 281 281 280 280 279 279 279 278 278 277 278 278 278 278 277 277 278 278 279 279 279 280 280 280 281 282 282 281 281 280 281 283 282 285 290 294 298 308 314 312 309
281 281 280 280 280 278 278 277 277 279 279 278 278 278 278 277 277 277 278 278 278 278 279 279 279 279 280 281 281 282 281 282 283 283 284 287 289 292 296 306 310 308 306
279 279 279 278 278 277 276 277 277 278 278 278 278 279 279 277 277 277 278 278 278 278 278 279 279 279 280 280 280 281 281 281 282 282 285 288 290 290 293 301 310 308 307
280 280 279 277 278 277 277 276 277 277 278 278 277 278 279 276 277 277 277 278 278 278 279 279 279 279 280 280 280 280 281 281 281 282 284 286 288 288 289 295 304 310 308

GFSGL_sfc_thetae_120.txt.gz
Theta_e
310 310 310 310 310 310 309 309 309 309 308 307 307 307 307 307 308 307 306 306 306 306 306 306 306 307 305 305 304 304 303 303 299 302 305 307 306 306 308 310 312 314 315
309 309 308 309 309 308 308 308 309 307 307 306 307 307 307 307 307 306 305 306 305 305 306 306 305 307 307 306 305 304 304 304 301 299 303 304 304 306 307 308 308 308 311
305 304 304 305 307 306 306 306 307 306 306 306 306 306 306 306 306 306 306 305 305 306 306 306 306 306 305 305 305 304 304 304 304 301 300 304 304 306 305 307 306 310 310
301 300 300 301 302 303 303 304 304 305 304 305 305 305 305 305 305 306 306 307 306 306 307 307 307 306 306 305 305 305 305 303 303 302 301 301 302 305 305 303 302 304 304
298 298 297 299 300 301 301 302 302 302 303 303 303 304 304 304 306 305 305 303 302 303 303 304 306 307 309 309 307 306 306 304 303 301 300 301 302 302 302 303 300 301 303
296 296 297 297 298 298 299 300 301 301 301 302 302 303 303 304 301 302 301 299 299 299 299 301 303 305 306 306 307 307 307 304 303 303 302 300 301 304 305 302 301 299 298
293 294 294 295 295 296 297 298 299 299 299 300 301 302 303 302 299 297 298 297 297 298 298 299 300 302 303 303 303 304 305 305 306 305 302 303 302 304 305 303 302 301 301
291 292 293 293 294 295 296 297 297 298 299 299 301 303 301 300 297 295 296 296 295 297 297 298 298 299 301 301 301 301 302 303 304 305 305 305 306 307 306 303 303 303 303
289 290 291 293 294 295 296 297 298 298 299 301 300 299 297 295 295 294 294 294 294 294 296 297 298 299 299 297 299 299 301 304 306 304 302 301 300 300 303 303 300 298 298
289 289 290 293 293 294 296 296 296 297 297 298 297 295 294 293 293 293 293 292 291 292 294 297 298 298 296 295 297 299 298 300 304 304 304 304 301 303 301 303 302 299 300
290 290 290 291 293 295 295 293 293 292 293 294 293 292 292 291 292 292 292 291 291 291 293 296 299 297 295 294 294 299 295 296 299 300 302 304 305 304 303 303 303 301 300
290 290 290 291 293 295 293 292 290 290 290 292 290 290 291 292 292 291 291 291 292 292 294 297 298 295 293 293 294 292 293 297 299 300 300 301 303 304 305 305 305 304 307
289 289 290 292 293 293 291 290 288 289 288 288 288 288 289 290 290 290 291 291 292 293 295 296 295 293 293 295 293 293 293 294 294 295 297 301 302 305 307 307 307 308 307
288 288 289 290 292 292 292 290 288 287 287 287 287 287 287 288 288 289 290 291 291 292 293 294 294 293 293 293 293 292 293 292 292 292 293 302 305 305 305 306 305 306 305
287 288 288 288 289 290 292 291 289 289 288 286 286 287 286 285 286 288 288 289 290 290 292 291 291 291 291 290 291 291 291 290 289 290 292 294 303 306 305 306 305 305 303
286 286 287 288 288 289 289 290 291 290 289 287 288 288 286 287 287 287 288 289 289 289 290 288 287 287 287 287 287 287 288 288 288 289 289 292 294 299 307 307 307 305 303
285 286 286 286 287 287 288 287 286 288 289 287 286 286 286 286 286 286 286 288 287 288 286 286 285 285 286 286 286 285 285 287 288 287 288 289 291 293 296 304 307 307 306
286 287 285 286 285 285 285 285 285 284 283 283 285 284 284 284 284 284 285 286 284 285 284 284 284 284 284 285 284 283 284 285 285 286 286 287 289 291 292 297 307 309 309
286 285 285 285 285 285 284 284 283 282 282 281 282 283 283 283 282 282 283 282 281 281 282 283 284 283 283 283 283 283 283 283 284 284 285 285 287 288 289 294 303 301 305
286 286 285 284 283 282 282 281 281 281 280 280 280 280 281 281 279 280 280 280 280 280 281 281 283 283 282 282 281 282 282 282 282 282 283 284 285 287 290 296 300 313 314
284 283 283 282 281 281 281 280 280 280 279 279 279 280 279 279 278 278 279 279 279 279 279 279 280 280 281 281 281 281 281 281 281 281 282 283 284 287 292 296 303 315 313
284 283 282 281 281 281 280 280 280 280 280 279 279 280 279 279 278 278 279 279 279 279 279 279 279 280 280 281 281 280 280 280 280 280 281 282 284 288 292 295 303 314 311
283 282 281 281 281 280 280 280 280 280 279 280 280 279 279 278 278 278 279 279 279 279 280 280 279 279 281 281 281 280 280 279 280 281 281 283 285 288 291 295 312 312 310
282 282 281 281 280 279 279 279 280 280 279 279 279 280 279 278 278 278 279 279 280 280 280 280 280 280 280 281 281 281 281 281 281 281 282 284 285 287 290 295 308 310 306
282 282 281 280 280 279 279 279 279 279 280 279 278 279 279 279 278 279 279 279 280 280 280 280 280 280 280 280 280 280 280 280 281 281 282 284 285 287 288 293 297 307 305
282 282 281 280 279 279 279 278 277 278 278 278 278 278 279 279 278 278 279 279 279 279 280 280 280 280 280 280 280 280 280 280 280 281 282 284 284 285 287 290 293 298 306